[[{"header":{"parameterUnit":"m.s-1","parameterCategory":1,"la1":31.0,"la2":29.5877,"lo1":-88.7671,"lo2":-86.6584,"dy":0.0162,"dx":0.0185,"nx":115,"ny":88,"refTime":"2024-05-09T06:00:00:Z","depth":0,"parameterNumber":2,"parameterNumberName":"U-component_of_WINDS"},"data":[0.0,0.0,0.0,0.0,0.0,0.0,0.0,0.0,0.0,0.0,0.0,0.0,0.0,0.0,0.0,0.0,0.0,0.0,0.0,0.0,0.0,0.0,0.0,0.0,0.0,0.0,0.0,0.0,0.0,0.0,0.0,0.0,0.0,0.0,0.0,0.0,0.0,0.0,0.0,0.0,0.0,0.0,0.0,0.0,0.0,0.0,0.0,0.0,0.0,0.0,0.0,0.0,0.0,0.0,0.0,0.0,0.0,0.0,0.0,0.0,0.0,0.0,0.0,0.0,0.0,0.0,0.0,0.0,0.0,0.0,0.0,0.0,0.0,0.0,0.0,0.0,0.0,0.0,0.0,0.0,0.0,0.0,0.0,0.0,0.0,0.0,0.0,0.0,0.0,0.0,0.0,0.0,0.0,0.0,0.0,0.0,0.0,0.0,0.0,0.0,0.0,0.0,0.0,0.0,0.0,0.0,0.0,0.0,0.0,0.0,0.0,0.0,0.0,0.0,0.0,0.0,0.0,0.0,0.0,0.0,0.0,0.0,0.0,0.0,0.0,0.0,0.0,0.0,0.0,0.0,0.0,0.0,0.0,0.0,0.0,0.0,0.0,0.0,0.0,0.0,0.0,0.0,0.0,0.0,0.0,0.0,0.0,0.0,0.0,0.0,0.0,0.0,0.0,0.0,0.0,0.0,0.0,0.0,0.0,0.0,0.0,0.0,0.0,0.0,0.0,0.0,0.0,0.0,0.0,0.0,0.0,0.0,0.0,0.0,0.0,0.0,0.0,0.0,0.0,0.0,0.0,0.0,0.0,0.0,0.0,0.0,0.0,0.0,0.0,0.0,0.0,0.0,0.0,0.0,0.0,0.0,0.0,0.0,0.0,0.0,0.0,0.0,0.0,0.0,0.0,0.0,0.0,0.0,0.0,0.0,0.0,0.0,0.0,0.0,0.0,0.0,0.0,0.0,0.0,0.0,0.0,0.0,0.0,0.0,0.0,0.0,0.0,0.0,0.0,0.0,0.0,0.0,0.0,0.0,0.0,0.0,0.0,0.0,0.0,0.0,0.0,0.0,0.0,0.0,0.0,0.0,0.0,0.0,0.0,0.0,0.0,0.0,0.0,0.0,0.0,0.0,0.0,0.0,0.0,0.0,0.0,0.0,0.0,0.0,0.0,0.0,0.0,0.0,0.0,0.0,0.0,0.0,0.0,0.0,0.0,0.0,0.0,0.0,0.0,0.0,0.0,0.0,0.0,0.0,0.0,0.0,0.0,0.0,0.0,0.0,0.0,0.0,0.0,0.0,0.0,0.0,0.0,0.0,0.0,0.0,0.0,0.0,0.0,0.0,0.0,0.0,0.0,0.0,0.0,0.0,0.0,0.0,0.0,0.0,0.0,0.0,0.0,0.0,0.0,0.0,0.0,0.0,0.0,0.0,0.0,0.0,0.0,0.0,0.0,0.0,0.0,0.0,0.0,0.0,0.0,0.0,0.0,0.0,0.0,0.0,0.0,0.0,0.0,0.0,0.0,0.0,0.0,0.0,0.0,0.0,0.0,0.0,0.0,0.0,0.0,0.0,0.0,0.0,0.0,0.0,0.0,0.0,0.0,0.0,0.0,0.0,0.0,0.0,0.0,0.0,0.0,0.0,0.0,0.0,0.0,0.0,0.0,0.0,0.0,0.0,0.0,0.0,0.0,0.0,0.0,0.0,0.0,0.0,0.0,0.0,0.0,0.0,0.0,0.0,0.0,0.0,0.0,0.0,0.0,0.0,0.0,0.0,0.0,0.0,0.0,0.0,0.0,0.0,0.0,0.0,0.0,0.0,0.0,0.0,0.0,0.0,0.0,0.0,0.0,0.0,0.0,0.0,0.0,0.0,0.0,0.0,0.0,0.0,0.0,0.0,0.0,0.0,0.0,0.0,0.0,0.0,0.0,0.0,0.0,0.0,0.0,0.0,0.0,0.0,0.0,0.0,0.0,0.0,0.0,0.0,0.0,0.0,0.0,0.0,0.0,0.0,0.0,0.0,0.0,0.0,0.0,0.0,0.0,0.0,0.0,0.0,0.0,0.0,0.0,0.0,0.0,0.0,0.0,0.0,0.0,0.0,0.0,0.0,0.0,0.0,0.0,0.0,0.0,0.0,0.0,0.0,0.0,0.0,0.0,0.0,0.0,0.0,0.0,0.0,0.0,0.0,0.0,0.0,0.0,0.0,0.0,0.0,0.0,0.0,0.0,0.0,0.0,0.0,0.0,0.0,0.0,0.0,0.0,0.0,0.0,0.0,0.0,0.0,0.0,0.0,0.0,0.0,0.0,0.0,0.0,0.0,0.0,0.0,0.0,0.0,0.0,0.0,0.0,0.0,0.0,0.0,0.0,0.0,0.0,0.0,0.0,0.0,0.0,0.0,0.0,0.0,0.0,0.0,0.0,0.0,0.0,0.0,0.0,0.0,0.0,0.0,0.0,0.0,0.0,0.0,0.0,0.0,0.0,0.0,0.0,0.0,0.0,0.0,0.0,0.0,0.0,0.0,0.0,0.0,0.0,0.0,0.0,0.0,0.0,0.0,0.0,0.0,0.0,0.0,0.0,0.0,0.0,0.0,0.0,0.0,0.0,0.0,0.0,0.0,0.0,0.0,0.0,0.0,0.0,0.0,0.0,0.0,0.0,0.0,0.0,0.0,0.0,0.0,0.0,0.0,0.0,0.0,0.0,0.0,0.0,0.0,0.0,0.0,0.0,0.0,0.0,0.0,0.0,0.0,0.0,0.0,0.0,0.0,0.0,0.0,0.0,0.0,0.0,0.0,0.0,0.0,0.0,0.0,0.0,0.0,0.0,0.0,0.0,0.0,0.0,0.0,0.0,0.0,0.0,0.0,0.0,0.0,0.0,0.0,0.0,0.0,0.0,0.0,0.0,0.0,0.0,0.0,0.0,0.0,0.0,0.0,0.0,0.0,0.0,0.0,0.0,0.0,0.0,0.0,0.0,0.0,0.0,0.0,0.0,0.0,0.0,0.0,0.0,0.0,0.0,0.0,0.0,0.0,0.0,0.0,0.0,0.0,0.0,0.0,0.0,0.0,0.0,0.0,0.0,0.0,0.0,0.0,0.0,0.0,0.0,0.0,0.0,0.0,0.0,0.0,0.0,0.0,0.0,0.0,0.0,0.0,0.0,0.0,0.0,0.0,0.0,0.0,0.0,0.0,0.0,0.0,0.0,0.0,0.0,0.0,0.0,0.0,0.0,0.0,0.0,0.0,0.0,0.0,0.0,0.0,0.0,0.0,0.0,0.0,0.0,0.0,0.0,0.0,0.0,0.0,0.0,0.0,0.0,0.0,0.0,0.0,0.0,0.0,0.0,0.0,0.0,0.0,0.0,0.0,0.0,0.0,0.0,0.0,0.0,0.0,0.0,0.0,0.0,0.0,0.0,0.0,0.0,0.0,0.0,0.0,0.0,0.0,0.0,0.0,0.0,0.0,0.0,0.0,0.0,0.0,0.0,0.0,0.0,0.0,0.0,0.0,0.0,0.0,0.0,0.0,0.0,0.0,0.0,0.0,0.0,0.0,0.0,0.0,0.0,0.0,0.0,0.0,0.0,0.0,0.0,0.0,0.0,0.0,0.0,0.0,0.0,0.0,0.0,0.0,0.0,0.0,0.0,0.0,0.0,0.0,0.0,0.0,0.0,0.0,0.0,0.0,0.0,0.0,0.0,0.0,0.0,0.0,0.0,0.0,0.0,0.0,0.0,0.0,0.0,0.0,0.0,0.0,0.0,0.0,0.0,0.0,0.0,0.0,0.0,0.0,0.0,0.0,0.0,0.0,0.0,0.0,0.0,0.0,0.0,0.0,0.0,0.0,0.0,0.0,0.0,0.0,0.0,0.0,0.0,0.0,0.0,0.0,0.0,0.0,0.0,0.0,0.0,0.0,0.0,0.0,0.0,0.0,0.0,0.0,0.0,0.0,0.0,0.0,0.0,0.0,0.0,0.0,0.0,0.0,0.0,0.0,0.0,0.0,0.0,0.0,0.0,0.0,0.0,0.0,0.0,0.0,0.0,0.0,0.0,0.0,0.0,0.0,0.0,0.0,0.0,0.0,0.0,0.0,0.0,0.0,0.0,0.0,0.0,0.0,0.0,0.0,0.0,0.0,0.0,0.0,0.0,0.0,0.0,0.0,0.0,0.0,0.0,0.0,0.0,0.0,0.0,0.0,0.0,0.0,0.0,0.0,0.0,0.0,0.0,0.0,0.0,0.0,0.0,0.0,0.0,0.0,-3.5789,0.0,0.0,0.0,0.0,0.0,0.0,0.0,0.0,0.0,0.0,0.0,0.0,0.0,0.0,0.0,0.0,0.0,0.0,0.0,0.0,0.0,0.0,0.0,0.0,0.0,0.0,0.0,0.0,0.0,0.0,0.0,0.0,0.0,0.0,0.0,0.0,0.0,0.0,0.0,0.0,0.0,0.0,0.0,0.0,0.0,0.0,0.0,0.0,0.0,0.0,0.0,0.0,0.0,0.0,0.0,0.0,0.0,0.0,0.0,0.0,0.0,0.0,0.0,0.0,0.0,0.0,0.0,0.0,0.0,0.0,0.0,0.0,0.0,0.0,0.0,0.0,0.0,0.0,0.0,0.0,0.0,0.0,0.0,0.0,0.0,0.0,0.0,0.0,0.0,0.0,0.0,0.0,0.0,0.0,0.0,0.0,0.0,0.0,0.0,0.0,0.0,0.0,0.0,0.0,0.0,0.0,0.0,0.0,0.0,0.0,-3.5858,-3.5794,-3.5762,-3.5762,-3.5789,0.0,0.0,0.0,0.0,0.0,0.0,0.0,0.0,0.0,0.0,0.0,0.0,0.0,0.0,0.0,0.0,0.0,0.0,0.0,0.0,0.0,0.0,0.0,0.0,0.0,0.0,0.0,0.0,0.0,0.0,0.0,0.0,0.0,0.0,0.0,0.0,0.0,0.0,0.0,0.0,0.0,0.0,0.0,0.0,0.0,0.0,0.0,0.0,0.0,0.0,0.0,0.0,0.0,0.0,0.0,0.0,0.0,0.0,0.0,0.0,0.0,0.0,0.0,0.0,0.0,0.0,0.0,0.0,0.0,0.0,0.0,0.0,0.0,0.0,0.0,0.0,0.0,0.0,0.0,0.0,0.0,0.0,0.0,0.0,0.0,0.0,0.0,0.0,0.0,0.0,0.0,0.0,0.0,0.0,0.0,0.0,0.0,0.0,0.0,0.0,0.0,0.0,0.0,0.0,0.0,0.0,0.0,0.0,0.0,0.0,0.0,0.0,-3.5831,-3.5829,-3.5829,0.0,0.0,0.0,0.0,0.0,0.0,0.0,0.0,0.0,0.0,0.0,0.0,0.0,0.0,0.0,0.0,0.0,0.0,0.0,0.0,0.0,0.0,0.0,0.0,0.0,0.0,0.0,0.0,0.0,0.0,0.0,0.0,0.0,0.0,0.0,0.0,0.0,0.0,0.0,0.0,0.0,0.0,0.0,0.0,0.0,0.0,0.0,0.0,0.0,0.0,0.0,0.0,0.0,0.0,0.0,0.0,0.0,0.0,0.0,0.0,0.0,0.0,0.0,0.0,0.0,0.0,0.0,0.0,0.0,0.0,0.0,0.0,0.0,0.0,0.0,0.0,0.0,0.0,0.0,0.0,0.0,0.0,0.0,0.0,0.0,0.0,0.0,0.0,0.0,0.0,0.0,0.0,0.0,0.0,0.0,0.0,0.0,0.0,0.0,0.0,0.0,0.0,0.0,0.0,0.0,0.0,0.0,0.0,0.0,0.0,-3.5957,-3.5884,-3.5895,0.0,-3.5892,0.0,0.0,0.0,0.0,0.0,0.0,0.0,0.0,0.0,0.0,0.0,0.0,0.0,0.0,0.0,0.0,0.0,0.0,0.0,0.0,0.0,0.0,0.0,0.0,0.0,0.0,0.0,0.0,0.0,0.0,0.0,0.0,0.0,0.0,0.0,0.0,0.0,0.0,0.0,0.0,0.0,0.0,0.0,0.0,0.0,0.0,0.0,0.0,0.0,0.0,0.0,0.0,0.0,0.0,0.0,0.0,0.0,0.0,0.0,0.0,0.0,0.0,0.0,0.0,0.0,0.0,0.0,0.0,0.0,0.0,0.0,0.0,0.0,0.0,0.0,0.0,0.0,0.0,0.0,0.0,0.0,0.0,0.0,0.0,0.0,0.0,0.0,0.0,0.0,0.0,0.0,0.0,0.0,0.0,0.0,0.0,0.0,0.0,0.0,0.0,0.0,0.0,0.0,0.0,0.0,0.0,0.0,0.0,0.0,0.0,-3.5975,-3.5956,-3.5955,-3.6183,0.0,0.0,0.0,0.0,0.0,0.0,0.0,0.0,0.0,0.0,0.0,0.0,0.0,0.0,0.0,0.0,0.0,0.0,0.0,0.0,0.0,0.0,0.0,0.0,0.0,0.0,0.0,0.0,0.0,0.0,0.0,0.0,0.0,0.0,0.0,0.0,0.0,0.0,0.0,0.0,0.0,0.0,0.0,0.0,0.0,0.0,0.0,0.0,0.0,0.0,0.0,0.0,0.0,0.0,0.0,0.0,0.0,0.0,0.0,0.0,0.0,0.0,0.0,0.0,0.0,0.0,0.0,0.0,0.0,0.0,0.0,0.0,0.0,0.0,0.0,0.0,0.0,0.0,0.0,0.0,0.0,0.0,0.0,0.0,0.0,0.0,0.0,0.0,0.0,0.0,0.0,0.0,0.0,0.0,0.0,0.0,0.0,0.0,0.0,0.0,0.0,0.0,0.0,0.0,0.0,0.0,0.0,0.0,0.0,0.0,-3.6007,-3.6109,-3.6366,-3.6601,-3.6991,-3.7567,0.0,0.0,0.0,0.0,0.0,0.0,0.0,0.0,0.0,0.0,0.0,0.0,0.0,0.0,0.0,0.0,0.0,0.0,0.0,0.0,0.0,0.0,0.0,0.0,0.0,0.0,0.0,0.0,0.0,0.0,0.0,0.0,0.0,0.0,0.0,0.0,0.0,0.0,0.0,0.0,0.0,0.0,0.0,0.0,0.0,0.0,0.0,0.0,0.0,0.0,0.0,0.0,0.0,0.0,0.0,0.0,0.0,0.0,0.0,0.0,0.0,0.0,0.0,0.0,0.0,0.0,0.0,0.0,0.0,0.0,0.0,0.0,0.0,0.0,0.0,0.0,0.0,0.0,0.0,0.0,0.0,0.0,0.0,0.0,0.0,0.0,0.0,0.0,0.0,0.0,0.0,0.0,0.0,0.0,0.0,0.0,0.0,0.0,0.0,0.0,0.0,0.0,0.0,0.0,0.0,0.0,0.0,0.0,-3.6033,-3.6021,-3.6419,-3.7245,-3.8047,-3.8516,0.0,0.0,0.0,0.0,0.0,0.0,0.0,0.0,0.0,0.0,0.0,0.0,0.0,0.0,0.0,0.0,0.0,0.0,0.0,0.0,0.0,0.0,0.0,0.0,0.0,0.0,0.0,0.0,0.0,0.0,0.0,0.0,0.0,0.0,0.0,0.0,0.0,0.0,0.0,0.0,0.0,0.0,0.0,0.0,0.0,0.0,0.0,0.0,0.0,0.0,0.0,0.0,0.0,0.0,0.0,0.0,0.0,0.0,0.0,0.0,0.0,0.0,0.0,0.0,0.0,0.0,0.0,0.0,0.0,0.0,0.0,0.0,0.0,0.0,0.0,0.0,0.0,0.0,0.0,0.0,0.0,0.0,0.0,0.0,0.0,0.0,0.0,0.0,0.0,0.0,0.0,0.0,0.0,0.0,0.0,0.0,0.0,0.0,0.0,0.0,0.0,0.0,0.0,0.0,0.0,0.0,0.0,0.0,0.0,-3.6833,-3.737,-3.7807,-3.8123,-3.8437,-3.8867,0.0,0.0,0.0,0.0,0.0,0.0,0.0,0.0,0.0,0.0,0.0,0.0,0.0,0.0,0.0,0.0,0.0,0.0,0.0,0.0,0.0,0.0,0.0,0.0,0.0,0.0,0.0,0.0,0.0,0.0,0.0,0.0,0.0,0.0,0.0,0.0,0.0,0.0,0.0,0.0,0.0,0.0,0.0,0.0,0.0,0.0,0.0,0.0,0.0,0.0,0.0,0.0,0.0,0.0,0.0,0.0,0.0,0.0,0.0,0.0,0.0,0.0,0.0,0.0,0.0,0.0,0.0,0.0,0.0,0.0,0.0,0.0,0.0,0.0,0.0,0.0,0.0,0.0,0.0,0.0,0.0,0.0,0.0,0.0,0.0,0.0,0.0,0.0,0.0,0.0,0.0,0.0,0.0,0.0,0.0,0.0,0.0,0.0,0.0,0.0,0.0,0.0,0.0,0.0,0.0,0.0,0.0,0.0,0.0,-3.7713,0.0,-3.9038,-3.9021,-3.9296,-3.9707,0.0,0.0,0.0,0.0,0.0,0.0,0.0,0.0,0.0,0.0,0.0,0.0,0.0,0.0,0.0,0.0,0.0,0.0,0.0,0.0,0.0,0.0,0.0,0.0,0.0,0.0,0.0,0.0,0.0,0.0,0.0,0.0,0.0,0.0,0.0,0.0,0.0,0.0,0.0,0.0,0.0,0.0,0.0,0.0,0.0,0.0,0.0,0.0,0.0,0.0,0.0,0.0,0.0,0.0,0.0,0.0,0.0,0.0,0.0,0.0,0.0,0.0,0.0,0.0,0.0,0.0,0.0,0.0,0.0,0.0,0.0,0.0,0.0,0.0,0.0,0.0,0.0,0.0,0.0,0.0,0.0,0.0,0.0,0.0,0.0,0.0,0.0,0.0,0.0,0.0,0.0,0.0,0.0,0.0,0.0,0.0,0.0,0.0,0.0,0.0,0.0,0.0,0.0,0.0,0.0,0.0,0.0,0.0,-3.775,-3.8591,-3.9443,-3.9916,-3.9936,-4.0683,-4.1152,0.0,0.0,0.0,0.0,0.0,0.0,0.0,0.0,0.0,0.0,0.0,0.0,0.0,0.0,0.0,0.0,0.0,0.0,0.0,0.0,0.0,0.0,0.0,0.0,0.0,0.0,0.0,0.0,0.0,0.0,0.0,0.0,0.0,0.0,0.0,0.0,0.0,0.0,0.0,0.0,0.0,0.0,0.0,0.0,0.0,0.0,0.0,0.0,0.0,0.0,0.0,0.0,0.0,0.0,0.0,0.0,0.0,0.0,0.0,0.0,0.0,0.0,0.0,0.0,0.0,0.0,0.0,0.0,0.0,0.0,0.0,0.0,0.0,0.0,0.0,0.0,0.0,0.0,0.0,0.0,0.0,0.0,0.0,0.0,0.0,0.0,0.0,0.0,0.0,0.0,0.0,0.0,0.0,0.0,0.0,0.0,0.0,0.0,0.0,0.0,0.0,0.0,0.0,0.0,0.0,0.0,0.0,0.0,0.0,-3.9497,-4.0304,-4.0737,-4.0739,-4.1015,-4.1191,0.0,0.0,0.0,0.0,0.0,0.0,0.0,0.0,0.0,0.0,0.0,0.0,0.0,0.0,0.0,0.0,0.0,0.0,0.0,0.0,0.0,0.0,0.0,0.0,0.0,0.0,0.0,0.0,0.0,0.0,0.0,0.0,0.0,0.0,0.0,0.0,0.0,0.0,0.0,0.0,0.0,0.0,0.0,0.0,0.0,0.0,0.0,0.0,0.0,0.0,0.0,0.0,0.0,0.0,0.0,0.0,0.0,0.0,0.0,0.0,0.0,0.0,0.0,0.0,0.0,0.0,0.0,0.0,0.0,0.0,0.0,0.0,0.0,0.0,0.0,0.0,0.0,0.0,0.0,0.0,0.0,0.0,0.0,0.0,0.0,0.0,0.0,0.0,0.0,0.0,0.0,0.0,0.0,0.0,0.0,0.0,0.0,0.0,0.0,0.0,0.0,0.0,0.0,0.0,0.0,0.0,0.0,0.0,0.0,-4.024,-4.0801,-4.1106,-4.111,-4.1132,-4.1172,-4.1191,0.0,0.0,0.0,0.0,0.0,0.0,0.0,0.0,0.0,0.0,0.0,0.0,0.0,0.0,0.0,0.0,0.0,0.0,0.0,0.0,0.0,0.0,0.0,0.0,0.0,0.0,0.0,0.0,0.0,0.0,0.0,0.0,0.0,0.0,0.0,0.0,0.0,0.0,0.0,0.0,0.0,0.0,0.0,0.0,0.0,0.0,0.0,0.0,0.0,0.0,0.0,0.0,0.0,0.0,0.0,0.0,0.0,0.0,0.0,0.0,0.0,0.0,0.0,0.0,0.0,0.0,0.0,0.0,0.0,0.0,0.0,0.0,0.0,0.0,0.0,0.0,0.0,0.0,0.0,0.0,0.0,0.0,0.0,0.0,0.0,0.0,0.0,0.0,0.0,0.0,0.0,0.0,0.0,0.0,0.0,0.0,0.0,0.0,0.0,0.0,0.0,0.0,0.0,0.0,0.0,0.0,0.0,0.0,-4.0807,-4.0996,-4.1077,-4.1084,-4.1089,-4.1131,0.0,0.0,0.0,0.0,0.0,0.0,0.0,0.0,0.0,0.0,0.0,0.0,0.0,0.0,0.0,0.0,0.0,0.0,0.0,0.0,0.0,0.0,0.0,0.0,0.0,0.0,0.0,0.0,0.0,0.0,0.0,0.0,0.0,0.0,0.0,0.0,0.0,0.0,0.0,0.0,0.0,0.0,0.0,0.0,0.0,0.0,0.0,0.0,0.0,0.0,0.0,0.0,0.0,0.0,0.0,0.0,0.0,0.0,0.0,0.0,0.0,0.0,0.0,0.0,0.0,0.0,0.0,0.0,0.0,0.0,0.0,0.0,0.0,0.0,0.0,0.0,0.0,0.0,0.0,0.0,0.0,0.0,0.0,0.0,0.0,0.0,0.0,0.0,0.0,0.0,0.0,0.0,0.0,0.0,0.0,0.0,0.0,0.0,0.0,0.0,0.0,0.0,0.0,0.0,0.0,0.0,0.0,0.0,0.0,-4.0805,-4.0848,-4.0886,-4.088,-4.097,-4.1031,0.0,0.0,0.0,0.0,0.0,0.0,0.0,0.0,0.0,0.0,0.0,0.0,0.0,0.0,0.0,0.0,0.0,0.0,0.0,0.0,0.0,0.0,0.0,0.0,0.0,0.0,0.0,0.0,0.0,0.0,0.0,0.0,0.0,0.0,0.0,0.0,0.0,0.0,0.0,0.0,0.0,0.0,0.0,0.0,0.0,0.0,0.0,0.0,0.0,0.0,0.0,0.0,0.0,0.0,0.0,0.0,0.0,0.0,0.0,0.0,0.0,0.0,0.0,0.0,0.0,0.0,0.0,0.0,0.0,0.0,0.0,0.0,0.0,0.0,0.0,0.0,0.0,0.0,0.0,0.0,0.0,0.0,0.0,0.0,0.0,0.0,0.0,0.0,0.0,0.0,0.0,0.0,0.0,0.0,0.0,0.0,0.0,0.0,0.0,0.0,0.0,0.0,0.0,0.0,0.0,0.0,0.0,0.0,-4.0844,-4.0672,-4.0666,-4.0665,-4.0679,-4.0824,-4.0964,0.0,0.0,0.0,0.0,0.0,0.0,0.0,0.0,0.0,0.0,0.0,0.0,0.0,0.0,0.0,0.0,0.0,0.0,0.0,0.0,0.0,0.0,0.0,0.0,0.0,0.0,0.0,0.0,0.0,0.0,0.0,0.0,0.0,0.0,0.0,0.0,0.0,0.0,0.0,0.0,0.0,0.0,0.0,0.0,0.0,0.0,0.0,0.0,0.0,0.0,0.0,0.0,0.0,0.0,0.0,0.0,0.0,0.0,0.0,0.0,0.0,0.0,0.0,0.0,0.0,0.0,0.0,0.0,0.0,0.0,0.0,0.0,0.0,0.0,0.0,0.0,0.0,0.0,0.0,0.0,0.0,0.0,0.0,0.0,0.0,0.0,0.0,0.0,0.0,0.0,0.0,0.0,0.0,0.0,0.0,0.0,0.0,0.0,0.0,0.0,0.0,0.0,0.0,0.0,0.0,0.0,0.0,0.0,-4.069,-4.0504,-4.0496,-4.0496,-4.0504,-4.0693,-4.0855,0.0,0.0,0.0,0.0,0.0,0.0,0.0,0.0,0.0,0.0,0.0,0.0,0.0,0.0,0.0,0.0,0.0,0.0,0.0,0.0,0.0,0.0,0.0,0.0,0.0,0.0,0.0,0.0,0.0,0.0,0.0,0.0,0.0,0.0,0.0,0.0,0.0,0.0,0.0,0.0,0.0,0.0,0.0,0.0,0.0,0.0,0.0,0.0,0.0,0.0,0.0,0.0,0.0,0.0,0.0,0.0,0.0,0.0,0.0,0.0,0.0,0.0,0.0,0.0,0.0,0.0,0.0,0.0,0.0,0.0,0.0,0.0,0.0,0.0,0.0,0.0,0.0,0.0,0.0,0.0,0.0,0.0,0.0,0.0,0.0,0.0,0.0,0.0,0.0,0.0,0.0,0.0,0.0,0.0,0.0,0.0,0.0,0.0,0.0,0.0,0.0,0.0,0.0,0.0,0.0,0.0,0.0,0.0,-4.0662,-4.0504,-4.0496,-4.0496,-4.0496,-4.0662,-4.0747,0.0,0.0,0.0,0.0,0.0,0.0,0.0,0.0,0.0,0.0,0.0,0.0,0.0,0.0,0.0,0.0,0.0,0.0,0.0,0.0,0.0,0.0,0.0,0.0,0.0,0.0,0.0,0.0,0.0,0.0,0.0,0.0,0.0,0.0,0.0,0.0,0.0,0.0,0.0,0.0,0.0,0.0,0.0,0.0,0.0,0.0,0.0,0.0,-4.0778,0.0,0.0,0.0,0.0,0.0,0.0,0.0,0.0,0.0,0.0,0.0,0.0,0.0,0.0,0.0,0.0,0.0,0.0,0.0,0.0,0.0,0.0,0.0,0.0,0.0,0.0,0.0,0.0,0.0,0.0,0.0,0.0,0.0,0.0,0.0,0.0,0.0,0.0,0.0,0.0,0.0,0.0,0.0,0.0,0.0,0.0,0.0,0.0,0.0,0.0,0.0,0.0,0.0,0.0,0.0,0.0,0.0,0.0,0.0,-4.0648,-4.0504,-4.0496,-4.0496,-4.0496,-4.0574,-4.0654,0.0,0.0,0.0,0.0,0.0,0.0,0.0,0.0,0.0,0.0,0.0,0.0,0.0,0.0,0.0,0.0,0.0,0.0,0.0,0.0,0.0,0.0,0.0,0.0,0.0,0.0,0.0,0.0,0.0,0.0,0.0,0.0,0.0,0.0,0.0,0.0,0.0,0.0,0.0,0.0,0.0,0.0,0.0,0.0,0.0,0.0,0.0,0.0,0.0,0.0,0.0,0.0,0.0,0.0,0.0,0.0,0.0,0.0,0.0,0.0,0.0,0.0,0.0,0.0,0.0,0.0,0.0,0.0,0.0,0.0,0.0,0.0,0.0,0.0,0.0,0.0,0.0,0.0,0.0,0.0,0.0,0.0,0.0,0.0,0.0,0.0,0.0,0.0,0.0,0.0,0.0,0.0,0.0,0.0,0.0,0.0,0.0,0.0,0.0,0.0,0.0,0.0,0.0,0.0,0.0,0.0,0.0,-4.0662,-4.0609,-4.0504,-4.0496,-4.0496,-4.0496,-4.0496,-4.0554,-4.069,0.0,0.0,0.0,0.0,0.0,0.0,0.0,0.0,0.0,0.0,0.0,0.0,0.0,0.0,0.0,0.0,0.0,0.0,0.0,0.0,0.0,0.0,0.0,0.0,0.0,0.0,0.0,0.0,0.0,0.0,0.0,0.0,0.0,0.0,0.0,0.0,0.0,0.0,-4.0902,-4.0964,0.0,0.0,0.0,0.0,0.0,0.0,0.0,0.0,-4.1435,0.0,0.0,0.0,0.0,0.0,0.0,0.0,0.0,0.0,0.0,0.0,0.0,0.0,0.0,0.0,0.0,0.0,0.0,0.0,0.0,0.0,0.0,0.0,0.0,0.0,0.0,0.0,0.0,0.0,0.0,0.0,0.0,0.0,0.0,0.0,0.0,0.0,0.0,0.0,0.0,0.0,0.0,0.0,0.0,0.0,0.0,0.0,0.0,0.0,0.0,0.0,0.0,0.0,0.0,0.0,0.0,-4.0519,-4.0539,-4.0527,-4.0496,-4.0496,-4.0496,-4.0496,-4.0496,-4.0546,-4.0619,0.0,0.0,0.0,0.0,0.0,0.0,0.0,0.0,0.0,0.0,0.0,0.0,0.0,0.0,0.0,0.0,0.0,0.0,0.0,0.0,0.0,0.0,0.0,0.0,0.0,0.0,0.0,0.0,0.0,0.0,0.0,0.0,0.0,0.0,0.0,0.0,0.0,0.0,0.0,-4.1523,-4.2027,0.0,0.0,0.0,0.0,0.0,0.0,0.0,0.0,-4.164,0.0,0.0,0.0,0.0,0.0,0.0,0.0,0.0,0.0,0.0,0.0,0.0,0.0,0.0,0.0,0.0,0.0,0.0,0.0,0.0,0.0,0.0,0.0,0.0,0.0,0.0,0.0,0.0,0.0,0.0,0.0,0.0,0.0,0.0,0.0,0.0,0.0,0.0,0.0,0.0,0.0,0.0,0.0,0.0,0.0,0.0,0.0,0.0,0.0,0.0,0.0,0.0,0.0,0.0,0.0,-4.0502,-4.0507,-4.0492,-4.0496,-4.0496,-4.0496,-4.0496,-4.0496,-4.0523,0.0,0.0,0.0,0.0,0.0,0.0,0.0,0.0,0.0,0.0,0.0,0.0,0.0,0.0,0.0,0.0,0.0,0.0,0.0,0.0,0.0,0.0,0.0,0.0,0.0,0.0,0.0,0.0,0.0,0.0,0.0,0.0,0.0,0.0,0.0,0.0,0.0,0.0,0.0,0.0,-4.2325,-4.3019,-4.343,0.0,0.0,0.0,0.0,0.0,0.0,-4.2641,-4.1956,0.0,0.0,0.0,0.0,0.0,0.0,0.0,0.0,0.0,0.0,0.0,0.0,0.0,0.0,0.0,0.0,0.0,0.0,0.0,0.0,0.0,0.0,0.0,0.0,0.0,0.0,0.0,0.0,0.0,0.0,0.0,0.0,0.0,0.0,0.0,0.0,0.0,0.0,0.0,0.0,0.0,0.0,0.0,0.0,0.0,0.0,0.0,0.0,0.0,0.0,0.0,0.0,0.0,0.0,0.0,-4.0466,-4.0485,-4.0491,-4.05,-4.05,-4.05,-4.05,-4.0489,-4.0489,0.0,0.0,0.0,0.0,0.0,0.0,0.0,0.0,0.0,0.0,0.0,0.0,0.0,0.0,0.0,0.0,0.0,0.0,0.0,0.0,0.0,0.0,0.0,0.0,0.0,0.0,0.0,0.0,0.0,0.0,0.0,0.0,0.0,0.0,0.0,0.0,0.0,0.0,0.0,0.0,0.0,-4.4001,-4.4642,-4.4865,0.0,0.0,0.0,0.0,-4.4666,-4.3492,0.0,0.0,0.0,0.0,0.0,0.0,0.0,0.0,0.0,0.0,0.0,0.0,0.0,0.0,0.0,0.0,0.0,0.0,0.0,0.0,0.0,0.0,0.0,0.0,0.0,0.0,0.0,0.0,0.0,0.0,0.0,0.0,0.0,0.0,0.0,0.0,0.0,0.0,0.0,0.0,0.0,0.0,0.0,0.0,0.0,0.0,0.0,0.0,0.0,0.0,0.0,0.0,0.0,0.0,0.0,0.0,-4.0415,-4.0415,-4.0441,-4.0491,-4.0491,-4.0491,-4.0491,-4.0492,-4.0492,0.0,0.0,0.0,0.0,0.0,0.0,0.0,0.0,0.0,0.0,0.0,0.0,0.0,0.0,0.0,0.0,0.0,0.0,0.0,0.0,0.0,0.0,0.0,0.0,0.0,0.0,0.0,0.0,0.0,0.0,0.0,0.0,0.0,0.0,0.0,0.0,0.0,0.0,0.0,0.0,0.0,-4.4685,-4.4779,-4.5445,-4.5974,0.0,0.0,-4.5572,-4.4814,-4.4502,0.0,0.0,0.0,0.0,0.0,0.0,0.0,0.0,0.0,0.0,0.0,0.0,0.0,0.0,0.0,0.0,0.0,0.0,0.0,0.0,0.0,0.0,0.0,0.0,0.0,0.0,0.0,0.0,0.0,0.0,0.0,0.0,0.0,0.0,0.0,0.0,0.0,0.0,0.0,0.0,0.0,0.0,0.0,0.0,0.0,0.0,0.0,0.0,0.0,0.0,0.0,0.0,0.0,0.0,0.0,-4.0099,-4.012,-3.9962,-3.9973,-4.0205,-4.0252,-4.0242,-4.0214,-4.0402,-4.0419,0.0,0.0,0.0,0.0,0.0,0.0,0.0,0.0,0.0,0.0,0.0,0.0,0.0,0.0,0.0,0.0,0.0,0.0,0.0,0.0,0.0,0.0,0.0,0.0,0.0,0.0,0.0,0.0,0.0,0.0,0.0,0.0,0.0,0.0,0.0,0.0,0.0,0.0,0.0,0.0,0.0,0.0,-4.5533,-4.5857,0.0,0.0,0.0,-4.5872,-4.5452,0.0,0.0,0.0,0.0,0.0,0.0,0.0,0.0,0.0,0.0,0.0,0.0,0.0,0.0,0.0,0.0,0.0,0.0,0.0,0.0,0.0,0.0,0.0,0.0,0.0,0.0,0.0,0.0,0.0,0.0,0.0,0.0,0.0,0.0,0.0,0.0,0.0,0.0,0.0,0.0,0.0,0.0,0.0,0.0,0.0,0.0,0.0,0.0,0.0,0.0,0.0,0.0,0.0,0.0,0.0,0.0,0.0,-3.9813,-3.9595,-3.9618,-3.9861,-3.9941,-3.9922,-3.9891,-4.0129,0.0,0.0,0.0,0.0,0.0,0.0,0.0,0.0,0.0,0.0,0.0,0.0,0.0,0.0,0.0,0.0,0.0,0.0,0.0,0.0,0.0,0.0,0.0,0.0,0.0,0.0,0.0,-4.089,0.0,0.0,0.0,0.0,0.0,0.0,0.0,0.0,0.0,0.0,0.0,0.0,0.0,0.0,-4.6128,-4.6128,-4.6131,-4.612,0.0,0.0,-4.5998,-4.5927,-4.5429,-4.4963,0.0,0.0,0.0,0.0,0.0,0.0,0.0,0.0,0.0,0.0,0.0,0.0,0.0,0.0,0.0,0.0,0.0,0.0,0.0,0.0,0.0,0.0,0.0,0.0,0.0,0.0,0.0,0.0,0.0,0.0,0.0,0.0,0.0,0.0,0.0,0.0,0.0,0.0,0.0,0.0,0.0,0.0,0.0,0.0,0.0,0.0,0.0,0.0,0.0,0.0,0.0,0.0,0.0,0.0,-3.9773,-3.9532,-3.9508,-3.9513,-3.9536,-3.9548,-3.9548,-3.9529,-3.9611,-3.9775,0.0,0.0,0.0,0.0,0.0,0.0,0.0,0.0,0.0,0.0,0.0,0.0,0.0,0.0,0.0,0.0,0.0,0.0,0.0,0.0,0.0,0.0,0.0,0.0,0.0,0.0,0.0,0.0,0.0,0.0,0.0,0.0,0.0,0.0,0.0,0.0,0.0,0.0,0.0,0.0,0.0,-4.621,-4.6191,-4.6191,-4.6187,0.0,-4.6137,-4.6064,-4.5993,-4.5958,-4.5636,-4.4827,0.0,0.0,0.0,0.0,0.0,0.0,0.0,0.0,0.0,0.0,0.0,0.0,0.0,0.0,0.0,0.0,0.0,0.0,0.0,0.0,0.0,0.0,0.0,0.0,0.0,0.0,0.0,0.0,0.0,0.0,0.0,0.0,0.0,0.0,0.0,0.0,0.0,0.0,0.0,0.0,0.0,0.0,0.0,0.0,0.0,0.0,0.0,0.0,0.0,0.0,0.0,0.0,0.0,-3.9363,-3.9259,-3.9087,-3.9101,-3.9248,-3.9249,-3.9244,-3.9266,-3.9439,-3.9517,0.0,0.0,0.0,0.0,0.0,0.0,0.0,0.0,0.0,0.0,0.0,0.0,0.0,0.0,0.0,0.0,0.0,0.0,0.0,0.0,0.0,0.0,0.0,0.0,0.0,0.0,0.0,0.0,-4.0873,-4.0941,-4.1023,0.0,0.0,0.0,0.0,0.0,0.0,0.0,0.0,0.0,0.0,-4.621,-4.6211,-4.6211,0.0,0.0,-4.6145,-4.6091,-4.6056,-4.6022,-4.588,-4.5559,-4.5087,0.0,0.0,0.0,0.0,0.0,0.0,0.0,0.0,0.0,0.0,0.0,0.0,0.0,0.0,0.0,0.0,0.0,0.0,0.0,0.0,0.0,0.0,0.0,0.0,0.0,0.0,0.0,0.0,0.0,0.0,0.0,0.0,0.0,0.0,0.0,0.0,0.0,0.0,0.0,0.0,0.0,0.0,0.0,0.0,0.0,0.0,0.0,0.0,0.0,0.0,0.0,0.0,-3.9059,-3.8993,-3.8792,-3.8795,-3.8979,-3.898,-3.898,-3.8974,-3.9154,-3.921,0.0,0.0,0.0,0.0,0.0,0.0,0.0,0.0,0.0,0.0,0.0,0.0,0.0,0.0,0.0,0.0,0.0,0.0,0.0,0.0,0.0,0.0,0.0,0.0,0.0,0.0,0.0,0.0,-4.0801,-4.0902,-4.1078,0.0,0.0,0.0,0.0,0.0,0.0,0.0,0.0,0.0,0.0,-4.6243,-4.6228,-4.6228,-4.6229,-4.6211,-4.6165,-4.6105,-4.6121,-4.6052,-4.6018,-4.5988,0.0,0.0,0.0,0.0,0.0,0.0,0.0,0.0,0.0,0.0,0.0,0.0,0.0,0.0,0.0,0.0,0.0,0.0,0.0,0.0,0.0,0.0,0.0,0.0,0.0,0.0,0.0,0.0,0.0,0.0,-3.5667,0.0,0.0,0.0,0.0,0.0,0.0,0.0,0.0,0.0,0.0,0.0,0.0,0.0,0.0,0.0,0.0,0.0,0.0,0.0,0.0,0.0,0.0,-3.8964,-3.8704,-3.8707,-3.8707,-3.8723,-3.8707,-3.8704,-3.8723,-3.8704,-3.8829,-3.9085,0.0,0.0,0.0,0.0,0.0,0.0,0.0,0.0,0.0,0.0,0.0,0.0,0.0,0.0,0.0,0.0,0.0,0.0,0.0,0.0,0.0,0.0,0.0,0.0,0.0,0.0,-4.0328,-4.0549,-4.0818,0.0,0.0,0.0,0.0,0.0,0.0,0.0,0.0,0.0,0.0,-4.6306,-4.629,-4.63,-4.6302,-4.6274,-4.621,-4.6202,-4.6169,-4.6115,-4.6098,-4.6092,0.0,0.0,0.0,0.0,0.0,0.0,0.0,0.0,0.0,0.0,0.0,0.0,0.0,0.0,0.0,0.0,0.0,0.0,0.0,0.0,0.0,0.0,0.0,0.0,0.0,0.0,0.0,-3.5287,-3.4981,0.0,0.0,0.0,0.0,0.0,0.0,0.0,0.0,0.0,0.0,0.0,-3.688,-3.6618,0.0,0.0,0.0,0.0,0.0,0.0,0.0,0.0,0.0,0.0,0.0,0.0,-3.8664,-3.8575,-3.8546,-3.8512,-3.8541,-3.8559,-3.8609,-3.8707,-3.8707,-3.875,-3.8829,0.0,0.0,0.0,0.0,0.0,0.0,0.0,0.0,0.0,0.0,0.0,0.0,0.0,0.0,0.0,0.0,0.0,0.0,0.0,0.0,0.0,0.0,0.0,0.0,0.0,-4.0337,0.0,0.0,0.0,0.0,0.0,0.0,0.0,0.0,0.0,0.0,0.0,-4.524,-4.6114,-4.6245,-4.6245,-4.6238,-4.6267,-4.6296,0.0,0.0,0.0,0.0,0.0,0.0,0.0,0.0,0.0,0.0,0.0,0.0,0.0,0.0,-4.215,-4.0744,-4.0453,-4.0326,-4.0138,0.0,0.0,0.0,0.0,0.0,0.0,0.0,0.0,0.0,0.0,0.0,0.0,0.0,0.0,-3.4642,0.0,-3.4649,0.0,0.0,0.0,0.0,0.0,0.0,0.0,0.0,-3.5954,-3.611,-3.635,-3.6114,-3.6152,0.0,-3.6498,-3.6761,0.0,0.0,0.0,0.0,0.0,0.0,0.0,0.0,-3.8249,-3.8249,-3.8218,-3.8283,-3.8462,-3.846,-3.8494,-3.8578,-3.8593,-3.8611,-3.8593,-3.8578,-3.8596,0.0,0.0,0.0,0.0,0.0,0.0,0.0,0.0,0.0,0.0,0.0,0.0,0.0,0.0,0.0,0.0,0.0,0.0,0.0,0.0,0.0,0.0,0.0,-4.0187,0.0,0.0,0.0,0.0,0.0,0.0,0.0,0.0,0.0,-4.4097,-4.4835,-4.5556,-4.612,-4.6212,-4.6209,-4.6206,0.0,0.0,0.0,0.0,0.0,0.0,0.0,-4.6134,-4.6167,-4.6136,-4.5938,-4.5349,-4.4538,-4.3918,-4.3883,0.0,0.0,-4.1389,-4.1055,-4.0856,-4.0403,-3.989,-3.9505,-3.9532,-3.9101,-3.8766,0.0,0.0,0.0,0.0,0.0,0.0,0.0,0.0,-3.3582,-3.3608,0.0,-3.3608,0.0,0.0,0.0,0.0,0.0,-3.5492,0.0,0.0,-3.5314,-3.5308,-3.5314,-3.5446,-3.5492,-3.5492,-3.5571,-3.5827,-3.6301,-3.6862,0.0,0.0,0.0,0.0,0.0,0.0,-3.7773,-3.7755,-3.7755,-3.7947,-3.8334,-3.8366,-3.8382,-3.8399,-3.8399,-3.8399,-3.8399,-3.8399,-3.8399,-3.8399,-3.8462,0.0,0.0,0.0,0.0,0.0,0.0,0.0,0.0,0.0,0.0,0.0,0.0,0.0,0.0,0.0,0.0,0.0,0.0,0.0,0.0,-3.9709,0.0,0.0,0.0,0.0,0.0,0.0,0.0,0.0,0.0,0.0,-4.4803,-4.5627,-4.6183,-4.6138,0.0,0.0,0.0,0.0,-4.6147,-4.6147,-4.6128,-4.6105,-4.6086,-4.609,-4.6074,-4.6046,0.0,0.0,-4.6111,-4.5404,-4.4849,-4.4837,-4.4195,-4.3306,-4.2465,-4.2117,-4.168,-4.0763,-3.9747,-3.8917,-3.8766,-3.8096,-3.7346,-3.5412,0.0,0.0,0.0,0.0,-3.4053,-3.3469,-3.2922,-3.3303,-3.3235,-3.2922,-3.3287,0.0,0.0,0.0,0.0,0.0,0.0,-3.5354,-3.5308,-3.5308,-3.5308,-3.5308,-3.5337,-3.536,-3.536,-3.5383,-3.5458,-3.5594,-3.5866,-3.658,-3.7703,0.0,0.0,0.0,0.0,-3.7229,-3.7229,-3.719,-3.7247,-3.7379,-3.7721,-3.8051,-3.8382,-3.8399,-3.8399,-3.8399,-3.8399,-3.8399,-3.8399,-3.8415,0.0,0.0,0.0,0.0,0.0,0.0,0.0,0.0,0.0,0.0,0.0,0.0,0.0,0.0,0.0,0.0,0.0,0.0,0.0,-4.0068,-3.9851,-3.9843,0.0,0.0,0.0,0.0,0.0,0.0,0.0,0.0,0.0,-4.4599,-4.5458,-4.5813,0.0,0.0,-4.5975,-4.5355,-4.527,-4.5276,-4.5276,-4.4792,0.0,-4.4417,-4.4361,-4.4564,-4.5139,-4.5772,-4.6191,-4.6166,-4.5933,-4.5719,-4.5722,-4.5487,-4.5025,-4.4219,-4.3493,-4.2762,-4.1869,-4.0835,-3.9892,-3.9242,-3.8235,-3.7366,-3.5235,-3.4881,-3.4878,-3.4593,-3.4101,-3.3702,-3.301,-3.2203,-3.2516,-3.2477,-3.216,-3.2504,-3.2853,-3.3209,-3.3495,0.0,0.0,0.0,-3.4634,-3.4811,-3.4828,-3.4947,-3.5128,-3.5198,-3.5222,-3.5222,-3.5268,-3.5308,-3.5308,-3.5446,-3.6023,-3.7017,0.0,0.0,-3.719,-3.6882,-3.6724,-3.6741,-3.6681,-3.6779,-3.696,-3.7227,-3.7523,-3.7791,-3.7808,-3.7878,-3.8033,-3.805,-3.8135,-3.8303,-3.8336,-3.8061,0.0,0.0,0.0,0.0,0.0,0.0,0.0,0.0,0.0,0.0,0.0,-3.7735,-3.8158,0.0,0.0,0.0,-3.9451,-3.9597,-3.9561,-3.9414,0.0,0.0,0.0,0.0,0.0,0.0,0.0,-4.3209,-4.3572,-4.3792,-4.38,-4.4385,-4.4658,-4.4238,-4.4714,-4.4916,-4.4439,0.0,-4.44,-4.438,-4.3961,-4.3655,-4.3657,-4.363,-4.38,-4.4341,-4.4829,-4.5338,-4.5643,-4.5639,-4.5728,-4.6008,-4.6072,-4.5769,-4.4938,-4.4365,-4.3622,-4.2403,-4.0804,-3.9502,-3.8949,-3.7704,-3.664,-3.5579,-3.5552,-3.5384,-3.4604,-3.3497,-3.342,-3.2722,-3.1585,-3.1585,-3.1555,-3.1496,-3.1496,-3.1866,-3.2532,-3.3224,0.0,-3.3329,-3.3349,-3.3656,-3.4101,-3.4101,-3.4382,-3.4899,-3.5018,-3.5105,-3.5105,-3.5205,-3.5268,-3.5268,-3.54,-3.5661,-3.6028,-3.6156,-3.6259,-3.6301,-3.628,-3.6237,-3.6241,-3.6237,-3.6451,-3.6841,-3.6841,-3.686,-3.69,-3.69,-3.7057,-3.7432,-3.745,-3.765,-3.8033,-3.8099,-3.7443,-3.5955,0.0,0.0,0.0,0.0,0.0,0.0,0.0,0.0,0.0,0.0,0.0,0.0,0.0,0.0,0.0,-3.882,0.0,-3.8646,-3.8688,0.0,0.0,0.0,-3.9857,-4.0112,-4.0933,-4.1476,-4.1497,0.0,0.0,-4.2609,-4.2764,-4.2946,-4.3128,-4.3287,-4.3403,-4.3467,-4.3454,-4.3497,-4.3504,-4.3426,-4.3387,-4.3257,-4.335,-4.3465,-4.3573,-4.3653,-4.404,-4.4635,-4.4819,-4.5117,-4.5655,-4.588,-4.5572,-4.4739,-4.437,-4.3981,-4.2209,-4.0077,-3.8357,-3.8095,-3.6767,-3.5558,-3.6252,-3.6226,-3.5681,-3.4993,-3.4196,-3.3698,-3.3006,-3.2302,-3.2258,-3.1974,-3.1496,-3.1496,-3.1596,-3.1796,-3.241,-3.2668,-3.2641,-3.3066,-3.3537,-3.4075,-3.4101,-3.4399,-3.4899,-3.4906,-3.4947,-3.4947,-3.4994,-3.4994,-3.4994,-3.5128,-3.5251,-3.5327,-3.5464,-3.58,-3.628,-3.5937,-3.5761,-3.5778,-3.5761,-3.598,-3.643,-3.6451,-3.6577,-3.688,-3.69,-3.6939,-3.7036,-3.7038,-3.6944,-3.6755,-3.6754,-3.6323,-3.5426,-3.5108,0.0,0.0,0.0,0.0,0.0,0.0,0.0,0.0,0.0,-3.5296,-3.5546,0.0,-3.7819,0.0,-3.8036,-3.8491,-3.892,-3.8795,0.0,0.0,-3.9887,-4.0403,-4.0611,-4.1437,-4.2079,-4.2294,-4.2498,-4.2394,-4.1785,-4.1761,-4.1607,-4.1216,-4.2344,-4.3067,-4.2563,-4.246,-4.2505,-4.2535,-4.2137,-4.1692,-4.1789,-4.2224,-4.2623,-4.2719,-4.3214,-4.371,-4.394,-4.3946,-4.4001,-4.4156,-4.419,-4.3838,-4.3014,-4.2354,-4.1585,-4.0528,-3.9747,-3.8918,-3.7656,-3.6425,-3.5562,-3.6726,-3.6599,-3.6141,-3.5681,-3.5183,-3.4337,-3.3559,-3.2961,-3.2961,-3.2736,-3.2348,-3.2064,-3.178,-3.1539,-3.1853,-3.1979,-3.2007,-3.2312,-3.2776,-3.3351,-3.361,-3.3993,-3.4546,-3.4787,-3.4899,-3.4899,-3.4899,-3.4899,-3.4923,-3.5041,-3.5088,-3.5088,-3.5222,-3.5481,-3.5822,-3.5577,-3.5503,-3.56,-3.5616,-3.5734,-3.598,-3.598,-3.611,-3.6291,-3.6329,-3.626,-3.6153,-3.6153,-3.6041,-3.5829,-3.581,-3.5471,-3.4703,-3.4455,-3.4175,0.0,0.0,0.0,0.0,0.0,0.0,0.0,0.0,0.0,0.0,0.0,-3.6827,-3.7039,-3.741,-3.7954,-3.8633,-3.8566,-3.8582,-3.8857,-3.9336,-3.9737,-3.9975,-4.0457,-4.0898,-4.1177,-4.1253,-4.1157,-4.0817,-4.0793,-4.0692,-4.0309,-4.1168,-4.1728,-4.1554,-4.1463,-4.1519,-4.163,-4.1295,-4.1034,-4.1104,-4.1458,-4.1776,-4.1841,-4.2205,-4.2617,-4.2989,-4.3049,-4.3138,-4.3475,-4.3296,-4.274,-4.1827,-4.0988,-4.0077,-3.8968,-3.8556,-3.817,-3.7299,-3.639,-3.5689,-3.7089,-3.6925,-3.6663,-3.6417,-3.6123,-3.5123,-3.4307,-3.3619,-3.3619,-3.3574,-3.3455,-3.2901,-3.2288,-3.175,-3.166,-3.163,-3.163,-3.1525,-3.184,-3.2425,-3.2895,-3.3423,-3.4009,-3.4456,-3.4675,-3.4675,-3.4763,-3.4787,-3.4811,-3.4987,-3.5065,-3.5065,-3.5198,-3.5245,-3.5268,-3.5268,-3.536,-3.5554,-3.5577,-3.5577,-3.5577,-3.5577,-3.5577,-3.5577,-3.5476,-3.5302,-3.5077,-3.4998,-3.4888,-3.4853,-3.4853,-3.4497,-3.3716,-3.3696,-3.3226,0.0,-3.2451,0.0,0.0,0.0,0.0,0.0,0.0,0.0,0.0,-3.5261,-3.6146,-3.6922,-3.7085,-3.7448,-3.8136,-3.8209,-3.8289,-3.8525,-3.8556,-3.8658,-3.8915,-3.8938,-3.9082,-3.9408,-3.9526,-3.967,-3.993,-4.0026,-4.0096,-4.0098,-4.0194,-4.0386,-4.0571,-4.0681,-4.077,-4.0849,-4.0878,-4.0967,-4.1071,-4.1127,-4.1149,-4.113,-4.1208,-4.1341,-4.2046,-4.2026,-4.2195,-4.2759,-4.2263,-4.1463,-4.0656,-3.9845,-3.8876,-3.7406,-3.707,-3.7,-3.6868,-3.6323,-3.5812,-3.7632,-3.7573,-3.7164,-3.6669,-3.6179,-3.596,-3.527,-3.4324,-3.4309,-3.4024,-3.3484,-3.335,-3.3245,-3.308,-3.2572,-3.2303,-3.2302,-3.175,-3.184,-3.2398,-3.252,-3.2841,-3.3355,-3.3459,-3.3527,-3.3563,-3.4018,-3.425,-3.425,-3.4732,-3.4923,-3.4947,-3.497,-3.5058,-3.5111,0.0,0.0,0.0,-3.5452,-3.5537,-3.5514,-3.5537,-3.5537,-3.552,-3.4841,0.0,-3.4374,-3.3823,-3.3345,-3.3053,-3.3003,0.0,0.0,0.0,0.0,0.0,0.0,0.0,0.0,0.0,0.0,0.0,-3.3032,-3.3223,-3.362,-3.4953,-3.6146,-3.6941,-3.7575,-3.8028,-3.8191,-3.8209,-3.8207,-3.8274,-3.829,-3.8385,-3.8646,-3.8673,-3.8774,-3.9068,-3.9338,-3.9539,-3.9604,-3.9837,-4.0026,-4.0026,-4.0067,-4.0128,-4.0206,-4.0356,-4.0503,-4.0649,-4.0793,-4.0939,-4.1078,-4.1107,-4.1107,-4.1107,-4.1107,-4.1166,-4.1244,-4.074,-4.0312,-4.0582,-3.9804,-3.8977,-3.8156,-3.7773,-3.7406,-3.635,-3.6159,-3.6125,-3.6131,-3.5978,-3.5797,-3.768,0.0,-3.7617,-3.7196,0.0,-3.629,-3.5741,-3.5154,-3.4939,-3.4543,-3.3993,-3.3978,-3.3799,-3.3469,-3.314,-3.2991,-3.2961,-3.2288,-3.2164,-3.2437,-3.2397,-3.2532,-3.2815,-3.3093,-3.3198,-3.3224,-3.3501,-3.363,-3.3672,-3.3951,-3.4202,-3.4513,-3.4497,-3.4667,-3.4994,-3.4923,-3.4994,-3.5198,-3.5337,-3.54,-3.54,-3.54,-3.5215,-3.4846,-3.4432,0.0,0.0,0.0,0.0,0.0,0.0,0.0,0.0,0.0,0.0,-3.1103,-3.1454,-3.1678,-3.1675,-3.2056,-3.2318,-3.23,-3.2686,-3.312,-3.3661,-3.4622,-3.5711,-3.6886,-3.7375,-3.7774,-3.8154,-3.8209,-3.8209,-3.8209,-3.8209,-3.8257,-3.8387,-3.8401,-3.8554,-3.8943,-3.9149,-3.9351,-3.9658,-3.9826,-3.9943,-3.9954,-3.9984,-3.9986,-4.0026,-4.0148,-4.0295,-4.0427,-4.0697,-4.0902,-4.096,-4.1048,-4.1107,-4.1107,-4.1107,-4.0916,-4.0545,-4.0097,-3.9688,-3.9224,-3.8456,-3.7672,-3.7301,-3.6894,-3.6476,-3.6088,-3.5929,-3.5887,-3.5889,-3.5869,-3.5834,-3.7242,-3.7701,-3.7519,-3.7317,-3.696,-3.6268,-3.5928,-3.5815,0.0,0.0,0.0,-3.4666,-3.4352,-3.3844,-3.3724,-3.3664,-3.3634,-3.2991,-3.2691,-3.2647,-3.2494,-3.24,-3.2428,-3.2726,-3.2906,-3.2906,-3.3013,-3.3066,-3.3066,-3.3145,-3.3449,-3.3908,-3.3958,-3.4143,-3.4578,-3.4602,-3.4667,-3.4771,-3.5088,-3.5268,-3.5268,-3.5151,-3.4766,-3.4186,-3.3896,-3.3172,-3.198,-3.1817,-3.1577,-3.1257,-3.1225,-3.1242,-3.1225,-3.1261,-3.1047,-3.0733,-3.1024,-3.122,-3.1179,-3.1601,-3.1929,-3.205,-3.2676,-3.328,-3.3805,-3.4456,-3.5405,-3.6721,-3.7038,-3.7451,-3.8103,-3.8192,-3.8209,-3.8209,-3.8209,-3.8209,-3.8209,-3.8209,-3.8385,-3.8789,-3.89,-3.9136,-3.9616,-3.9762,-3.9837,-3.987,-3.99,-3.99,-3.9911,-4.0007,-4.0148,-4.0298,-4.0557,-4.0768,-4.0805,-4.092,-4.1022,-4.1064,-4.0942,-4.0601,-3.9997,-3.9552,-3.9065,-3.8405,-3.7574,-3.7049,-3.6928,-3.644,-3.6016,-3.6015,-3.5944,-3.5917,-3.5886,-3.5894,-3.5869,-3.5895,-3.5975,-3.6117,-3.5852,-3.5383,-3.5977,-3.6007,-3.5595,-3.5133,-3.5103,-3.5355,-3.5177,-3.5133,-3.519,-3.4607,-3.4337,-3.4292,-3.3649,-3.3365,-3.332,-3.2766,-3.2496,-3.245,-3.1981,-3.1739,-3.1768,-3.2259,-3.252,-3.2574,-3.2975,-3.3251,-3.3319,-3.3329,-3.3381,-3.3433,-3.3433,-3.3459,-3.3485,-3.4561,-3.5111,-3.5128,-3.4518,-3.4151,-3.3984,-3.2685,-3.1895,-3.1679,-3.1065,-3.0688,-3.0634,-3.0617,-3.0634,-3.0634,-3.0654,-3.0593,-3.0547,-3.0593,-3.0634,-3.0613,-3.1004,-3.1567,-3.2295,-3.2706,-3.3023,-3.326,-3.4799,-3.59,-3.6185,-3.7147,-3.7891,-3.8036,-3.8122,-3.8209,-3.8209,-3.8209,-3.8209,-3.8209,-3.8209,-3.8241,-3.8352,-3.8525,-3.8774,-3.9117,-3.9402,-3.9658,-3.9826,-3.9889,-3.99,-3.9911,-3.9984,-4.0099,-4.0248,-4.0351,-4.045,-4.0584,-4.0743,-4.0825,-4.0926,-4.0384,-3.9952,-3.963,-3.8578,-3.774,-3.7409,-3.6715,-3.6224,-3.6132,-3.6025,-3.5948,-3.5996,-3.5993,-3.5966,-3.59,-3.5899,-3.5899,-3.5196,-3.5588,-3.5695,-3.5599,-3.5327,-3.5418,-3.5151,-3.4677,-3.4093,-3.4353,-3.5148,-3.5195,-3.5261,-3.5329,-3.5128,-3.5026,-3.5011,-3.4369,-3.4038,-3.3978,-3.3365,-3.2856,-3.2512,-3.2183,-3.1854,-3.1554,-3.1768,-3.191,-3.1938,-3.216,-3.2434,-3.2776,-3.3066,-3.3198,-3.3198,-3.3198,-3.3198,-3.3209,-3.3767,-3.4226,-3.4529,-3.3824,-3.3423,-3.33,-3.2188,-3.1416,-3.1019,-3.0671,-3.0489,-3.0489,-3.0489,-3.0489,-3.0489,-3.0489,-3.0489,-3.0489,-3.0489,-3.0489,-3.0489,-3.1058,-3.1533,-3.1964,-3.2854,-3.3419,-3.3482,-3.4782,-3.5883,-3.6569,-3.7255,-3.7721,-3.7966,-3.814,-3.8209,-3.8209,-3.8209,-3.8209,-3.8209,-3.8209,-3.8257,-3.8403,-3.8525,-3.8703,-3.8966,-3.93,-3.9539,-3.9689,-3.9781,-3.9889,-3.99,-3.9922,-3.9986,-4.0061,-4.0194,-4.0298,-4.0369,-4.0531,-4.0485,-4.0209,-3.9887,-3.9299,-3.866,-3.7584,-3.7097,-3.659,-3.6142,-3.5936,-3.5897,-3.5892,-3.5936,-3.5992,-3.6015,-3.5991,-3.5952,-3.5916,-3.5885,-3.4441,-3.502,-3.502,-3.5142,-3.5265,-3.466,-3.4293,-3.4091,-3.3379,-3.359,-3.4384,-3.4578,-3.4754,-3.4953,-3.51,-3.5279,-3.5365,-3.4887,-3.4665,-3.4605,-3.4023,-3.344,-3.2961,-3.2662,-3.2213,-3.1735,-3.1585,-3.1496,-3.1496,-3.1496,-3.1726,-3.2203,-3.2598,-3.2826,-3.2826,-3.2826,-3.2841,-3.2826,-3.2815,-3.3161,-3.3834,-3.3054,-3.2569,-3.2494,-3.1644,-3.094,-3.0375,-3.0464,-3.0447,-3.0363,-3.0447,-3.0489,-3.0489,-3.0489,-3.0489,-3.0489,-3.0489,-3.0555,-3.077,-3.1432,-3.1912,-3.2095,-3.3143,-3.3856,-3.4097,-3.4745,-3.5627,-3.6663,-3.706,-3.7414,-3.7721,-3.8003,-3.8141,-3.8141,-3.8123,-3.8124,-3.8141,-3.814,-3.8223,-3.8446,-3.851,-3.8597,-3.8872,-3.9141,-3.9344,-3.9514,-3.9735,-3.9889,-3.99,-3.99,-3.99,-3.9943,-4.009,-4.0195,-4.0157,-4.0312,-4.0142,-3.9518,-3.9229,-3.8574,-3.7584,-3.7053,-3.6664,-3.6063,-3.5936,-3.5883,-3.5889,-3.5892,-3.5921,-3.5983,-3.5994,-3.6014,-3.5996,-3.5963,-3.5914,-3.3283,-3.3313,-3.3386,-3.381,-3.4402,-3.3811,-3.3926,-3.4468,-3.3925,-3.3406,-3.3119,-3.296,-3.3381,-3.4075,-3.4206,-3.4606,-3.518,-3.5154,-3.5094,-3.5068,-3.4633,-3.4369,-3.4113,-3.3095,-3.2467,-3.2318,-3.1824,-3.1555,-3.1555,-3.1511,-3.1524,-3.1582,-3.164,-3.171,-3.1682,-3.1697,-3.1682,-3.1653,-3.1668,-3.2188,-3.3119,-3.1962,-3.151,-3.1931,-3.0664,-2.994,-2.9875,-3.0262,-3.0284,-2.9962,-3.0262,-3.0489,-3.0468,-3.0489,-3.0489,-3.0489,-3.0506,-3.0787,-3.1466,-3.2183,-3.2862,-3.3491,-3.369,-3.4104,-3.4684,-3.4885,-3.5147,-3.5759,-3.658,-3.7073,-3.7206,-3.7631,-3.7898,-3.7969,-3.7934,-3.7916,-3.7951,-3.7967,-3.8053,-3.8052,-3.8189,-3.832,-3.8566,-3.8703,-3.8919,-3.9377,-3.9689,-3.9837,-3.9837,-3.9889,-3.99,-3.99,-3.9935,-3.9967,-4.001,-4.011,-3.9774,-3.9135,-3.8507,-3.7776,-3.6957,-3.6285,-3.5727,-3.5935,-3.5885,-3.5895,-3.5897,-3.5894,-3.589,-3.5928,-3.5968,-3.6015,-3.6003,-3.5989,-3.5972,-3.3124,-3.3124,-3.3124,-3.3283,-3.3573,-3.3356,-3.3421,-3.369,-3.3066,-3.2497,-3.2006,-3.1731,-3.2142,-3.2996,-3.363,-3.4138,-3.4509,-3.4968,-3.518,-3.5198,-3.4996,-3.4701,-3.4286,-3.3792,-3.3392,-3.3066,-3.2407,-3.2079,-3.2019,-3.1705,-3.1496,-3.1496,-3.1496,-3.1496,-3.1496,-3.1496,-3.1496,-3.1496,-3.1496,-3.1739,-3.2007,-3.116,-3.088,-3.123,-3.0105,-2.9393,-2.9393,-2.9572,-2.9572,-2.9454,-2.9815,-3.0092,-3.0108,-3.0326,-3.0489,-3.0522,-3.0919,-3.1466,-3.2216,-3.2928,-3.3475,-3.3773,-3.4203,-3.4584,-3.4849,-3.4899,-3.4977,-3.5224,-3.5864,-3.646,-3.7013,-3.732,-3.7577,-3.781,-3.7899,-3.7899,-3.7917,-3.7934,-3.7933,-3.7951,-3.7986,-3.8071,-3.8252,-3.846,-3.8744,-3.9149,-3.9452,-3.9647,-3.9658,-3.9792,-3.9889,-3.99,-3.99,-3.9911,-3.9905,-3.9532,-3.9061,-3.8357,-3.7567,-3.682,-3.6195,-3.5875,-3.5636,-3.5721,-3.5795,-3.5853,-3.5895,-3.5885,-3.588,-3.5912,-3.5949,-3.6015,-3.601,-3.6021,-3.5986,-3.3124,-3.3124,-3.3124,-3.3124,-3.3124,-3.3124,-3.3124,-3.3074,-3.2629,-3.2127,-3.1574,-3.1208,-3.1332,-3.189,-3.2717,-3.3234,-3.3602,-3.439,-3.4754,-3.4787,-3.4968,-3.4848,-3.4421,-3.4199,-3.3966,-3.3569,-3.2943,-3.2646,-3.2556,-3.199,-3.1677,-3.1648,-3.1513,-3.1409,-3.138,-3.1395,-3.1395,-3.1438,-3.1453,-3.1467,-3.1419,-3.0746,-3.0628,-3.1002,-3.0017,-2.9446,-2.9446,-2.9533,-2.9454,-2.9187,-2.9765,-3.0055,-2.9884,-3.0484,-3.0957,-3.1151,-3.178,-3.2431,-3.2978,-3.3696,-3.4087,-3.4137,-3.4618,-3.4899,-3.4899,-3.4899,-3.4899,-3.493,-3.527,-3.5864,-3.6557,-3.6823,-3.7114,-3.7559,-3.7631,-3.7667,-3.7793,-3.7828,-3.7864,-3.7846,-3.7881,-3.7916,-3.8035,-3.8332,-3.8658,-3.8872,-3.9149,-3.9351,-3.9408,-3.9599,-3.98,-3.9792,-3.9826,-3.99,-3.9843,-3.9288,-3.8488,-3.769,-3.6971,-3.6198,-3.5491,-3.5438,-3.5519,-3.5568,-3.5669,-3.5754,-3.583,-3.5849,-3.5876,-3.5903,-3.5944,-3.5976,-3.5995,-3.6008,-3.6019,-3.3124,-3.3124,-3.3124,-3.3124,-3.3124,-3.3124,-3.3124,-3.3068,-3.3061,-3.2704,-3.2102,-3.1603,-3.1128,-3.0784,-3.1245,-3.1733,-3.2429,-3.3234,-3.3596,-3.3679,-3.4423,-3.4872,-3.4846,-3.4304,-3.3962,-3.3873,-3.3237,-3.2899,-3.2871,-3.2404,-3.2108,-3.1942,-3.156,-3.1264,-3.1176,-3.1176,-3.119,-3.1292,-3.1322,-3.1351,-3.1392,-3.0821,-3.0767,-3.1152,-3.0586,-3.014,-3.0222,-3.0645,-3.0389,-2.9335,-3.0279,-3.0613,-3.0188,-3.1117,-3.1961,-3.2502,-3.3204,-3.3657,-3.3783,-3.4386,-3.4783,-3.4816,-3.4857,-3.4899,-3.4899,-3.4899,-3.4899,-3.4923,-3.4954,-3.5218,-3.5661,-3.6084,-3.6464,-3.688,-3.6958,-3.7131,-3.7558,-3.7613,-3.7703,-3.7739,-3.781,-3.7898,-3.8002,-3.8283,-3.846,-3.8594,-3.8843,-3.9008,-3.9036,-3.9281,-3.9471,-3.9513,-3.9644,-3.987,-3.9794,-3.902,-3.8264,-3.7423,-3.654,-3.5932,-3.5472,-3.5144,-3.5283,-3.5419,-3.5512,-3.562,-3.5745,-3.5819,-3.5856,-3.5869,-3.5888,-3.5919,-3.5954,-3.5996,-3.6012,-3.3124,-3.3124,-3.3124,-3.3124,-3.3124,-3.3124,-3.3124,-3.3124,-3.3124,-3.2754,-3.2177,-3.1637,-3.111,-3.0583,-3.0406,-3.0784,-3.1596,-3.2407,-3.2713,-3.2763,-3.308,-3.3255,-3.3227,-3.3016,-3.3289,-3.372,-3.3172,-3.2638,-3.2248,-3.2037,-3.1936,-3.1881,-3.1804,-3.1722,-3.1618,-3.1279,-3.1132,-3.1146,-3.119,-3.119,-3.1234,-3.1012,-3.1008,-3.1106,-3.031,-2.986,-2.9845,-3.0015,-2.9909,-2.9524,-3.0176,-3.0432,-3.0291,-3.0887,-3.162,-3.228,-3.2926,-3.3476,-3.3982,-3.4526,-3.4899,-3.4899,-3.4899,-3.4899,-3.4899,-3.4899,-3.4899,-3.4899,-3.4899,-3.5018,-3.5171,-3.5549,-3.5994,-3.6357,-3.646,-3.6643,-3.7017,-3.7188,-3.7282,-3.7559,-3.7721,-3.7757,-3.7845,-3.8002,-3.8104,-3.8171,-3.8394,-3.8527,-3.8618,-3.8839,-3.9063,-3.9011,-3.8768,-3.8521,-3.8615,-3.8206,-3.7561,-3.6756,-3.597,-3.5486,-3.503,-3.5062,-3.5189,-3.5316,-3.5392,-3.5543,-3.5694,-3.5803,-3.5838,-3.5822,-3.5839,-3.5882,-3.5929,-3.5948,-3.5957,-3.3124,-3.3124,-3.3124,-3.3124,-3.3124,-3.3124,-3.3124,-3.3124,-3.3124,-3.2855,-3.2441,-3.1901,-3.1373,-3.0834,-3.0294,-3.0253,-3.0809,-3.1499,-3.1852,-3.1888,-3.2119,-3.2227,-3.2227,-3.2241,-3.255,-3.3122,-3.282,-3.2308,-3.1929,-3.1738,-3.1654,-3.1578,-3.155,-3.1582,-3.1652,-3.1161,-3.1008,-3.1218,-3.1131,-3.1014,-3.1087,-3.1087,-3.1087,-3.0984,-3.0403,-3.0097,-3.0152,-3.0195,-3.0088,-2.9993,-3.0398,-3.0773,-3.0986,-3.1285,-3.1757,-3.2388,-3.2841,-3.326,-3.3744,-3.4152,-3.4341,-3.4366,-3.4546,-3.4643,-3.4643,-3.4804,-3.4899,-3.4899,-3.4899,-3.4899,-3.497,-3.5195,-3.5549,-3.5929,-3.602,-3.619,-3.6583,-3.6664,-3.69,-3.7281,-3.7541,-3.7649,-3.7703,-3.7775,-3.7863,-3.7899,-3.8051,-3.8167,-3.8198,-3.8418,-3.8516,-3.8335,-3.8049,-3.7564,-3.7234,-3.6773,-3.6764,-3.6098,-3.5618,-3.5116,-3.4908,-3.5001,-3.5088,-3.5211,-3.5355,-3.5515,-3.5643,-3.5769,-3.5791,-3.5763,-3.5811,-3.5849,-3.5868,-3.5877,-3.5903,-3.3124,-3.3124,-3.3124,-3.3124,-3.3124,-3.3124,-3.3124,-3.3124,-3.3124,-3.3086,-3.2893,-3.2428,-3.1813,-3.1323,-3.0758,-3.0333,-3.01,-3.0658,-3.0932,-3.097,-3.1599,-3.1928,-3.1905,-3.1869,-3.1942,-3.2146,-3.2096,-3.2069,-3.1933,-3.1564,-3.1284,-3.1083,-3.0788,-3.0926,-3.1287,-3.0811,-3.0856,-3.1244,-3.0977,-3.085,-3.1058,-3.1028,-3.1058,-3.1058,-3.0955,-3.0998,-3.1188,-3.1304,-3.1034,-3.0629,-3.1062,-3.1722,-3.2035,-3.213,-3.2497,-3.2823,-3.3082,-3.3166,-3.3182,-3.3261,-3.3407,-3.3433,-3.3774,-3.4084,-3.4134,-3.4546,-3.4828,-3.4804,-3.4875,-3.4899,-3.4899,-3.4947,-3.5125,-3.5481,-3.5594,-3.5754,-3.6084,-3.6232,-3.6361,-3.6823,-3.7225,-3.7559,-3.7649,-3.7613,-3.7649,-3.7721,-3.7846,-3.7916,-3.7879,-3.8009,-3.7861,-3.7442,-3.6996,-3.6526,-3.5895,-3.5355,-3.5527,-3.5559,-3.5202,-3.485,-3.485,-3.4917,-3.5009,-3.5138,-3.5319,-3.5483,-3.5601,-3.5703,-3.5737,-3.5747,-3.5775,-3.5803,-3.5804,-3.5805,-3.583,-3.3124,-3.3124,-3.3124,-3.3124,-3.3124,-3.3124,-3.3124,-3.3124,-3.3124,-3.3124,-3.3011,-3.2466,-3.1913,-3.1373,-3.0846,-3.0319,-2.9855,-3.0062,-3.0139,-3.0203,-3.0432,-3.0583,-3.0545,-3.0545,-3.0784,-3.1193,-3.1267,-3.1254,-3.1228,-3.1093,-3.1026,-3.0957,-3.0909,-3.0955,-3.1123,-3.0576,-3.0298,-3.009,-3.0372,-3.0387,-3.0142,-3.0507,-3.0732,-3.0762,-3.0836,-3.091,-3.0969,-3.1132,-3.1116,-3.0894,-3.1116,-3.1307,-3.1467,-3.1496,-3.1596,-3.1781,-3.2213,-3.2446,-3.2501,-3.2891,-3.3145,-3.3224,-3.3381,-3.3459,-3.3543,-3.4018,-3.4308,-3.4399,-3.4667,-3.4899,-3.4899,-3.4899,-3.4977,-3.5078,-3.5142,-3.5316,-3.5727,-3.602,-3.6253,-3.6361,-3.6563,-3.6643,-3.6726,-3.6849,-3.7046,-3.7157,-3.7396,-3.7596,-3.7596,-3.7201,-3.7021,-3.6762,-3.6134,-3.5454,-3.4878,-3.4467,-3.4447,-3.4729,-3.464,-3.4662,-3.4722,-3.4782,-3.4889,-3.5069,-3.5266,-3.5423,-3.5547,-3.5623,-3.5667,-3.5698,-3.5732,-3.5741,-3.5743,-3.5756,-3.5791,-3.3124,-3.3124,-3.3124,-3.3124,-3.3124,-3.3124,-3.3124,-3.3124,-3.3124,-3.3124,-3.3036,-3.2704,-3.2215,-3.1662,-3.1135,-3.0608,-3.0105,-2.9905,-2.9779,-2.9779,-2.9779,-2.9779,-2.9779,-2.9779,-2.9998,-3.0419,-3.0482,-3.0482,-3.0482,-3.0482,-3.0482,-3.0518,-3.0592,-3.0788,-3.0926,-3.0455,-3.0003,-2.9984,-2.9997,-2.9813,-2.9595,-2.9721,-2.9811,-2.987,-3.016,-3.0342,-3.0372,-3.0702,-3.0969,-3.1087,-3.1087,-3.1087,-3.1087,-3.1117,-3.1087,-3.119,-3.1452,-3.1737,-3.1766,-3.2117,-3.2446,-3.2501,-3.2691,-3.2826,-3.2975,-3.3439,-3.3748,-3.3825,-3.4259,-3.4594,-3.4618,-3.4804,-3.4899,-3.4923,-3.4923,-3.5024,-3.5356,-3.571,-3.5762,-3.569,-3.57,-3.5694,-3.5593,-3.5627,-3.5941,-3.6094,-3.6338,-3.663,-3.6542,-3.6257,-3.6042,-3.5719,-3.5102,-3.4465,-3.3944,-3.3635,-3.3437,-3.3716,-3.4004,-3.4272,-3.4494,-3.4591,-3.4685,-3.499,-3.5211,-3.5333,-3.5463,-3.5546,-3.5599,-3.5646,-3.5692,-3.5713,-3.5723,-3.5713,-3.5736,-3.3124,-3.3124,-3.3124,-3.3124,-3.3124,-3.3124,-3.3124,-3.3124,-3.3124,-3.3124,-3.3111,-3.3061,-3.2692,-3.2164,-3.1637,-3.1122,-3.0595,-3.0131,-2.9854,-2.9804,-2.9779,-2.9779,-2.9779,-2.9779,-2.9856,-2.9895,-2.9895,-2.9856,-2.9921,-2.9934,-2.9792,-2.987,-2.996,-3.0152,-3.0527,-3.0262,-3.0217,-3.0414,-2.9827,-2.9457,-2.9295,-2.8904,-2.8683,-2.8729,-2.9261,-2.9546,-2.9623,-3.016,-3.0672,-3.0984,-3.1014,-3.1028,-3.1058,-3.1058,-3.1028,-3.1014,-3.1073,-3.1132,-3.1117,-3.1307,-3.1336,-3.1509,-3.1851,-3.2117,-3.2327,-3.2745,-3.3077,-3.3145,-3.3688,-3.4034,-3.4109,-3.4472,-3.4756,-3.4875,-3.4899,-3.493,-3.493,-3.5266,-3.5099,-3.4735,-3.4818,-3.4829,-3.418,-3.4174,-3.4393,-3.4641,-3.4862,-3.5207,-3.5297,-3.526,-3.4848,-3.4489,-3.4218,-3.3804,-3.3387,-3.3344,-3.3142,-3.3262,-3.3514,-3.3808,-3.4237,-3.4386,-3.4593,-3.4889,-3.5113,-3.5232,-3.5362,-3.5444,-3.554,-3.5601,-3.5643,-3.5698,-3.5701,-3.5702,-3.5708,-3.3124,-3.3124,-3.3124,-3.3124,-3.3124,-3.3124,-3.3124,-3.3124,-3.3124,-3.3124,-3.3124,-3.3124,-3.2767,-3.224,-3.2064,-3.1499,-3.0796,-3.047,-3.0143,-2.9829,-2.9779,-2.9779,-2.9779,-2.9779,-2.9779,-2.9779,-2.9779,-2.9779,-2.9779,-2.9779,-2.9779,-2.9779,-2.9779,-2.9895,-3.0024,-2.9948,-2.9694,-2.9585,-2.9787,-2.9566,-2.9201,-2.9087,-2.9091,-2.9083,-2.8912,-2.8821,-2.8871,-2.9484,-3.016,-3.0657,-3.0732,-3.0732,-3.0762,-3.0732,-3.0762,-3.0762,-3.0836,-3.0895,-3.0925,-3.1014,-3.1102,-3.1132,-3.1322,-3.1365,-3.1438,-3.1949,-3.2253,-3.2446,-3.2922,-3.3345,-3.3475,-3.3866,-3.4284,-3.4691,-3.4699,-3.4811,-3.484,-3.4519,-3.4178,-3.4001,-3.365,-3.3324,-3.3157,-3.3262,-3.3492,-3.3714,-3.4085,-3.4513,-3.4429,-3.434,-3.3967,-3.3942,-3.3723,-3.3327,-3.3021,-3.2983,-3.2961,-3.2977,-3.3144,-3.3288,-3.3755,-3.4116,-3.4467,-3.4851,-3.4973,-3.5086,-3.5235,-3.5333,-3.5443,-3.5496,-3.5614,-3.5656,-3.5698,-3.5715,-3.5701,-3.2995,-3.3124,-3.3124,-3.3124,-3.3124,-3.3124,-3.3124,-3.3124,-3.3124,-3.3124,-3.3124,-3.3124,-3.2893,-3.2579,-3.2315,-3.1888,-3.1286,-3.0781,-3.0444,-3.0168,-2.9905,-2.9792,-2.9779,-2.9779,-2.9779,-2.9779,-2.9779,-2.9779,-2.9779,-2.9779,-2.9779,-2.9779,-2.9779,-2.9779,-2.9818,-2.9779,-2.9654,-2.9378,-2.9477,-2.9354,-2.9057,-2.8846,-2.8625,-2.8565,-2.8372,-2.8444,-2.856,-2.8921,-2.9577,-3.0342,-3.0612,-3.0612,-3.0612,-3.0612,-3.0612,-3.0612,-3.0657,-3.0702,-3.0732,-3.0836,-3.091,-3.0955,-3.0984,-3.1028,-3.1132,-3.1423,-3.1623,-3.1709,-3.2213,-3.2513,-3.2703,-3.3093,-3.3553,-3.3834,-3.3986,-3.4251,-3.4771,-3.426,-3.369,-3.3292,-3.2713,-3.2067,-3.1835,-3.2064,-3.2257,-3.2418,-3.2674,-3.3035,-3.3223,-3.3195,-3.3177,-3.3106,-3.3034,-3.2664,-3.2625,-3.2639,-3.2834,-3.2884,-3.293,-3.3052,-3.34,-3.388,-3.4288,-3.4632,-3.4793,-3.4945,-3.5051,-3.5152,-3.5216,-3.5307,-3.5483,-3.5596,-3.5596,-3.5651,-3.5656,-3.281,-3.3068,-3.3068,-3.3081,-3.3124,-3.3124,-3.3124,-3.3124,-3.3124,-3.3124,-3.3124,-3.3124,-3.3086,-3.3043,-3.2579,-3.2265,-3.2102,-3.1298,-3.0809,-3.0482,-3.0156,-2.9917,-2.9779,-2.9779,-2.9779,-2.9779,-2.9779,-2.9779,-2.9779,-2.9779,-2.9779,-2.9779,-2.9779,-2.9779,-2.9779,-2.9779,-2.9779,-2.9666,-2.9353,-2.9227,-2.9025,-2.8682,-2.8263,-2.8028,-2.7993,-2.8262,-2.8357,-2.8527,-2.8985,-3.0312,-3.0387,-3.0387,-3.0447,-3.0582,-3.0552,-3.0612,-3.0598,-3.0642,-3.0612,-3.0642,-3.0657,-3.0762,-3.0791,-3.0821,-3.0969,-3.1073,-3.1087,-3.1146,-3.1522,-3.1821,-3.2059,-3.236,-3.2741,-3.3024,-3.2902,-3.3401,-3.4154,-3.403,-3.3317,-3.2724,-3.199,-3.1201,-3.0754,-3.051,-3.0684,-3.1469,-3.1673,-3.1961,-3.219,-3.2257,-3.2209,-3.214,-3.2053,-3.1966,-3.2109,-3.2301,-3.2606,-3.282,-3.2884,-3.299,-3.3232,-3.3648,-3.4062,-3.4383,-3.4548,-3.4713,-3.4851,-3.4925,-3.4988,-3.5064,-3.5228,-3.5336,-3.5424,-3.5509,-3.554,-3.2605,-3.281,-3.2766,-3.2896,-3.3081,-3.3124,-3.3124,-3.3124,-3.3124,-3.3081,-3.3124,-3.3124,-3.3124,-3.3068,-3.2893,-3.2667,-3.2277,-3.1876,-3.1461,-3.0633,-3.0493,-3.0168,-2.9892,-2.9804,-2.9779,-2.9779,-2.9779,-2.9779,-2.9779,-2.9779,-2.9779,-2.9779,-2.9779,-2.9779,-2.9779,-2.9779,-2.9779,-2.9767,-2.9628,-2.9566,-2.9465,-2.9051,-2.8637,-2.8423,-2.7913,-2.784,-2.8132,-2.794,-2.813,-2.873,-2.9026,-2.9485,-3.0158,-3.0038,-3.0068,-3.0417,-3.0582,-3.0582,-3.0612,-3.0612,-3.0612,-3.0642,-3.0672,-3.0672,-3.0702,-3.0732,-3.0762,-3.0821,-3.0984,-3.1277,-3.1637,-3.1903,-3.2182,-3.2403,-3.2552,-3.2725,-3.2977,-3.251,-3.2214,-3.2148,-3.1402,-3.0582,-3.0455,-3.0464,-3.0551,-3.0675,-3.0821,-3.1044,-3.1203,-3.1359,-3.1395,-3.1413,-3.147,-3.149,-3.175,-3.2003,-3.2352,-3.2622,-3.2737,-3.29,-3.3111,-3.3332,-3.3702,-3.4043,-3.4321,-3.448,-3.458,-3.4723,-3.4784,-3.4898,-3.4969,-3.5092,-3.5189,-3.5302,-3.5398,-3.1637,-3.1901,-3.2363,-3.268,-3.2896,-3.2896,-3.2982,-3.3025,-3.2939,-3.2982,-3.3038,-3.2982,-3.2982,-3.3068,-3.3111,-3.288,-3.2604,-3.2303,-3.1775,-3.1019,-3.0678,-3.0313,-3.0129,-2.9827,-2.965,-2.9753,-2.9779,-2.9779,-2.9779,-2.9779,-2.9779,-2.9779,-2.9779,-2.9779,-2.9779,-2.9779,-2.9779,-2.9779,-2.9779,-2.9779,-2.9716,-2.9515,-2.9139,-2.8825,-2.8134,-2.7873,-2.8129,-2.7994,-2.8196,-2.8541,-2.8515,-2.8672,-2.9366,-2.9328,-2.9484,-3.0007,-3.0129,-3.0357,-3.0477,-3.0612,-3.0612,-3.0598,-3.0612,-3.0612,-3.0612,-3.0612,-3.0628,-3.0702,-3.0762,-3.0866,-3.116,-3.1248,-3.1465,-3.1622,-3.1705,-3.1847,-3.2008,-3.1592,-3.1333,-3.1539,-3.0784,-3.0326,-3.0194,-3.0274,-3.0359,-3.0426,-3.0405,-3.0617,-3.0597,-3.0744,-3.0845,-3.0902,-3.0982,-3.1123,-3.1395,-3.1731,-3.2126,-3.2352,-3.2505,-3.2705,-3.2945,-3.3111,-3.3317,-3.3639,-3.3961,-3.4117,-3.4262,-3.4413,-3.4545,-3.4622,-3.4724,-3.4822,-3.4944,-3.5064,-3.513,-3.0498,-3.0902,-3.1749,-3.2332,-3.2624,-3.268,-3.2624,-3.2667,-3.2525,-3.2295,-3.2438,-3.2307,-3.2152,-3.2655,-3.2667,-3.2766,-3.2802,-3.2531,-3.1951,-3.1331,-3.0872,-3.0599,-3.0418,-2.9928,-2.9655,-2.9827,-2.9829,-2.9804,-2.9779,-2.9779,-2.9779,-2.9779,-2.9779,-2.9779,-2.9779,-2.9779,-2.9779,-2.9779,-2.9779,-2.9779,-2.9779,-2.9729,-2.949,-2.9126,-2.8574,-2.8247,-2.8294,-2.8217,-2.8335,-2.8889,-2.8411,-2.8254,-2.8358,-2.8525,-2.8789,-2.9481,-2.9519,-2.9608,-2.9917,-3.0146,-3.0176,-3.0372,-3.0417,-3.0507,-3.0538,-3.0612,-3.0598,-3.0598,-3.0642,-3.0642,-3.0598,-3.0717,-3.0747,-3.0807,-3.0687,-3.0911,-3.1227,-3.0956,-3.082,-3.0987,-3.0378,-2.9831,-2.9879,-2.9979,-3.0081,-3.0167,-3.0146,-3.0167,-3.0167,-3.021,-3.0401,-3.0506,-3.0613,-3.0821,-3.1103,-3.1242,-3.1658,-3.1967,-3.2162,-3.2352,-3.2588,-3.2768,-3.2923,-3.3273,-3.3546,-3.3743,-3.3908,-3.4036,-3.4166,-3.4298,-3.4413,-3.4483,-3.4624,-3.4822,-3.487,-2.9612,-3.0576,-3.0734,-3.1415,-3.2332,-3.2431,-3.1913,-3.1303,-3.1214,-3.0744,-3.0135,-3.0,-3.0687,-3.1235,-3.1335,-3.1713,-3.2283,-3.2272,-3.2098,-3.1593,-3.1196,-3.0945,-3.0503,-2.9768,-2.9674,-2.9843,-2.9754,-2.9686,-2.9753,-2.9779,-2.974,-2.9779,-2.9779,-2.9779,-2.974,-2.9779,-2.9714,-2.9702,-2.9702,-2.9702,-2.9702,-2.9728,-2.9703,-2.9465,-2.9013,-2.8825,-2.865,-2.8373,-2.8182,-2.823,-2.8133,-2.8154,-2.826,-2.8365,-2.8697,-2.9104,-2.9062,-2.9027,-2.9223,-2.9063,-2.9261,-2.9577,-2.9803,-3.0113,-3.0387,-3.0582,-3.0507,-3.0612,-3.0612,-3.0612,-3.0612,-3.0612,-3.0612,-3.0642,-3.0642,-3.0657,-3.0675,-3.0437,-3.0056,-3.0309,-2.9791,-2.9327,-2.9388,-2.9483,-2.955,-2.97,-2.9826,-2.9892,-2.9957,-3.0017,-3.0146,-3.021,-3.0274,-3.0531,-3.0804,-3.0868,-3.1089,-3.1475,-3.1679,-3.177,-3.2003,-3.2249,-3.2503,-3.2858,-3.3187,-3.3426,-3.3555,-3.3671,-3.3834,-3.3992,-3.4055,-3.4117,-3.4314,-3.4486,-3.4603,-2.8262,-2.8819,-2.9326,-2.9977,-3.0576,-3.0621,-3.0486,-3.0147,-2.9977,-2.9738,-2.9464,-2.9269,-2.9544,-3.009,-3.0192,-3.0666,-3.1403,-3.1713,-3.1799,-3.1699,-3.105,-3.0551,-3.0131,-2.9263,-2.8654,-2.8574,-2.8793,-2.9233,-2.9442,-2.9534,-2.9611,-2.9599,-2.9599,-2.9599,-2.956,-2.9443,-2.9468,-2.9468,-2.9468,-2.9468,-2.9468,-2.9521,-2.9599,-2.9512,-2.9476,-2.939,-2.9327,-2.9189,-2.9001,-2.9001,-2.8862,-2.8787,-2.8675,-2.8582,-2.8689,-2.9034,-2.8923,-2.9,-2.9281,-2.9348,-2.9512,-2.9412,-2.9454,-2.9638,-2.9938,-3.0068,-3.019,-3.0477,-3.0612,-3.0612,-3.0612,-3.0582,-3.0612,-3.0612,-3.0612,-3.0612,-3.0539,-3.0277,-3.0013,-2.9711,-2.9195,-2.8868,-2.8754,-2.885,-2.8989,-2.9173,-2.9393,-2.9544,-2.9633,-2.9738,-2.9782,-2.9957,-3.0038,-3.0215,-3.0452,-3.0535,-3.0642,-3.0954,-3.1189,-3.1283,-3.1473,-3.175,-3.2074,-3.2434,-3.2731,-3.2988,-3.3265,-3.3412,-3.3541,-3.3666,-3.3762,-3.3868,-3.3992,-3.4154,-3.4291,-2.701,-2.7284,-2.8075,-2.8577,-2.8912,-2.8958,-2.8947,-2.8901,-2.8716,-2.8588,-2.8634,-2.8448,-2.8495,-2.8993,-2.9361,-2.9829,-3.0474,-3.0474,-3.0878,-3.0974,-3.018,-2.9639,-2.9324,-2.8475,-2.7623,-2.7779,-2.7858,-2.8398,-2.8809,-2.9197,-2.9314,-2.9353,-2.9341,-2.9341,-2.9314,-2.9236,-2.9143,-2.9104,-2.9104,-2.9104,-2.9131,-2.9236,-2.9341,-2.9341,-2.9573,-2.9599,-2.9498,-2.946,-2.9448,-2.9409,-2.9344,-2.9291,-2.9254,-2.8919,-2.8825,-2.9036,-2.8995,-2.9244,-2.9473,-2.9608,-2.9294,-2.9268,-2.9275,-2.9397,-2.9412,-2.953,-2.9577,-3.0054,-3.0129,-3.019,-3.0221,-3.0342,-3.0477,-3.0612,-3.0612,-3.0612,-3.0612,-3.0409,-2.9972,-2.9501,-2.8813,-2.8453,-2.8311,-2.8231,-2.836,-2.867,-2.8896,-2.8919,-2.9035,-2.9212,-2.9364,-2.9633,-2.9804,-2.9935,-3.0087,-3.0205,-3.03,-3.0502,-3.0666,-3.0764,-3.1007,-3.1283,-3.1607,-3.1845,-3.2144,-3.2401,-3.2781,-3.3144,-3.328,-3.3415,-3.3473,-3.3615,-3.3775,-3.3934,-3.4068,-2.637,-2.7189,-2.7332,-2.7887,-2.8577,-2.8634,-2.8168,-2.751,-2.7474,-2.6877,-2.6476,-2.6294,-2.6887,-2.7757,-2.8808,-2.9085,-2.9096,-2.9189,-2.9372,-2.9476,-2.902,-2.8782,-2.8771,-2.8238,-2.7502,-2.7332,-2.7293,-2.7547,-2.7976,-2.8634,-2.9052,-2.9052,-2.9,-2.9079,-2.891,-2.8673,-2.9104,-2.9064,-2.9025,-2.9025,-2.9025,-2.904,-2.9131,-2.917,-2.9209,-2.926,-2.926,-2.926,-2.926,-2.9209,-2.917,-2.9131,-2.9106,-2.9081,-2.9059,-2.8895,-2.86,-2.8292,-2.8575,-2.8784,-2.8911,-2.9086,-2.9127,-2.9215,-2.9221,-2.9039,-2.889,-2.8684,-2.8857,-2.9156,-2.9608,-2.9701,-3.0007,-3.0251,-3.0342,-3.0447,-3.0507,-3.0283,-2.9895,-2.9435,-2.8821,-2.8228,-2.7884,-2.7791,-2.7765,-2.8094,-2.8336,-2.8376,-2.8496,-2.8685,-2.8865,-2.9143,-2.9454,-2.9611,-2.982,-2.9902,-3.0055,-3.0177,-3.0258,-3.0321,-3.0535,-3.0788,-3.09,-3.1159,-3.1495,-3.1932,-3.2401,-3.275,-3.2993,-3.3132,-3.3223,-3.3386,-3.3573,-3.3726,-3.3815,-2.5965,-2.6322,-2.6322,-2.66,-2.6972,-2.703,-2.6791,-2.6418,-2.6322,-2.6091,-2.5771,-2.5684,-2.6062,-2.6706,-2.7163,-2.7521,-2.7793,-2.7934,-2.8308,-2.8402,-2.8121,-2.7829,-2.7646,-2.704,-2.6613,-2.6563,-2.6564,-2.6591,-2.7113,-2.7822,-2.8464,-2.8219,-2.8195,-2.8131,-2.8091,-2.7568,-2.7273,-2.7325,-2.7661,-2.7995,-2.8155,-2.8554,-2.8922,-2.8922,-2.9,-2.9052,-2.9064,-2.9104,-2.9104,-2.9052,-2.9013,-2.8922,-2.8922,-2.891,-2.891,-2.8912,-2.8815,-2.8773,-2.8862,-2.8938,-2.9025,-2.8945,-2.9014,-2.906,-2.9087,-2.9007,-2.8862,-2.8975,-2.8668,-2.868,-2.8871,-2.8953,-2.9376,-2.9701,-2.9763,-2.987,-2.9931,-2.9964,-2.9692,-2.9256,-2.8829,-2.8299,-2.7765,-2.7487,-2.7399,-2.7444,-2.773,-2.7864,-2.7997,-2.8264,-2.8432,-2.8614,-2.8935,-2.925,-2.9493,-2.9665,-2.9858,-2.9995,-3.0065,-3.0124,-3.0119,-3.0262,-3.0448,-3.0657,-3.0974,-3.1456,-3.1986,-3.2317,-3.2553,-3.275,-3.2961,-3.3132,-3.328,-3.3368,-3.3508,-2.5684,-2.5684,-2.5684,-2.5684,-2.5684,-2.5684,-2.5732,-2.5732,-2.5732,-2.5732,-2.5684,-2.5684,-2.5684,-2.5732,-2.5868,-2.6274,-2.6819,-2.6819,-2.7247,-2.7426,-2.7284,-2.6867,-2.6638,-2.6051,-2.5633,-2.5225,-2.5993,-2.6043,-2.6191,-2.6834,-2.7493,-2.7245,-2.7321,-2.7195,-2.6876,-2.6483,-2.6069,-2.6152,-2.6618,-2.6876,-2.704,-2.7874,-2.8063,-2.8263,-2.8554,-2.8855,-2.8697,-2.8907,-2.8946,-2.8907,-2.8816,-2.8736,-2.8724,-2.8724,-2.8736,-2.8764,-2.8775,-2.8944,-2.9127,-2.9231,-2.9323,-2.915,-2.8863,-2.8872,-2.8918,-2.8974,-2.8728,-2.8486,-2.815,-2.8014,-2.8157,-2.8182,-2.8538,-2.8776,-2.8871,-2.8998,-2.9125,-2.9129,-2.9369,-2.9385,-2.8967,-2.8498,-2.7959,-2.7391,-2.7096,-2.6916,-2.7037,-2.7291,-2.7515,-2.775,-2.7898,-2.8036,-2.8264,-2.8614,-2.8997,-2.9266,-2.9515,-2.9732,-2.982,-2.9946,-2.9946,-3.0033,-3.0177,-3.0389,-3.0576,-3.0771,-3.1155,-3.1645,-3.2127,-3.2368,-3.262,-3.28,-3.2959,-3.3052,-3.3217,-2.5684,-2.5684,-2.5684,-2.5684,-2.5684,-2.5684,-2.5684,-2.5684,-2.5684,-2.5684,-2.5684,-2.5684,-2.5684,-2.5684,-2.5684,-2.5771,-2.5868,-2.583,-2.6062,-2.6052,-2.582,-2.5955,-2.5917,-2.581,-2.5654,-2.5596,-2.5817,-2.5591,-2.5486,-2.6172,-2.6551,-2.653,-2.6484,-2.6264,-2.5972,-2.5622,-2.5368,-2.5442,-2.5777,-2.5913,-2.6163,-2.6659,-2.6958,-2.67,-2.7539,-2.8179,-2.7458,-2.7955,-2.8419,-2.8379,-2.8247,-2.8339,-2.8287,-2.8167,-2.8127,-2.8127,-2.8263,-2.8422,-2.8673,-2.904,-2.9223,-2.9155,-2.901,-2.8774,-2.8787,-2.8064,-2.7616,-2.754,-2.7455,-2.7205,-2.7267,-2.7351,-2.7637,-2.792,-2.8051,-2.8117,-2.8214,-2.8266,-2.8566,-2.9146,-2.8933,-2.8186,-2.7668,-2.6976,-2.6818,-2.664,-2.67,-2.6919,-2.6945,-2.7137,-2.7276,-2.7429,-2.759,-2.7913,-2.8352,-2.8677,-2.9028,-2.9227,-2.9341,-2.9582,-2.9814,-2.988,-2.9826,-3.0055,-3.021,-3.0251,-3.039,-3.1016,-3.1551,-3.1986,-3.2282,-3.247,-3.2654,-3.2766,-3.2972,-2.5684,-2.5684,-2.5684,-2.5684,-2.5684,-2.5684,-2.5684,-2.5684,-2.5684,-2.5684,-2.5684,-2.5684,-2.5684,-2.5684,-2.5684,-2.5684,-2.5684,-2.5684,-2.5684,-2.5684,-2.5684,-2.5684,-2.5684,-2.5684,-2.5684,-2.5684,-2.5674,-2.5693,-2.5594,-2.5889,-2.5732,-2.5706,-2.5735,-2.5567,-2.5271,-2.4655,-2.4284,-2.4402,-2.4691,-2.4988,-2.52,-2.583,-2.6163,-2.5986,-2.6193,-2.67,-2.6412,-2.667,-2.7133,-2.7429,-2.7174,-2.7336,-2.7499,-2.7255,-2.704,-2.6999,-2.7098,-2.7354,-2.7983,-2.8566,-2.9131,-2.9145,-2.9038,-2.8903,-2.8829,-2.8319,-2.8012,-2.7693,-2.7103,-2.6935,-2.6854,-2.6653,-2.662,-2.7069,-2.7258,-2.7258,-2.7324,-2.7425,-2.763,-2.8171,-2.789,-2.7373,-2.6879,-2.6423,-2.6386,-2.64,-2.6478,-2.65,-2.6513,-2.6618,-2.6841,-2.7023,-2.7174,-2.7327,-2.774,-2.8158,-2.8591,-2.8709,-2.8826,-2.9097,-2.9357,-2.9403,-2.9409,-2.9643,-2.9852,-2.9935,-3.0145,-3.0563,-3.101,-3.1437,-3.1824,-3.2144,-3.2318,-3.2437,-3.2636,-2.5684,-2.5684,-2.5684,-2.5684,-2.5684,-2.5684,-2.5684,-2.5684,-2.5684,-2.5684,-2.5684,-2.5684,-2.5684,-2.5684,-2.5684,-2.5684,-2.5684,-2.5684,-2.5684,-2.5684,-2.5684,-2.5684,-2.5684,-2.5684,-2.5684,-2.5684,-2.5684,-2.5664,-2.5684,-2.5674,-2.5604,-2.5409,-2.5141,-2.5047,-2.4442,-2.3765,-2.3101,-2.3309,-2.3647,-2.4069,-2.4198,-2.4904,-2.5115,-2.5147,-2.5526,-2.5704,-2.5663,-2.583,-2.6246,-2.6453,-2.637,-2.6246,-2.6329,-2.6246,-2.5861,-2.5777,-2.5861,-2.6121,-2.6905,-2.8115,-2.8934,-2.9,-2.8988,-2.8964,-2.8915,-2.8607,-2.8273,-2.807,-2.7433,-2.6907,-2.6736,-2.6413,-2.6138,-2.6527,-2.6324,-2.6299,-2.6471,-2.6607,-2.6833,-2.7105,-2.6889,-2.6931,-2.6507,-2.6042,-2.5571,-2.5786,-2.6234,-2.6192,-2.6055,-2.6231,-2.6513,-2.6698,-2.6841,-2.6982,-2.7174,-2.759,-2.7972,-2.8119,-2.8264,-2.8528,-2.8732,-2.8779,-2.8826,-2.8943,-2.9166,-2.9531,-2.9826,-3.0097,-3.046,-3.0905,-3.1281,-3.1677,-3.1695,-3.1806,-3.2074,-2.5684,-2.5684,-2.5684,-2.5684,-2.5684,-2.5684,-2.5684,-2.5684,-2.5684,-2.5684,-2.5684,-2.5684,-2.5684,-2.5684,-2.5684,-2.5684,-2.5684,-2.5684,-2.5684,-2.5684,-2.5684,-2.5684,-2.5684,-2.5684,-2.5684,-2.5684,-2.5684,-2.5684,-2.5684,-2.5684,-2.5625,-2.5547,-2.5238,-2.4713,-2.3908,-2.3359,-2.312,-2.3091,-2.3222,-2.3266,-2.3474,-2.4145,-2.4069,-2.4059,-2.4691,-2.4988,-2.4744,-2.4988,-2.5411,-2.5663,-2.5537,-2.5495,-2.5704,-2.5621,-2.5442,-2.5484,-2.5526,-2.5652,-2.5944,-2.7718,-2.8383,-2.8645,-2.8593,-2.8803,-2.8776,-2.86,-2.8415,-2.8181,-2.774,-2.7218,-2.6821,-2.636,-2.6127,-2.5955,-2.5787,-2.5629,-2.5873,-2.5931,-2.6161,-2.6321,-2.6599,-2.674,-2.6265,-2.573,-2.4938,-2.5007,-2.5757,-2.5865,-2.5632,-2.5797,-2.6096,-2.6433,-2.6592,-2.6618,-2.6774,-2.7056,-2.7323,-2.7475,-2.7625,-2.7824,-2.8021,-2.8119,-2.8176,-2.8249,-2.8528,-2.8889,-2.9227,-2.9538,-2.9903,-3.0272,-3.0788,-3.1106,-3.1106,-3.1223,-3.1529,-2.5684,-2.5684,-2.5684,-2.5684,-2.5684,-2.5684,-2.5684,-2.5684,-2.5684,-2.5684,-2.5684,-2.5684,-2.5684,-2.5684,-2.5684,-2.5684,-2.5684,-2.5684,-2.5684,-2.5684,-2.5684,-2.5684,-2.5684,-2.5684,-2.5684,-2.5684,-2.5684,-2.5684,-2.5684,-2.5684,-2.5684,-2.5577,-2.5303,-2.4656,-2.3994,-2.3584,-2.3467,-2.3149,-2.3135,-2.3135,-2.3135,-2.3387,-2.3474,-2.3135,-2.3854,-2.3983,-2.3691,-2.4155,-2.4445,-2.4734,-2.4616,-2.4445,-2.4659,-2.4616,-2.4145,-2.4102,-2.4059,-2.4349,-2.4946,-2.6152,-2.7069,-2.7568,-2.8155,-2.8407,-2.8538,-2.855,-2.8418,-2.8225,-2.7831,-2.7447,-2.7348,-2.6565,-2.6178,-2.5985,-2.5792,-2.5514,-2.5523,-2.5488,-2.5581,-2.5616,-2.5824,-2.5679,-2.5336,-2.5197,-2.458,-2.408,-2.4665,-2.5159,-2.5063,-2.5315,-2.5632,-2.6138,-2.6394,-2.6367,-2.6433,-2.6508,-2.6666,-2.6823,-2.689,-2.6982,-2.7148,-2.7399,-2.76,-2.775,-2.7997,-2.828,-2.8591,-2.8919,-2.9212,-2.9601,-3.0149,-3.0625,-3.0804,-3.0888,-3.1106,-2.5684,-2.5684,-2.5684,-2.5684,-2.5684,-2.5684,-2.5684,-2.5684,-2.5684,-2.5684,-2.5684,-2.5684,-2.5684,-2.5684,-2.5684,-2.5684,-2.5684,-2.5684,-2.5684,-2.5684,-2.5684,-2.5684,-2.5684,-2.5684,-2.5684,-2.5684,-2.5684,-2.5684,-2.5684,-2.5684,-2.5684,-2.5606,-2.543,-2.498,-2.4394,-2.4004,-2.3545,-2.3218,-2.3101,-2.3101,-2.3091,-2.3178,-2.3135,-2.3091,-2.3222,-2.3135,-2.3135,-2.3222,-2.3353,-2.3647,-2.3614,-2.3406,-2.3647,-2.3517,-2.3101,-2.3101,-2.3178,-2.3474,-2.4059,-2.4904,-2.5704,-2.6121,-2.708,-2.7499,-2.758,-2.7377,-2.7672,-2.7705,-2.764,-2.7675,-2.7454,-2.6655,-2.6379,-2.6163,-2.5805,-2.5529,-2.5276,-2.5276,-2.5312,-2.5312,-2.5276,-2.4975,-2.465,-2.4381,-2.4156,-2.3832,-2.3561,-2.4056,-2.4492,-2.4724,-2.4979,-2.5384,-2.5674,-2.5536,-2.5591,-2.5838,-2.6001,-2.6177,-2.6299,-2.6379,-2.6498,-2.6759,-2.7019,-2.7251,-2.7388,-2.76,-2.7972,-2.8288,-2.8646,-2.9035,-2.9512,-2.9973,-3.0393,-3.0601,-3.0744,-2.5684,-2.5684,-2.5684,-2.5684,-2.5684,-2.5684,-2.5684,-2.5684,-2.5684,-2.5684,-2.5684,-2.5684,-2.5684,-2.5684,-2.5684,-2.5684,-2.5684,-2.5684,-2.5684,-2.5684,-2.5684,-2.5684,-2.5684,-2.5684,-2.5684,-2.5684,-2.5684,-2.5684,-2.5684,-2.5684,-2.5684,-2.5684,-2.5606,-2.5273,-2.4805,-2.4382,-2.3779,-2.3447,-2.313,-2.312,-2.3101,-2.3101,-2.3101,-2.3101,-2.3101,-2.3101,-2.3101,-2.3135,-2.3135,-2.3222,-2.3135,-2.3144,-2.3135,-2.3101,-2.3101,-2.3101,-2.3101,-2.3178,-2.3353,-2.4155,-2.436,-2.4776,-2.5274,-2.561,-2.6027,-2.6329,-2.667,-2.6969,-2.7036,-2.7338,-2.7426,-2.7055,-2.6723,-2.6334,-2.5934,-2.56,-2.5218,-2.5206,-2.5276,-2.5312,-2.5312,-2.5107,-2.476,-2.4452,-2.4156,-2.3956,-2.366,-2.3411,-2.3798,-2.393,-2.415,-2.4368,-2.4582,-2.4567,-2.4738,-2.5063,-2.5425,-2.566,-2.5893,-2.6029,-2.6069,-2.6177,-2.6404,-2.6616,-2.6707,-2.6927,-2.7221,-2.7675,-2.8143,-2.8551,-2.8857,-2.9528,-3.0027,-3.022,-3.0389,-2.5684,-2.5684,-2.5684,-2.5684,-2.5684,-2.5684,-2.5684,-2.5684,-2.5684,-2.5684,-2.5684,-2.5684,-2.5684,-2.5684,-2.5684,-2.5684,-2.5684,-2.5684,-2.5684,-2.5684,-2.5684,-2.5684,-2.5684,-2.5684,-2.5684,-2.5684,-2.5684,-2.5684,-2.5684,-2.5684,-2.5684,-2.5684,-2.5684,-2.5459,-2.5156,-2.4861,-2.4228,-2.3711,-2.3359,-2.3159,-2.311,-2.3101,-2.3101,-2.3101,-2.3101,-2.3101,-2.3101,-2.3101,-2.3101,-2.3101,-2.3101,-2.3101,-2.3101,-2.3101,-2.3101,-2.3101,-2.3101,-2.3135,-2.3144,-2.3353,-2.356,-2.3604,-2.3897,-2.4734,-2.5274,-2.5652,-2.5788,-2.6038,-2.6257,-2.6508,-2.6726,-2.6605,-2.6327,-2.597,-2.5547,-2.5168,-2.4904,-2.4981,-2.5052,-2.5052,-2.5052,-2.4921,-2.466,-2.4548,-2.426,-2.4148,-2.3935,-2.3547,-2.324,-2.3441,-2.3395,-2.3607,-2.3741,-2.3842,-2.4034,-2.4339,-2.4766,-2.5104,-2.5328,-2.555,-2.5674,-2.5756,-2.5921,-2.6056,-2.6217,-2.6324,-2.6457,-2.6927,-2.7475,-2.779,-2.8134,-2.8935,-2.9582,-2.9782,-2.9984,-2.5684,-2.5684,-2.5684,-2.5684,-2.5684,-2.5684,-2.5684,-2.5684,-2.5684,-2.5684,-2.5684,-2.5684,-2.5684,-2.5684,-2.5684,-2.5684,-2.5684,-2.5684,-2.5684,-2.5684,-2.5684,-2.5684,-2.5684,-2.5684,-2.5684,-2.5684,-2.5684,-2.5684,-2.5684,-2.5684,-2.5684,-2.5684,-2.5684,-2.5538,-2.5352,-2.5088,-2.4668,-2.4121,-2.3672,-2.335,-2.3159,-2.3101,-2.3101,-2.3101,-2.3101,-2.3101,-2.3101,-2.3101,-2.3101,-2.3101,-2.3101,-2.3101,-2.3101,-2.3101,-2.3101,-2.3101,-2.3101,-2.3101,-2.3101,-2.3101,-2.3135,-2.3101,-2.3091,-2.3637,-2.4145,-2.4488,-2.4819,-2.5168,-2.5337,-2.5504,-2.5782,-2.5928,-2.5679,-2.5413,-2.5036,-2.4627,-2.4636,-2.468,-2.473,-2.4719,-2.4636,-2.4528,-2.4459,-2.439,-2.447,-2.4583,-2.447,-2.4095,-2.3639,-2.3386,-2.3133,-2.2951,-2.3095,-2.3233,-2.3458,-2.3712,-2.4063,-2.4394,-2.4567,-2.4809,-2.5105,-2.5189,-2.5133,-2.5439,-2.5784,-2.5948,-2.6123,-2.6324,-2.6759,-2.7097,-2.7439,-2.8046,-2.8756,-2.9266,-2.9477,-2.5684,-2.5684,-2.5684,-2.5684,-2.5684,-2.5684,-2.5684,-2.5684,-2.5684,-2.5684,-2.5684,-2.5684,-2.5684,-2.5684,-2.5684,-2.5684,-2.5684,-2.5684,-2.5684,-2.5684,-2.5684,-2.5684,-2.5684,-2.5684,-2.5684,-2.5684,-2.5684,-2.5684,-2.5684,-2.5684,-2.5684,-2.5684,-2.5684,-2.5615,-2.5547,-2.5361,-2.4971,-2.4521,-2.4033,-2.3652,-2.3208,-2.3101,-2.3101,-2.3101,-2.3101,-2.3101,-2.3101,-2.3101,-2.3101,-2.3101,-2.3101,-2.3101,-2.3101,-2.3101,-2.3101,-2.3101,-2.3101,-2.3101,-2.3101,-2.3101,-2.3101,-2.3101,-2.3091,-2.3266,-2.3517,-2.3681,-2.4026,-2.4231,-2.4402,-2.4829,-2.5167,-2.503,-2.4753,-2.4678,-2.4498,-2.4082,-2.3895,-2.3951,-2.4009,-2.3975,-2.3866,-2.3793,-2.3963,-2.3902,-2.4283,-2.4755,-2.4819,-2.4446,-2.404,-2.3529,-2.3095,-2.262,-2.2653,-2.28,-2.2871,-2.313,-2.3386,-2.364,-2.3846,-2.4137,-2.4483,-2.4467,-2.4295,-2.4865,-2.5453,-2.5729,-2.5948,-2.6123,-2.6324,-2.6602,-2.6953,-2.7261,-2.7815,-2.8415,-2.8904,-2.5684,-2.5684,-2.5684,-2.5684,-2.5684,-2.5684,-2.5684,-2.5684,-2.5684,-2.5684,-2.5684,-2.5684,-2.5684,-2.5684,-2.5684,-2.5684,-2.5684,-2.5684,-2.5684,-2.5684,-2.5684,-2.5684,-2.5684,-2.5684,-2.5684,-2.5684,-2.5684,-2.5684,-2.5684,-2.5684,-2.5684,-2.5684,-2.5684,-2.5684,-2.5684,-2.5518,-2.5283,-2.4834,-2.4473,-2.3906,-2.3315,-2.314,-2.3101,-2.3101,-2.3101,-2.3101,-2.3101,-2.3101,-2.3101,-2.3101,-2.3101,-2.3101,-2.3101,-2.3101,-2.3101,-2.3101,-2.3101,-2.3101,-2.3101,-2.3101,-2.3101,-2.3101,-2.3101,-2.3101,-2.3135,-2.3101,-2.3178,-2.3387,-2.3681,-2.4145,-2.4392,-2.4147,-2.3937,-2.398,-2.3959,-2.3554,-2.3158,-2.3183,-2.3261,-2.3169,-2.3058,-2.3095,-2.3279,-2.3647,-2.4084,-2.4365,-2.4551,-2.439,-2.412,-2.3723,-2.3257,-2.2783,-2.2428,-2.2462,-2.2506,-2.258,-2.2871,-2.3027,-2.3237,-2.3522,-2.3846,-2.3933,-2.3975,-2.4637,-2.5174,-2.53,-2.5522,-2.5893,-2.6069,-2.619,-2.6443,-2.6759,-2.689,-2.7363,-2.7963,-2.5684,-2.5684,-2.5684,-2.5684,-2.5684,-2.5684,-2.5684,-2.5684,-2.5684,-2.5684,-2.5684,-2.5684,-2.5684,-2.5684,-2.5684,-2.5684,-2.5684,-2.5684,-2.5684,-2.5684,-2.5684,-2.5684,-2.5684,-2.5684,-2.5684,-2.5684,-2.5684,-2.5684,-2.5684,-2.5684,-2.5684,-2.5684,-2.5684,-2.5684,-2.5684,-2.5654,-2.5527,-2.5068,-2.4805,-2.4326,-2.3588,-2.3364,-2.314,-2.3101,-2.3101,-2.3101,-2.3101,-2.3101,-2.3101,-2.3101,-2.3101,-2.3101,-2.3101,-2.3101,-2.3101,-2.3101,-2.3101,-2.3101,-2.3101,-2.3101,-2.3101,-2.3101,-2.3101,-2.3101,-2.3101,-2.3101,-2.3101,-2.3266,-2.3266,-2.3691,-2.3691,-2.3541,-2.3467,-2.3473,-2.3293,-2.2941,-2.2677,-2.2548,-2.2531,-2.2424,-2.2209,-2.1983,-2.2209,-2.2537,-2.3021,-2.3562,-2.3788,-2.3723,-2.3607,-2.3521,-2.3166,-2.2935,-2.2506,-2.2296,-2.229,-2.2328,-2.2377,-2.2519,-2.2647,-2.2707,-2.2919,-2.3357,-2.3741,-2.4105,-2.4394,-2.4624,-2.4908,-2.5286,-2.5467,-2.5508,-2.5865,-2.6244,-2.6338,-2.6445,-2.6967,-2.5684,-2.5684,-2.5684,-2.5684,-2.5684,-2.5684,-2.5684,-2.5684,-2.5684,-2.5684,-2.5684,-2.5684,-2.5684,-2.5684,-2.5684,-2.5684,-2.5684,-2.5684,-2.5684,-2.5684,-2.5684,-2.5684,-2.5684,-2.5684,-2.5684,-2.5684,-2.5684,-2.5684,-2.5684,-2.5684,-2.5684,-2.5684,-2.5684,-2.5684,-2.5684,-2.5654,-2.5557,-2.5283,-2.5039,-2.4834,-2.4287,-2.3691,-2.3354,-2.3198,-2.312,-2.3101,-2.3101,-2.3101,-2.3101,-2.3101,-2.3101,-2.3101,-2.3101,-2.3101,-2.3101,-2.3101,-2.3101,-2.3101,-2.3101,-2.3101,-2.3101,-2.3101,-2.3101,-2.3101,-2.3101,-2.3101,-2.3101,-2.3101,-2.3101,-2.3101,-2.3144,-2.3135,-2.3159,-2.3071,-2.2808,-2.2498,-2.2251,-2.2015,-2.1868,-2.1724,-2.1471,-2.1175,-2.1357,-2.1652,-2.2134,-2.2649,-2.2815,-2.2666,-2.2573,-2.2589,-2.2434,-2.2524,-2.2531,-2.2329,-2.2273,-2.2159,-2.2159,-2.2049,-2.2161,-2.1987,-2.2018,-2.2537,-2.295,-2.3195,-2.3492,-2.3846,-2.4179,-2.4567,-2.4681,-2.4836,-2.5328,-2.5715,-2.5825,-2.5934,-2.6136,-2.5684,-2.5684,-2.5684,-2.5684,-2.5684,-2.5684,-2.5684,-2.5684,-2.5684,-2.5684,-2.5684,-2.5684,-2.5684,-2.5684,-2.5684,-2.5684,-2.5684,-2.5684,-2.5684,-2.5684,-2.5684,-2.5684,-2.5684,-2.5684,-2.5684,-2.5684,-2.5684,-2.5684,-2.5684,-2.5684,-2.5684,-2.5684,-2.5684,-2.5684,-2.5684,-2.5654,-2.5615,-2.5459,-2.5264,-2.5049,-2.4795,-2.4258,-2.3779,-2.3545,-2.332,-2.3169,-2.3101,-2.3101,-2.3101,-2.3101,-2.3101,-2.3101,-2.3101,-2.3101,-2.3101,-2.3101,-2.3101,-2.3101,-2.3101,-2.3101,-2.3101,-2.3101,-2.3101,-2.3101,-2.3101,-2.3101,-2.3101,-2.3101,-2.3101,-2.3101,-2.3144,-2.3144,-2.3115,-2.2998,-2.2767,-2.2428,-2.2114,-2.168,-2.1372,-2.1153,-2.0935,-2.0809,-2.0867,-2.1242,-2.1652,-2.2071,-2.2205,-2.2071,-2.2177,-2.199,-2.1733,-2.1908,-2.2183,-2.2522,-2.2527,-2.2143,-2.2024,-2.1871,-2.1698,-2.1624,-2.1675,-2.1906,-2.2211,-2.2555,-2.2847,-2.3207,-2.3535,-2.3741,-2.4005,-2.4208,-2.4793,-2.5174,-2.5286,-2.5508,-2.577]},{"header":{"parameterUnit":"m.s-1","parameterCategory":1,"la1":31.0,"la2":29.5877,"lo1":-88.7671,"lo2":-86.6584,"dy":0.0162,"dx":0.0185,"nx":115,"ny":88,"refTime":"2024-05-09T06:00:00:Z","depth":0,"parameterNumber":3,"parameterNumberName":"V-component_of_WINDS"},"data":[0.0,0.0,0.0,0.0,0.0,0.0,0.0,0.0,0.0,0.0,0.0,0.0,0.0,0.0,0.0,0.0,0.0,0.0,0.0,0.0,0.0,0.0,0.0,0.0,0.0,0.0,0.0,0.0,0.0,0.0,0.0,0.0,0.0,0.0,0.0,0.0,0.0,0.0,0.0,0.0,0.0,0.0,0.0,0.0,0.0,0.0,0.0,0.0,0.0,0.0,0.0,0.0,0.0,0.0,0.0,0.0,0.0,0.0,0.0,0.0,0.0,0.0,0.0,0.0,0.0,0.0,0.0,0.0,0.0,0.0,0.0,0.0,0.0,0.0,0.0,0.0,0.0,0.0,0.0,0.0,0.0,0.0,0.0,0.0,0.0,0.0,0.0,0.0,0.0,0.0,0.0,0.0,0.0,0.0,0.0,0.0,0.0,0.0,0.0,0.0,0.0,0.0,0.0,0.0,0.0,0.0,0.0,0.0,0.0,0.0,0.0,0.0,0.0,0.0,0.0,0.0,0.0,0.0,0.0,0.0,0.0,0.0,0.0,0.0,0.0,0.0,0.0,0.0,0.0,0.0,0.0,0.0,0.0,0.0,0.0,0.0,0.0,0.0,0.0,0.0,0.0,0.0,0.0,0.0,0.0,0.0,0.0,0.0,0.0,0.0,0.0,0.0,0.0,0.0,0.0,0.0,0.0,0.0,0.0,0.0,0.0,0.0,0.0,0.0,0.0,0.0,0.0,0.0,0.0,0.0,0.0,0.0,0.0,0.0,0.0,0.0,0.0,0.0,0.0,0.0,0.0,0.0,0.0,0.0,0.0,0.0,0.0,0.0,0.0,0.0,0.0,0.0,0.0,0.0,0.0,0.0,0.0,0.0,0.0,0.0,0.0,0.0,0.0,0.0,0.0,0.0,0.0,0.0,0.0,0.0,0.0,0.0,0.0,0.0,0.0,0.0,0.0,0.0,0.0,0.0,0.0,0.0,0.0,0.0,0.0,0.0,0.0,0.0,0.0,0.0,0.0,0.0,0.0,0.0,0.0,0.0,0.0,0.0,0.0,0.0,0.0,0.0,0.0,0.0,0.0,0.0,0.0,0.0,0.0,0.0,0.0,0.0,0.0,0.0,0.0,0.0,0.0,0.0,0.0,0.0,0.0,0.0,0.0,0.0,0.0,0.0,0.0,0.0,0.0,0.0,0.0,0.0,0.0,0.0,0.0,0.0,0.0,0.0,0.0,0.0,0.0,0.0,0.0,0.0,0.0,0.0,0.0,0.0,0.0,0.0,0.0,0.0,0.0,0.0,0.0,0.0,0.0,0.0,0.0,0.0,0.0,0.0,0.0,0.0,0.0,0.0,0.0,0.0,0.0,0.0,0.0,0.0,0.0,0.0,0.0,0.0,0.0,0.0,0.0,0.0,0.0,0.0,0.0,0.0,0.0,0.0,0.0,0.0,0.0,0.0,0.0,0.0,0.0,0.0,0.0,0.0,0.0,0.0,0.0,0.0,0.0,0.0,0.0,0.0,0.0,0.0,0.0,0.0,0.0,0.0,0.0,0.0,0.0,0.0,0.0,0.0,0.0,0.0,0.0,0.0,0.0,0.0,0.0,0.0,0.0,0.0,0.0,0.0,0.0,0.0,0.0,0.0,0.0,0.0,0.0,0.0,0.0,0.0,0.0,0.0,0.0,0.0,0.0,0.0,0.0,0.0,0.0,0.0,0.0,0.0,0.0,0.0,0.0,0.0,0.0,0.0,0.0,0.0,0.0,0.0,0.0,0.0,0.0,0.0,0.0,0.0,0.0,0.0,0.0,0.0,0.0,0.0,0.0,0.0,0.0,0.0,0.0,0.0,0.0,0.0,0.0,0.0,0.0,0.0,0.0,0.0,0.0,0.0,0.0,0.0,0.0,0.0,0.0,0.0,0.0,0.0,0.0,0.0,0.0,0.0,0.0,0.0,0.0,0.0,0.0,0.0,0.0,0.0,0.0,0.0,0.0,0.0,0.0,0.0,0.0,0.0,0.0,0.0,0.0,0.0,0.0,0.0,0.0,0.0,0.0,0.0,0.0,0.0,0.0,0.0,0.0,0.0,0.0,0.0,0.0,0.0,0.0,0.0,0.0,0.0,0.0,0.0,0.0,0.0,0.0,0.0,0.0,0.0,0.0,0.0,0.0,0.0,0.0,0.0,0.0,0.0,0.0,0.0,0.0,0.0,0.0,0.0,0.0,0.0,0.0,0.0,0.0,0.0,0.0,0.0,0.0,0.0,0.0,0.0,0.0,0.0,0.0,0.0,0.0,0.0,0.0,0.0,0.0,0.0,0.0,0.0,0.0,0.0,0.0,0.0,0.0,0.0,0.0,0.0,0.0,0.0,0.0,0.0,0.0,0.0,0.0,0.0,0.0,0.0,0.0,0.0,0.0,0.0,0.0,0.0,0.0,0.0,0.0,0.0,0.0,0.0,0.0,0.0,0.0,0.0,0.0,0.0,0.0,0.0,0.0,0.0,0.0,0.0,0.0,0.0,0.0,0.0,0.0,0.0,0.0,0.0,0.0,0.0,0.0,0.0,0.0,0.0,0.0,0.0,0.0,0.0,0.0,0.0,0.0,0.0,0.0,0.0,0.0,0.0,0.0,0.0,0.0,0.0,0.0,0.0,0.0,0.0,0.0,0.0,0.0,0.0,0.0,0.0,0.0,0.0,0.0,0.0,0.0,0.0,0.0,0.0,0.0,0.0,0.0,0.0,0.0,0.0,0.0,0.0,0.0,0.0,0.0,0.0,0.0,0.0,0.0,0.0,0.0,0.0,0.0,0.0,0.0,0.0,0.0,0.0,0.0,0.0,0.0,0.0,0.0,0.0,0.0,0.0,0.0,0.0,0.0,0.0,0.0,0.0,0.0,0.0,0.0,0.0,0.0,0.0,0.0,0.0,0.0,0.0,0.0,0.0,0.0,0.0,0.0,0.0,0.0,0.0,0.0,0.0,0.0,0.0,0.0,0.0,0.0,0.0,0.0,0.0,0.0,0.0,0.0,0.0,0.0,0.0,0.0,0.0,0.0,0.0,0.0,0.0,0.0,0.0,0.0,0.0,0.0,0.0,0.0,0.0,0.0,0.0,0.0,0.0,0.0,0.0,0.0,0.0,0.0,0.0,0.0,0.0,0.0,0.0,0.0,0.0,0.0,0.0,0.0,0.0,0.0,0.0,0.0,0.0,0.0,0.0,0.0,0.0,0.0,0.0,0.0,0.0,0.0,0.0,0.0,0.0,0.0,0.0,0.0,0.0,0.0,0.0,0.0,0.0,0.0,0.0,0.0,0.0,0.0,0.0,0.0,0.0,0.0,0.0,0.0,0.0,0.0,0.0,0.0,0.0,0.0,0.0,0.0,0.0,0.0,0.0,0.0,0.0,0.0,0.0,0.0,0.0,0.0,0.0,0.0,0.0,0.0,0.0,0.0,0.0,0.0,0.0,0.0,0.0,0.0,0.0,0.0,0.0,0.0,0.0,0.0,0.0,0.0,0.0,0.0,0.0,0.0,0.0,0.0,0.0,0.0,0.0,0.0,0.0,0.0,0.0,0.0,0.0,0.0,0.0,0.0,0.0,0.0,0.0,0.0,0.0,0.0,0.0,0.0,0.0,0.0,0.0,0.0,0.0,0.0,0.0,0.0,0.0,0.0,0.0,0.0,0.0,0.0,0.0,0.0,0.0,0.0,0.0,0.0,0.0,0.0,0.0,0.0,0.0,0.0,0.0,0.0,0.0,0.0,0.0,0.0,0.0,0.0,0.0,0.0,0.0,0.0,0.0,0.0,0.0,0.0,0.0,0.0,0.0,0.0,0.0,0.0,0.0,0.0,0.0,0.0,0.0,0.0,0.0,0.0,0.0,0.0,0.0,0.0,0.0,0.0,0.0,0.0,0.0,0.0,0.0,0.0,0.0,0.0,0.0,0.0,0.0,0.0,0.0,0.0,0.0,0.0,0.0,0.0,0.0,0.0,0.0,0.0,0.0,0.0,0.0,0.0,0.0,0.0,0.0,0.0,0.0,0.0,0.0,0.0,0.0,0.0,0.0,0.0,0.0,0.0,0.0,0.0,0.0,0.0,0.0,0.0,0.0,0.0,0.0,0.0,0.0,0.0,0.0,0.0,0.0,0.0,0.0,0.0,0.0,0.0,0.0,0.0,0.0,0.0,0.0,0.0,0.0,0.0,0.0,0.0,0.0,0.0,0.0,0.0,0.0,0.0,0.0,0.0,0.0,0.0,0.0,0.0,0.0,-0.2542,0.0,0.0,0.0,0.0,0.0,0.0,0.0,0.0,0.0,0.0,0.0,0.0,0.0,0.0,0.0,0.0,0.0,0.0,0.0,0.0,0.0,0.0,0.0,0.0,0.0,0.0,0.0,0.0,0.0,0.0,0.0,0.0,0.0,0.0,0.0,0.0,0.0,0.0,0.0,0.0,0.0,0.0,0.0,0.0,0.0,0.0,0.0,0.0,0.0,0.0,0.0,0.0,0.0,0.0,0.0,0.0,0.0,0.0,0.0,0.0,0.0,0.0,0.0,0.0,0.0,0.0,0.0,0.0,0.0,0.0,0.0,0.0,0.0,0.0,0.0,0.0,0.0,0.0,0.0,0.0,0.0,0.0,0.0,0.0,0.0,0.0,0.0,0.0,0.0,0.0,0.0,0.0,0.0,0.0,0.0,0.0,0.0,0.0,0.0,0.0,0.0,0.0,0.0,0.0,0.0,0.0,0.0,0.0,0.0,0.0,-0.2075,-0.2464,-0.2893,-0.2893,-0.2542,0.0,0.0,0.0,0.0,0.0,0.0,0.0,0.0,0.0,0.0,0.0,0.0,0.0,0.0,0.0,0.0,0.0,0.0,0.0,0.0,0.0,0.0,0.0,0.0,0.0,0.0,0.0,0.0,0.0,0.0,0.0,0.0,0.0,0.0,0.0,0.0,0.0,0.0,0.0,0.0,0.0,0.0,0.0,0.0,0.0,0.0,0.0,0.0,0.0,0.0,0.0,0.0,0.0,0.0,0.0,0.0,0.0,0.0,0.0,0.0,0.0,0.0,0.0,0.0,0.0,0.0,0.0,0.0,0.0,0.0,0.0,0.0,0.0,0.0,0.0,0.0,0.0,0.0,0.0,0.0,0.0,0.0,0.0,0.0,0.0,0.0,0.0,0.0,0.0,0.0,0.0,0.0,0.0,0.0,0.0,0.0,0.0,0.0,0.0,0.0,0.0,0.0,0.0,0.0,0.0,0.0,0.0,0.0,0.0,0.0,0.0,0.0,-0.2192,-0.2231,-0.2231,0.0,0.0,0.0,0.0,0.0,0.0,0.0,0.0,0.0,0.0,0.0,0.0,0.0,0.0,0.0,0.0,0.0,0.0,0.0,0.0,0.0,0.0,0.0,0.0,0.0,0.0,0.0,0.0,0.0,0.0,0.0,0.0,0.0,0.0,0.0,0.0,0.0,0.0,0.0,0.0,0.0,0.0,0.0,0.0,0.0,0.0,0.0,0.0,0.0,0.0,0.0,0.0,0.0,0.0,0.0,0.0,0.0,0.0,0.0,0.0,0.0,0.0,0.0,0.0,0.0,0.0,0.0,0.0,0.0,0.0,0.0,0.0,0.0,0.0,0.0,0.0,0.0,0.0,0.0,0.0,0.0,0.0,0.0,0.0,0.0,0.0,0.0,0.0,0.0,0.0,0.0,0.0,0.0,0.0,0.0,0.0,0.0,0.0,0.0,0.0,0.0,0.0,0.0,0.0,0.0,0.0,0.0,0.0,0.0,0.0,-0.0078,-0.1018,-0.1293,0.0,-0.1371,0.0,0.0,0.0,0.0,0.0,0.0,0.0,0.0,0.0,0.0,0.0,0.0,0.0,0.0,0.0,0.0,0.0,0.0,0.0,0.0,0.0,0.0,0.0,0.0,0.0,0.0,0.0,0.0,0.0,0.0,0.0,0.0,0.0,0.0,0.0,0.0,0.0,0.0,0.0,0.0,0.0,0.0,0.0,0.0,0.0,0.0,0.0,0.0,0.0,0.0,0.0,0.0,0.0,0.0,0.0,0.0,0.0,0.0,0.0,0.0,0.0,0.0,0.0,0.0,0.0,0.0,0.0,0.0,0.0,0.0,0.0,0.0,0.0,0.0,0.0,0.0,0.0,0.0,0.0,0.0,0.0,0.0,0.0,0.0,0.0,0.0,0.0,0.0,0.0,0.0,0.0,0.0,0.0,0.0,0.0,0.0,0.0,0.0,0.0,0.0,0.0,0.0,0.0,0.0,0.0,0.0,0.0,0.0,0.0,0.0,0.0353,-0.0196,-0.0392,-0.079,0.0,0.0,0.0,0.0,0.0,0.0,0.0,0.0,0.0,0.0,0.0,0.0,0.0,0.0,0.0,0.0,0.0,0.0,0.0,0.0,0.0,0.0,0.0,0.0,0.0,0.0,0.0,0.0,0.0,0.0,0.0,0.0,0.0,0.0,0.0,0.0,0.0,0.0,0.0,0.0,0.0,0.0,0.0,0.0,0.0,0.0,0.0,0.0,0.0,0.0,0.0,0.0,0.0,0.0,0.0,0.0,0.0,0.0,0.0,0.0,0.0,0.0,0.0,0.0,0.0,0.0,0.0,0.0,0.0,0.0,0.0,0.0,0.0,0.0,0.0,0.0,0.0,0.0,0.0,0.0,0.0,0.0,0.0,0.0,0.0,0.0,0.0,0.0,0.0,0.0,0.0,0.0,0.0,0.0,0.0,0.0,0.0,0.0,0.0,0.0,0.0,0.0,0.0,0.0,0.0,0.0,0.0,0.0,0.0,0.0,0.0786,0.0551,0.0317,0.012,-0.0282,-0.0902,0.0,0.0,0.0,0.0,0.0,0.0,0.0,0.0,0.0,0.0,0.0,0.0,0.0,0.0,0.0,0.0,0.0,0.0,0.0,0.0,0.0,0.0,0.0,0.0,0.0,0.0,0.0,0.0,0.0,0.0,0.0,0.0,0.0,0.0,0.0,0.0,0.0,0.0,0.0,0.0,0.0,0.0,0.0,0.0,0.0,0.0,0.0,0.0,0.0,0.0,0.0,0.0,0.0,0.0,0.0,0.0,0.0,0.0,0.0,0.0,0.0,0.0,0.0,0.0,0.0,0.0,0.0,0.0,0.0,0.0,0.0,0.0,0.0,0.0,0.0,0.0,0.0,0.0,0.0,0.0,0.0,0.0,0.0,0.0,0.0,0.0,0.0,0.0,0.0,0.0,0.0,0.0,0.0,0.0,0.0,0.0,0.0,0.0,0.0,0.0,0.0,0.0,0.0,0.0,0.0,0.0,0.0,0.0,0.1258,0.1022,0.0715,0.0325,0.0083,0.0,0.0,0.0,0.0,0.0,0.0,0.0,0.0,0.0,0.0,0.0,0.0,0.0,0.0,0.0,0.0,0.0,0.0,0.0,0.0,0.0,0.0,0.0,0.0,0.0,0.0,0.0,0.0,0.0,0.0,0.0,0.0,0.0,0.0,0.0,0.0,0.0,0.0,0.0,0.0,0.0,0.0,0.0,0.0,0.0,0.0,0.0,0.0,0.0,0.0,0.0,0.0,0.0,0.0,0.0,0.0,0.0,0.0,0.0,0.0,0.0,0.0,0.0,0.0,0.0,0.0,0.0,0.0,0.0,0.0,0.0,0.0,0.0,0.0,0.0,0.0,0.0,0.0,0.0,0.0,0.0,0.0,0.0,0.0,0.0,0.0,0.0,0.0,0.0,0.0,0.0,0.0,0.0,0.0,0.0,0.0,0.0,0.0,0.0,0.0,0.0,0.0,0.0,0.0,0.0,0.0,0.0,0.0,0.0,0.0,0.1286,0.0979,0.0619,0.0374,0.0126,0.0,0.0,0.0,0.0,0.0,0.0,0.0,0.0,0.0,0.0,0.0,0.0,0.0,0.0,0.0,0.0,0.0,0.0,0.0,0.0,0.0,0.0,0.0,0.0,0.0,0.0,0.0,0.0,0.0,0.0,0.0,0.0,0.0,0.0,0.0,0.0,0.0,0.0,0.0,0.0,0.0,0.0,0.0,0.0,0.0,0.0,0.0,0.0,0.0,0.0,0.0,0.0,0.0,0.0,0.0,0.0,0.0,0.0,0.0,0.0,0.0,0.0,0.0,0.0,0.0,0.0,0.0,0.0,0.0,0.0,0.0,0.0,0.0,0.0,0.0,0.0,0.0,0.0,0.0,0.0,0.0,0.0,0.0,0.0,0.0,0.0,0.0,0.0,0.0,0.0,0.0,0.0,0.0,0.0,0.0,0.0,0.0,0.0,0.0,0.0,0.0,0.0,0.0,0.0,0.0,0.0,0.0,0.0,0.0,0.0,0.1276,0.0,0.0639,0.0468,0.0171,0.0,0.0,0.0,0.0,0.0,0.0,0.0,0.0,0.0,0.0,0.0,0.0,0.0,0.0,0.0,0.0,0.0,0.0,0.0,0.0,0.0,0.0,0.0,0.0,0.0,0.0,0.0,0.0,0.0,0.0,0.0,0.0,0.0,0.0,0.0,0.0,0.0,0.0,0.0,0.0,0.0,0.0,0.0,0.0,0.0,0.0,0.0,0.0,0.0,0.0,0.0,0.0,0.0,0.0,0.0,0.0,0.0,0.0,0.0,0.0,0.0,0.0,0.0,0.0,0.0,0.0,0.0,0.0,0.0,0.0,0.0,0.0,0.0,0.0,0.0,0.0,0.0,0.0,0.0,0.0,0.0,0.0,0.0,0.0,0.0,0.0,0.0,0.0,0.0,0.0,0.0,0.0,0.0,0.0,0.0,0.0,0.0,0.0,0.0,0.0,0.0,0.0,0.0,0.0,0.0,0.0,0.0,0.0,0.0,0.1318,0.1305,0.0904,0.0697,0.0654,0.0222,0.0,0.0,0.0,0.0,0.0,0.0,0.0,0.0,0.0,0.0,0.0,0.0,0.0,0.0,0.0,0.0,0.0,0.0,0.0,0.0,0.0,0.0,0.0,0.0,0.0,0.0,0.0,0.0,0.0,0.0,0.0,0.0,0.0,0.0,0.0,0.0,0.0,0.0,0.0,0.0,0.0,0.0,0.0,0.0,0.0,0.0,0.0,0.0,0.0,0.0,0.0,0.0,0.0,0.0,0.0,0.0,0.0,0.0,0.0,0.0,0.0,0.0,0.0,0.0,0.0,0.0,0.0,0.0,0.0,0.0,0.0,0.0,0.0,0.0,0.0,0.0,0.0,0.0,0.0,0.0,0.0,0.0,0.0,0.0,0.0,0.0,0.0,0.0,0.0,0.0,0.0,0.0,0.0,0.0,0.0,0.0,0.0,0.0,0.0,0.0,0.0,0.0,0.0,0.0,0.0,0.0,0.0,0.0,0.0,0.0,0.1077,0.0835,0.0622,0.0489,0.0179,0.0,0.0,0.0,0.0,0.0,0.0,0.0,0.0,0.0,0.0,0.0,0.0,0.0,0.0,0.0,0.0,0.0,0.0,0.0,0.0,0.0,0.0,0.0,0.0,0.0,0.0,0.0,0.0,0.0,0.0,0.0,0.0,0.0,0.0,0.0,0.0,0.0,0.0,0.0,0.0,0.0,0.0,0.0,0.0,0.0,0.0,0.0,0.0,0.0,0.0,0.0,0.0,0.0,0.0,0.0,0.0,0.0,0.0,0.0,0.0,0.0,0.0,0.0,0.0,0.0,0.0,0.0,0.0,0.0,0.0,0.0,0.0,0.0,0.0,0.0,0.0,0.0,0.0,0.0,0.0,0.0,0.0,0.0,0.0,0.0,0.0,0.0,0.0,0.0,0.0,0.0,0.0,0.0,0.0,0.0,0.0,0.0,0.0,0.0,0.0,0.0,0.0,0.0,0.0,0.0,0.0,0.0,0.0,0.0,0.0,0.2065,0.1247,0.0762,0.0538,0.0269,0.009,0.0,0.0,0.0,0.0,0.0,0.0,0.0,0.0,0.0,0.0,0.0,0.0,0.0,0.0,0.0,0.0,0.0,0.0,0.0,0.0,0.0,0.0,0.0,0.0,0.0,0.0,0.0,0.0,0.0,0.0,0.0,0.0,0.0,0.0,0.0,0.0,0.0,0.0,0.0,0.0,0.0,0.0,0.0,0.0,0.0,0.0,0.0,0.0,0.0,0.0,0.0,0.0,0.0,0.0,0.0,0.0,0.0,0.0,0.0,0.0,0.0,0.0,0.0,0.0,0.0,0.0,0.0,0.0,0.0,0.0,0.0,0.0,0.0,0.0,0.0,0.0,0.0,0.0,0.0,0.0,0.0,0.0,0.0,0.0,0.0,0.0,0.0,0.0,0.0,0.0,0.0,0.0,0.0,0.0,0.0,0.0,0.0,0.0,0.0,0.0,0.0,0.0,0.0,0.0,0.0,0.0,0.0,0.0,0.0,0.3929,0.2193,0.1165,0.0896,0.0628,0.0359,0.0,0.0,0.0,0.0,0.0,0.0,0.0,0.0,0.0,0.0,0.0,0.0,0.0,0.0,0.0,0.0,0.0,0.0,0.0,0.0,0.0,0.0,0.0,0.0,0.0,0.0,0.0,0.0,0.0,0.0,0.0,0.0,0.0,0.0,0.0,0.0,0.0,0.0,0.0,0.0,0.0,0.0,0.0,0.0,0.0,0.0,0.0,0.0,0.0,0.0,0.0,0.0,0.0,0.0,0.0,0.0,0.0,0.0,0.0,0.0,0.0,0.0,0.0,0.0,0.0,0.0,0.0,0.0,0.0,0.0,0.0,0.0,0.0,0.0,0.0,0.0,0.0,0.0,0.0,0.0,0.0,0.0,0.0,0.0,0.0,0.0,0.0,0.0,0.0,0.0,0.0,0.0,0.0,0.0,0.0,0.0,0.0,0.0,0.0,0.0,0.0,0.0,0.0,0.0,0.0,0.0,0.0,0.0,0.0,0.4154,0.3708,0.3263,0.2814,0.1923,0.1388,0.0,0.0,0.0,0.0,0.0,0.0,0.0,0.0,0.0,0.0,0.0,0.0,0.0,0.0,0.0,0.0,0.0,0.0,0.0,0.0,0.0,0.0,0.0,0.0,0.0,0.0,0.0,0.0,0.0,0.0,0.0,0.0,0.0,0.0,0.0,0.0,0.0,0.0,0.0,0.0,0.0,0.0,0.0,0.0,0.0,0.0,0.0,0.0,0.0,0.0,0.0,0.0,0.0,0.0,0.0,0.0,0.0,0.0,0.0,0.0,0.0,0.0,0.0,0.0,0.0,0.0,0.0,0.0,0.0,0.0,0.0,0.0,0.0,0.0,0.0,0.0,0.0,0.0,0.0,0.0,0.0,0.0,0.0,0.0,0.0,0.0,0.0,0.0,0.0,0.0,0.0,0.0,0.0,0.0,0.0,0.0,0.0,0.0,0.0,0.0,0.0,0.0,0.0,0.0,0.0,0.0,0.0,0.0,0.4158,0.5445,0.5489,0.5354,0.5085,0.3527,0.2416,0.0,0.0,0.0,0.0,0.0,0.0,0.0,0.0,0.0,0.0,0.0,0.0,0.0,0.0,0.0,0.0,0.0,0.0,0.0,0.0,0.0,0.0,0.0,0.0,0.0,0.0,0.0,0.0,0.0,0.0,0.0,0.0,0.0,0.0,0.0,0.0,0.0,0.0,0.0,0.0,0.0,0.0,0.0,0.0,0.0,0.0,0.0,0.0,0.0,0.0,0.0,0.0,0.0,0.0,0.0,0.0,0.0,0.0,0.0,0.0,0.0,0.0,0.0,0.0,0.0,0.0,0.0,0.0,0.0,0.0,0.0,0.0,0.0,0.0,0.0,0.0,0.0,0.0,0.0,0.0,0.0,0.0,0.0,0.0,0.0,0.0,0.0,0.0,0.0,0.0,0.0,0.0,0.0,0.0,0.0,0.0,0.0,0.0,0.0,0.0,0.0,0.0,0.0,0.0,0.0,0.0,0.0,0.0,0.5312,0.7051,0.7095,0.7095,0.7051,0.5132,0.3395,0.0,0.0,0.0,0.0,0.0,0.0,0.0,0.0,0.0,0.0,0.0,0.0,0.0,0.0,0.0,0.0,0.0,0.0,0.0,0.0,0.0,0.0,0.0,0.0,0.0,0.0,0.0,0.0,0.0,0.0,0.0,0.0,0.0,0.0,0.0,0.0,0.0,0.0,0.0,0.0,0.0,0.0,0.0,0.0,0.0,0.0,0.0,0.0,0.0,0.0,0.0,0.0,0.0,0.0,0.0,0.0,0.0,0.0,0.0,0.0,0.0,0.0,0.0,0.0,0.0,0.0,0.0,0.0,0.0,0.0,0.0,0.0,0.0,0.0,0.0,0.0,0.0,0.0,0.0,0.0,0.0,0.0,0.0,0.0,0.0,0.0,0.0,0.0,0.0,0.0,0.0,0.0,0.0,0.0,0.0,0.0,0.0,0.0,0.0,0.0,0.0,0.0,0.0,0.0,0.0,0.0,0.0,0.0,0.5941,0.7051,0.7095,0.7095,0.7095,0.5805,0.4508,0.0,0.0,0.0,0.0,0.0,0.0,0.0,0.0,0.0,0.0,0.0,0.0,0.0,0.0,0.0,0.0,0.0,0.0,0.0,0.0,0.0,0.0,0.0,0.0,0.0,0.0,0.0,0.0,0.0,0.0,0.0,0.0,0.0,0.0,0.0,0.0,0.0,0.0,0.0,0.0,0.0,0.0,0.0,0.0,0.0,0.0,0.0,0.0,-0.5822,0.0,0.0,0.0,0.0,0.0,0.0,0.0,0.0,0.0,0.0,0.0,0.0,0.0,0.0,0.0,0.0,0.0,0.0,0.0,0.0,0.0,0.0,0.0,0.0,0.0,0.0,0.0,0.0,0.0,0.0,0.0,0.0,0.0,0.0,0.0,0.0,0.0,0.0,0.0,0.0,0.0,0.0,0.0,0.0,0.0,0.0,0.0,0.0,0.0,0.0,0.0,0.0,0.0,0.0,0.0,0.0,0.0,0.0,0.0,0.6166,0.7051,0.7095,0.7095,0.7095,0.6517,0.5578,0.0,0.0,0.0,0.0,0.0,0.0,0.0,0.0,0.0,0.0,0.0,0.0,0.0,0.0,0.0,0.0,0.0,0.0,0.0,0.0,0.0,0.0,0.0,0.0,0.0,0.0,0.0,0.0,0.0,0.0,0.0,0.0,0.0,0.0,0.0,0.0,0.0,0.0,0.0,0.0,0.0,0.0,0.0,0.0,0.0,0.0,0.0,0.0,0.0,0.0,0.0,0.0,0.0,0.0,0.0,0.0,0.0,0.0,0.0,0.0,0.0,0.0,0.0,0.0,0.0,0.0,0.0,0.0,0.0,0.0,0.0,0.0,0.0,0.0,0.0,0.0,0.0,0.0,0.0,0.0,0.0,0.0,0.0,0.0,0.0,0.0,0.0,0.0,0.0,0.0,0.0,0.0,0.0,0.0,0.0,0.0,0.0,0.0,0.0,0.0,0.0,0.0,0.0,0.0,0.0,0.0,0.0,0.5941,0.6296,0.7051,0.7095,0.7095,0.7095,0.7095,0.6514,0.5312,0.0,0.0,0.0,0.0,0.0,0.0,0.0,0.0,0.0,0.0,0.0,0.0,0.0,0.0,0.0,0.0,0.0,0.0,0.0,0.0,0.0,0.0,0.0,0.0,0.0,0.0,0.0,0.0,0.0,0.0,0.0,0.0,0.0,0.0,0.0,0.0,0.0,0.0,-0.4705,-0.4848,0.0,0.0,0.0,0.0,0.0,0.0,0.0,0.0,-0.5777,0.0,0.0,0.0,0.0,0.0,0.0,0.0,0.0,0.0,0.0,0.0,0.0,0.0,0.0,0.0,0.0,0.0,0.0,0.0,0.0,0.0,0.0,0.0,0.0,0.0,0.0,0.0,0.0,0.0,0.0,0.0,0.0,0.0,0.0,0.0,0.0,0.0,0.0,0.0,0.0,0.0,0.0,0.0,0.0,0.0,0.0,0.0,0.0,0.0,0.0,0.0,0.0,0.0,0.0,0.0,0.0,0.719,0.6966,0.6918,0.7095,0.7095,0.7095,0.7095,0.7095,0.6922,0.6479,0.0,0.0,0.0,0.0,0.0,0.0,0.0,0.0,0.0,0.0,0.0,0.0,0.0,0.0,0.0,0.0,0.0,0.0,0.0,0.0,0.0,0.0,0.0,0.0,0.0,0.0,0.0,0.0,0.0,0.0,0.0,0.0,0.0,0.0,0.0,0.0,0.0,0.0,0.0,-0.4777,-0.4835,0.0,0.0,0.0,0.0,0.0,0.0,0.0,0.0,-0.5574,0.0,0.0,0.0,0.0,0.0,0.0,0.0,0.0,0.0,0.0,0.0,0.0,0.0,0.0,0.0,0.0,0.0,0.0,0.0,0.0,0.0,0.0,0.0,0.0,0.0,0.0,0.0,0.0,0.0,0.0,0.0,0.0,0.0,0.0,0.0,0.0,0.0,0.0,0.0,0.0,0.0,0.0,0.0,0.0,0.0,0.0,0.0,0.0,0.0,0.0,0.0,0.0,0.0,0.0,0.0,0.7507,0.737,0.7231,0.7095,0.7095,0.7095,0.7095,0.7095,0.7054,0.0,0.0,0.0,0.0,0.0,0.0,0.0,0.0,0.0,0.0,0.0,0.0,0.0,0.0,0.0,0.0,0.0,0.0,0.0,0.0,0.0,0.0,0.0,0.0,0.0,0.0,0.0,0.0,0.0,0.0,0.0,0.0,0.0,0.0,0.0,0.0,0.0,0.0,0.0,0.0,-0.4635,-0.4759,-0.4948,0.0,0.0,0.0,0.0,0.0,0.0,-0.5756,-0.557,0.0,0.0,0.0,0.0,0.0,0.0,0.0,0.0,0.0,0.0,0.0,0.0,0.0,0.0,0.0,0.0,0.0,0.0,0.0,0.0,0.0,0.0,0.0,0.0,0.0,0.0,0.0,0.0,0.0,0.0,0.0,0.0,0.0,0.0,0.0,0.0,0.0,0.0,0.0,0.0,0.0,0.0,0.0,0.0,0.0,0.0,0.0,0.0,0.0,0.0,0.0,0.0,0.0,0.0,0.0,0.7591,0.7595,0.7459,0.7187,0.7187,0.7187,0.7187,0.7139,0.7139,0.0,0.0,0.0,0.0,0.0,0.0,0.0,0.0,0.0,0.0,0.0,0.0,0.0,0.0,0.0,0.0,0.0,0.0,0.0,0.0,0.0,0.0,0.0,0.0,0.0,0.0,0.0,0.0,0.0,0.0,0.0,0.0,0.0,0.0,0.0,0.0,0.0,0.0,0.0,0.0,0.0,-0.4382,-0.4643,-0.4765,0.0,0.0,0.0,0.0,-0.6079,-0.5726,0.0,0.0,0.0,0.0,0.0,0.0,0.0,0.0,0.0,0.0,0.0,0.0,0.0,0.0,0.0,0.0,0.0,0.0,0.0,0.0,0.0,0.0,0.0,0.0,0.0,0.0,0.0,0.0,0.0,0.0,0.0,0.0,0.0,0.0,0.0,0.0,0.0,0.0,0.0,0.0,0.0,0.0,0.0,0.0,0.0,0.0,0.0,0.0,0.0,0.0,0.0,0.0,0.0,0.0,0.0,0.0,0.7856,0.7856,0.7724,0.7459,0.7459,0.7459,0.7459,0.7231,0.7231,0.0,0.0,0.0,0.0,0.0,0.0,0.0,0.0,0.0,0.0,0.0,0.0,0.0,0.0,0.0,0.0,0.0,0.0,0.0,0.0,0.0,0.0,0.0,0.0,0.0,0.0,0.0,0.0,0.0,0.0,0.0,0.0,0.0,0.0,0.0,0.0,0.0,0.0,0.0,0.0,0.0,-0.3272,-0.3328,-0.3577,-0.382,0.0,0.0,-0.5293,-0.5552,-0.5366,0.0,0.0,0.0,0.0,0.0,0.0,0.0,0.0,0.0,0.0,0.0,0.0,0.0,0.0,0.0,0.0,0.0,0.0,0.0,0.0,0.0,0.0,0.0,0.0,0.0,0.0,0.0,0.0,0.0,0.0,0.0,0.0,0.0,0.0,0.0,0.0,0.0,0.0,0.0,0.0,0.0,0.0,0.0,0.0,0.0,0.0,0.0,0.0,0.0,0.0,0.0,0.0,0.0,0.0,0.0,0.9074,0.8894,0.941,0.9274,0.85,0.8372,0.8324,0.8456,0.7716,0.7628,0.0,0.0,0.0,0.0,0.0,0.0,0.0,0.0,0.0,0.0,0.0,0.0,0.0,0.0,0.0,0.0,0.0,0.0,0.0,0.0,0.0,0.0,0.0,0.0,0.0,0.0,0.0,0.0,0.0,0.0,0.0,0.0,0.0,0.0,0.0,0.0,0.0,0.0,0.0,0.0,0.0,0.0,-0.3184,-0.3307,0.0,0.0,0.0,-0.5074,-0.548,0.0,0.0,0.0,0.0,0.0,0.0,0.0,0.0,0.0,0.0,0.0,0.0,0.0,0.0,0.0,0.0,0.0,0.0,0.0,0.0,0.0,0.0,0.0,0.0,0.0,0.0,0.0,0.0,0.0,0.0,0.0,0.0,0.0,0.0,0.0,0.0,0.0,0.0,0.0,0.0,0.0,0.0,0.0,0.0,0.0,0.0,0.0,0.0,0.0,0.0,0.0,0.0,0.0,0.0,0.0,0.0,0.0,1.0019,1.0702,1.0616,0.9662,0.9497,0.9492,0.9623,0.8759,0.0,0.0,0.0,0.0,0.0,0.0,0.0,0.0,0.0,0.0,0.0,0.0,0.0,0.0,0.0,0.0,0.0,0.0,0.0,0.0,0.0,0.0,0.0,0.0,0.0,0.0,0.0,0.3667,0.0,0.0,0.0,0.0,0.0,0.0,0.0,0.0,0.0,0.0,0.0,0.0,0.0,0.0,-0.2417,-0.2417,-0.2367,-0.2568,0.0,0.0,-0.4632,-0.5284,-0.5176,-0.5123,0.0,0.0,0.0,0.0,0.0,0.0,0.0,0.0,0.0,0.0,0.0,0.0,0.0,0.0,0.0,0.0,0.0,0.0,0.0,0.0,0.0,0.0,0.0,0.0,0.0,0.0,0.0,0.0,0.0,0.0,0.0,0.0,0.0,0.0,0.0,0.0,0.0,0.0,0.0,0.0,0.0,0.0,0.0,0.0,0.0,0.0,0.0,0.0,0.0,0.0,0.0,0.0,0.0,0.0,1.0332,1.1149,1.1235,1.1144,1.0918,1.0875,1.0875,1.0869,1.0567,1.0009,0.0,0.0,0.0,0.0,0.0,0.0,0.0,0.0,0.0,0.0,0.0,0.0,0.0,0.0,0.0,0.0,0.0,0.0,0.0,0.0,0.0,0.0,0.0,0.0,0.0,0.0,0.0,0.0,0.0,0.0,0.0,0.0,0.0,0.0,0.0,0.0,0.0,0.0,0.0,0.0,0.0,-0.0202,-0.0202,-0.0202,-0.0605,0.0,-0.262,-0.3676,-0.4682,-0.483,-0.4897,-0.5107,0.0,0.0,0.0,0.0,0.0,0.0,0.0,0.0,0.0,0.0,0.0,0.0,0.0,0.0,0.0,0.0,0.0,0.0,0.0,0.0,0.0,0.0,0.0,0.0,0.0,0.0,0.0,0.0,0.0,0.0,0.0,0.0,0.0,0.0,0.0,0.0,0.0,0.0,0.0,0.0,0.0,0.0,0.0,0.0,0.0,0.0,0.0,0.0,0.0,0.0,0.0,0.0,0.0,1.18,1.2143,1.2747,1.2705,1.2046,1.1906,1.1858,1.2052,1.1262,1.0913,0.0,0.0,0.0,0.0,0.0,0.0,0.0,0.0,0.0,0.0,0.0,0.0,0.0,0.0,0.0,0.0,0.0,0.0,0.0,0.0,0.0,0.0,0.0,0.0,0.0,0.0,0.0,0.0,0.4251,0.3762,0.3004,0.0,0.0,0.0,0.0,0.0,0.0,0.0,0.0,0.0,0.0,0.0202,0.0,0.0,0.0,0.0,-0.2065,-0.3324,-0.3776,-0.4381,-0.4822,-0.4889,-0.4888,0.0,0.0,0.0,0.0,0.0,0.0,0.0,0.0,0.0,0.0,0.0,0.0,0.0,0.0,0.0,0.0,0.0,0.0,0.0,0.0,0.0,0.0,0.0,0.0,0.0,0.0,0.0,0.0,0.0,0.0,0.0,0.0,0.0,0.0,0.0,0.0,0.0,0.0,0.0,0.0,0.0,0.0,0.0,0.0,0.0,0.0,0.0,0.0,0.0,0.0,0.0,0.0,1.2833,1.3094,1.3737,1.3786,1.3137,1.2948,1.2948,1.3088,1.2345,1.2035,0.0,0.0,0.0,0.0,0.0,0.0,0.0,0.0,0.0,0.0,0.0,0.0,0.0,0.0,0.0,0.0,0.0,0.0,0.0,0.0,0.0,0.0,0.0,0.0,0.0,0.0,0.0,0.0,0.5055,0.4164,0.2782,0.0,0.0,0.0,0.0,0.0,0.0,0.0,0.0,0.0,0.0,0.0807,0.0504,0.0454,0.0353,0.005,-0.1562,-0.282,-0.3175,-0.3827,-0.4431,-0.4732,0.0,0.0,0.0,0.0,0.0,0.0,0.0,0.0,0.0,0.0,0.0,0.0,0.0,0.0,0.0,0.0,0.0,0.0,0.0,0.0,0.0,0.0,0.0,0.0,0.0,0.0,0.0,0.0,0.0,0.0,2.0489,0.0,0.0,0.0,0.0,0.0,0.0,0.0,0.0,0.0,0.0,0.0,0.0,0.0,0.0,0.0,0.0,0.0,0.0,0.0,0.0,0.0,0.0,1.3179,1.4039,1.4088,1.4088,1.4046,1.4088,1.4039,1.4046,1.4039,1.3512,1.237,0.0,0.0,0.0,0.0,0.0,0.0,0.0,0.0,0.0,0.0,0.0,0.0,0.0,0.0,0.0,0.0,0.0,0.0,0.0,0.0,0.0,0.0,0.0,0.0,0.0,0.0,0.8388,0.6786,0.4921,0.0,0.0,0.0,0.0,0.0,0.0,0.0,0.0,0.0,0.0,0.1971,0.1869,0.1617,0.1566,0.1161,0.0202,-0.0907,-0.1965,-0.2972,-0.3224,-0.3577,0.0,0.0,0.0,0.0,0.0,0.0,0.0,0.0,0.0,0.0,0.0,0.0,0.0,0.0,0.0,0.0,0.0,0.0,0.0,0.0,0.0,0.0,0.0,0.0,0.0,0.0,0.0,2.1098,2.1489,0.0,0.0,0.0,0.0,0.0,0.0,0.0,0.0,0.0,0.0,0.0,1.8037,1.8607,0.0,0.0,0.0,0.0,0.0,0.0,0.0,0.0,0.0,0.0,0.0,0.0,1.3977,1.4279,1.4412,1.4447,1.4314,1.4321,1.4243,1.4088,1.4088,1.3913,1.3512,0.0,0.0,0.0,0.0,0.0,0.0,0.0,0.0,0.0,0.0,0.0,0.0,0.0,0.0,0.0,0.0,0.0,0.0,0.0,0.0,0.0,0.0,0.0,0.0,0.0,0.8344,0.0,0.0,0.0,0.0,0.0,0.0,0.0,0.0,0.0,0.0,0.0,0.2569,0.2316,0.2424,0.2424,0.217,0.1969,0.1718,0.0,0.0,0.0,0.0,0.0,0.0,0.0,0.0,0.0,0.0,0.0,0.0,0.0,0.0,-0.5129,-0.6317,-0.677,-0.7383,-0.8532,0.0,0.0,0.0,0.0,0.0,0.0,0.0,0.0,0.0,0.0,0.0,0.0,0.0,0.0,2.2069,0.0,2.2021,0.0,0.0,0.0,0.0,0.0,0.0,0.0,0.0,1.9981,1.9657,1.9125,1.9608,1.9578,0.0,1.8798,1.8278,0.0,0.0,0.0,0.0,0.0,0.0,0.0,0.0,1.497,1.497,1.5103,1.4936,1.4524,1.4475,1.444,1.4328,1.4286,1.4292,1.4286,1.4328,1.4334,0.0,0.0,0.0,0.0,0.0,0.0,0.0,0.0,0.0,0.0,0.0,0.0,0.0,0.0,0.0,0.0,0.0,0.0,0.0,0.0,0.0,0.0,0.0,0.8679,0.0,0.0,0.0,0.0,0.0,0.0,0.0,0.0,0.0,0.2697,0.2791,0.2836,0.2568,0.2675,0.2725,0.2422,0.0,0.0,0.0,0.0,0.0,0.0,0.0,-0.1863,-0.1511,-0.1813,-0.2307,-0.3022,-0.3652,-0.4229,-0.4758,0.0,0.0,-0.5679,-0.609,-0.6608,-0.7397,-0.8479,-0.9302,-0.9445,-1.0203,-1.0842,0.0,0.0,0.0,0.0,0.0,0.0,0.0,0.0,2.3514,2.3478,0.0,2.3478,0.0,0.0,0.0,0.0,0.0,2.0906,0.0,0.0,2.1167,2.1215,2.1167,2.0984,2.0906,2.0906,2.0693,2.0167,1.9301,1.8029,0.0,0.0,0.0,0.0,0.0,0.0,1.6034,1.6075,1.6075,1.567,1.4859,1.4776,1.4734,1.4692,1.4692,1.4692,1.4692,1.4692,1.4692,1.4692,1.4524,0.0,0.0,0.0,0.0,0.0,0.0,0.0,0.0,0.0,0.0,0.0,0.0,0.0,0.0,0.0,0.0,0.0,0.0,0.0,0.0,1.0269,0.0,0.0,0.0,0.0,0.0,0.0,0.0,0.0,0.0,0.0,0.3526,0.3241,0.3128,0.2923,0.0,0.0,0.0,0.0,0.2418,0.2418,0.151,0.0855,0.0855,0.0553,0.005,-0.0904,0.0,0.0,-0.2719,-0.3075,-0.3431,-0.4465,-0.4596,-0.4647,-0.4791,-0.5545,-0.6136,-0.632,-0.7501,-0.845,-0.8594,-0.9234,-0.9963,2.7481,0.0,0.0,0.0,0.0,2.3349,2.3708,2.4528,2.3975,2.4036,2.4528,2.3963,0.0,0.0,0.0,0.0,0.0,0.0,2.1138,2.1215,2.1215,2.1215,2.1215,2.1128,2.1089,2.1089,2.1051,2.0886,2.0654,2.0137,1.8638,1.6345,0.0,0.0,0.0,0.0,1.7212,1.7212,1.7342,1.722,1.6838,1.6255,1.5519,1.4734,1.4692,1.4692,1.4692,1.4692,1.4692,1.4692,1.465,0.0,0.0,0.0,0.0,0.0,0.0,0.0,0.0,0.0,0.0,0.0,0.0,0.0,0.0,0.0,0.0,0.0,0.0,0.0,0.9297,1.0028,0.998,0.0,0.0,0.0,0.0,0.0,0.0,0.0,0.0,0.0,0.5377,0.4728,0.431,0.0,0.0,0.3013,0.2923,0.2719,0.262,0.262,0.2152,0.0,0.1794,0.1113,0.0729,0.1231,0.0899,0.0252,-0.0755,-0.2005,-0.3047,-0.3548,-0.423,-0.4732,-0.4745,-0.4907,-0.5109,-0.5326,-0.6103,-0.681,-0.7008,-0.7996,-0.9014,2.9046,2.7746,2.6282,2.5422,2.5004,2.4655,2.4931,2.5558,2.5063,2.5146,2.5581,2.5111,2.4588,2.4072,2.3672,0.0,0.0,0.0,2.2117,2.1911,2.1921,2.1731,2.1474,2.1359,2.132,2.132,2.1244,2.1215,2.1215,2.0984,1.9814,1.7755,0.0,0.0,1.7342,1.7989,1.831,1.8318,1.8439,1.8287,1.7827,1.731,1.6706,1.6041,1.6,1.5835,1.5511,1.547,1.5311,1.4992,1.4908,1.4753,0.0,0.0,0.0,0.0,0.0,0.0,0.0,0.0,0.0,0.0,0.0,1.1178,1.1122,0.0,0.0,0.0,1.1219,1.0842,1.0971,1.1488,0.0,0.0,0.0,0.0,0.0,0.0,0.0,0.757,0.7536,0.7525,0.7477,0.6534,0.5533,0.4747,0.4109,0.3584,0.3156,0.0,0.2861,0.286,0.2689,0.2574,0.2527,0.1905,0.1577,0.2178,0.1761,0.1088,0.0349,-0.0697,-0.1747,-0.2814,-0.3575,-0.4155,-0.4624,-0.4663,-0.4633,-0.4644,-0.5191,-0.564,-0.5777,-0.6733,-0.7705,2.9854,2.9765,2.8462,2.7341,2.6347,2.6287,2.638,2.6562,2.6562,2.6537,2.6487,2.6487,2.5978,2.5075,2.4084,0.0,2.3938,2.3843,2.3511,2.3001,2.3001,2.2542,2.1807,2.1617,2.1512,2.1512,2.131,2.1244,2.1244,2.1061,2.0537,1.9766,1.9529,1.9381,1.9301,1.9341,1.942,1.9371,1.942,1.8975,1.8118,1.8118,1.8078,1.7997,1.7997,1.7626,1.6862,1.6821,1.637,1.5511,1.5296,1.4938,1.4345,0.0,0.0,0.0,0.0,0.0,0.0,0.0,0.0,0.0,0.0,0.0,0.0,0.0,0.0,0.0,1.3178,0.0,1.3971,1.3795,0.0,0.0,0.0,1.04,0.9538,0.9544,0.9623,0.9533,0.0,0.0,0.9397,0.8361,0.6898,0.5009,0.4645,0.4275,0.3325,0.3229,0.3185,0.309,0.3084,0.3081,0.2977,0.2746,0.2468,0.2284,0.224,0.1923,0.1071,0.0685,-0.0197,-0.2093,-0.2655,-0.3187,-0.4456,-0.4615,-0.4574,-0.4436,-0.4699,-0.4922,-0.4973,-0.5577,-0.631,3.0419,3.033,2.961,2.891,2.8189,2.7779,2.7451,2.7105,2.7128,2.6889,2.6487,2.6487,2.6336,2.6094,2.5264,2.4898,2.4933,2.4301,2.3647,2.3038,2.3001,2.2553,2.1807,2.1759,2.1731,2.1731,2.1655,2.1655,2.1655,2.1474,2.1233,2.1069,2.0838,2.0255,1.9341,1.9971,2.0284,2.0294,2.0284,1.9893,1.9015,1.8975,1.8687,1.8037,1.7997,1.7917,1.7715,1.7666,1.7178,1.6077,1.5981,1.5747,1.5312,1.4408,0.0,0.0,0.0,0.0,0.0,0.0,0.0,0.0,0.0,1.3065,1.2894,0.0,1.3207,0.0,1.4601,1.4391,1.2881,1.3311,0.0,0.0,1.1957,1.1585,1.0834,1.0765,1.054,0.9813,0.9714,0.9641,0.9503,0.9067,0.8276,0.6943,0.6045,0.5193,0.4239,0.4088,0.3812,0.3208,0.3039,0.2961,0.2968,0.2906,0.2794,0.2519,0.2738,0.2626,0.1966,0.1295,0.0528,-0.0578,-0.1591,-0.2777,-0.4237,-0.4171,-0.4004,-0.417,-0.4309,-0.4348,-0.4207,-0.4634,-0.5315,3.116,3.1189,3.0461,3.0006,2.9719,2.8812,2.816,2.7657,2.7657,2.7469,2.7203,2.6964,2.6725,2.6465,2.6025,2.5838,2.5804,2.5358,2.4755,2.4009,2.3644,2.3091,2.2327,2.1949,2.1807,2.1807,2.1807,2.1807,2.1769,2.1578,2.1502,2.1502,2.132,2.0848,2.0216,2.0644,2.0809,2.0605,2.0615,2.0372,1.9893,1.9893,1.9657,1.9195,1.9164,1.8876,1.8272,1.8272,1.753,1.6046,1.5944,1.5746,1.5405,1.4803,1.486,0.0,0.0,0.0,0.0,0.0,0.0,0.0,0.0,0.0,0.0,0.0,1.4044,1.4684,1.502,1.4759,1.3776,1.4132,1.409,1.319,1.3114,1.2768,1.1936,1.1888,1.1486,1.0601,1.0381,1.0119,0.9611,0.9371,0.9021,0.8384,0.7769,0.6843,0.5332,0.4953,0.4639,0.3734,0.3522,0.3365,0.2964,0.2944,0.2875,0.2788,0.2905,0.2887,0.2582,0.2209,0.1506,0.0332,-0.0614,-0.1679,-0.3246,-0.3451,-0.333,-0.3452,-0.367,-0.3802,-0.3879,-0.4106,-0.454,3.2028,3.2098,3.1175,3.083,3.0784,2.9668,2.8787,2.821,2.821,2.8172,2.8072,2.7607,2.7153,2.67,2.6625,2.66,2.66,2.6512,2.6072,2.5276,2.4564,2.3841,2.3102,2.2429,2.209,2.209,2.1987,2.1949,2.1911,2.1703,2.154,2.154,2.1359,2.1282,2.1244,2.1244,2.1089,2.0683,2.0644,2.0644,2.0644,2.0644,2.0644,2.0644,2.0585,2.0024,1.8897,1.8756,1.7872,1.6068,1.5929,1.5767,1.541,1.5312,1.5538,0.0,1.5305,0.0,0.0,0.0,0.0,0.0,0.0,0.0,0.0,1.4291,1.4604,1.4871,1.4936,1.5082,1.536,1.5389,1.5082,1.4356,1.4272,1.388,1.3021,1.2887,1.251,1.158,1.1241,1.0722,0.9956,0.9563,0.9349,0.9257,0.9187,0.84,0.6653,0.608,0.5594,0.4654,0.4387,0.39,0.3142,0.2921,0.2877,0.2876,0.2882,0.2936,0.294,0.2939,0.2442,0.112,0.0461,-0.0362,-0.1953,-0.2481,-0.2633,-0.2657,-0.2958,-0.3318,-0.3672,-0.3818,-0.4001,3.2713,3.2662,3.1881,3.1318,3.0899,3.0645,2.9858,2.8737,2.8725,2.8487,2.8097,2.7984,2.7896,2.7758,2.7331,2.7165,2.7105,2.67,2.6072,2.5312,2.5123,2.4636,2.3902,2.3756,2.3694,2.361,2.3054,2.2777,2.2777,2.2073,2.1769,2.1731,2.1693,2.1589,2.1464,0.0,0.0,0.0,2.0935,2.0829,2.0867,2.0829,2.0829,2.0819,2.0625,0.0,2.0147,1.9775,1.8962,1.7713,1.7641,0.0,0.0,0.0,0.0,0.0,0.0,0.0,0.0,0.0,0.0,0.0,1.4836,1.4403,1.3712,1.4166,1.4604,1.4878,1.5133,1.5316,1.5382,1.5389,1.534,1.5173,1.5131,1.4783,1.3971,1.3837,1.3493,1.2553,1.1746,1.1198,1.089,1.0164,0.9563,0.9563,0.9388,0.9126,0.8684,0.7753,0.6823,0.5894,0.4964,0.3987,0.3053,0.292,0.292,0.292,0.292,0.2924,0.2929,0.2849,0.2819,0.226,0.1781,0.0765,-0.0791,-0.1237,-0.1633,-0.2343,-0.2568,-0.2764,-0.3161,-0.3544,-0.396,3.3927,0.0,3.27,3.2263,0.0,3.1339,3.066,3.0024,2.9644,2.9114,2.8524,2.8511,2.836,2.8084,2.7808,2.7682,2.7657,2.7153,2.6691,2.6267,2.5597,2.5075,2.4671,2.4264,2.412,2.4084,2.3731,2.3548,2.3522,2.3117,2.2745,2.2413,2.2402,2.2138,2.1655,2.1769,2.1655,2.1359,2.1128,2.1061,2.1061,2.1061,2.0951,2.0731,2.0587,0.0,0.0,0.0,0.0,0.0,0.0,0.0,0.0,0.0,0.0,1.8003,1.7301,1.6888,1.6975,1.6202,1.5762,1.5754,1.5854,1.5488,1.4375,1.4253,1.4428,1.4856,1.5053,1.5214,1.5367,1.5389,1.5389,1.5389,1.5389,1.5215,1.4831,1.4741,1.4223,1.2936,1.2297,1.1703,1.0766,1.0207,0.982,0.9777,0.9738,0.9646,0.9563,0.8947,0.8061,0.7037,0.5403,0.4164,0.3764,0.3186,0.292,0.292,0.292,0.2861,0.2835,0.2804,0.2775,0.27,0.2142,0.1316,0.0488,-0.0201,-0.0796,-0.1339,-0.1844,-0.2234,-0.251,-0.302,-0.3608,3.5264,3.4774,3.393,3.36,3.3645,3.2371,3.1577,3.1202,0.0,0.0,0.0,2.9089,2.8825,2.8398,2.8298,2.8247,2.8222,2.7682,2.7431,2.7394,2.6196,2.5657,2.5621,2.4886,2.4516,2.4516,2.4373,2.4301,2.4301,2.4192,2.3804,2.325,2.3176,2.2868,2.2241,2.2203,2.2138,2.1939,2.1502,2.1244,2.1244,2.1173,2.0941,2.0541,2.0417,2.003,1.9358,1.9212,1.874,1.7774,1.7711,1.7721,1.7711,1.7687,1.8061,1.8741,1.8138,1.7799,1.791,1.7113,1.6621,1.6684,1.692,1.6593,1.5495,1.4848,1.4711,1.521,1.5106,1.5179,1.5443,1.5431,1.5389,1.5389,1.5389,1.5389,1.5389,1.5389,1.4783,1.3451,1.3063,1.2339,1.0847,1.0376,1.0164,1.0033,0.9994,0.9994,0.9951,0.9559,0.8855,0.7742,0.6242,0.5006,0.4694,0.3985,0.3274,0.3232,0.3042,0.2884,0.2841,0.2766,0.2732,0.2643,0.2175,0.1739,0.137,0.0636,-0.0039,-0.0236,-0.098,-0.1686,-0.192,-0.2431,-0.302,3.6607,3.6529,3.6196,3.5852,3.5383,3.4441,3.3067,3.1423,3.0676,3.0114,2.9666,2.9846,2.9808,2.9528,2.9038,2.8812,2.8775,2.8235,2.7996,2.7959,2.7312,2.7026,2.6989,2.6422,2.6164,2.6129,2.5488,2.5123,2.5052,2.4456,2.4047,2.3986,2.3938,2.3866,2.3793,2.3793,2.3756,2.372,2.2231,2.1464,2.1474,2.1049,2.0825,2.0724,2.0226,1.9833,1.9699,1.9318,1.9037,1.8865,1.8854,1.8865,1.8865,1.8831,1.8931,1.9042,1.8931,1.8865,1.8898,1.8172,1.786,1.804,1.7574,1.7099,1.6764,1.6598,1.655,1.6586,1.6008,1.5598,1.5658,1.5499,1.5389,1.5389,1.5389,1.5389,1.5389,1.5389,1.5257,1.4866,1.4356,1.3493,1.2334,1.1531,1.0766,1.0207,1.0038,0.9994,0.9951,0.9738,0.9074,0.8097,0.757,0.6905,0.6065,0.5048,0.4336,0.4121,0.34,0.2925,0.2771,0.2698,0.2639,0.2616,0.2447,0.2176,0.1696,0.1455,0.0824,0.0039,-0.0471,-0.0863,-0.1646,-0.2038,-0.2353,3.7333,3.6933,3.6802,3.6623,3.6343,3.5651,3.4618,3.3341,3.2708,3.1547,3.0152,3.0126,3.0049,2.9908,2.9541,2.939,2.9377,2.8775,2.8561,2.8511,2.7996,2.757,2.7281,2.7065,2.6788,2.6477,2.6129,2.5955,2.5921,2.5581,2.517,2.4755,2.4301,2.412,2.412,2.412,2.412,2.4072,2.3316,2.2708,2.2317,2.1861,2.1293,2.0607,2.0065,1.9679,1.943,1.9212,1.9098,1.9098,1.9098,1.9098,1.9098,1.9098,1.9098,1.9098,1.9098,1.9098,1.9098,1.9032,1.9041,1.9158,1.9304,1.9343,1.9234,1.8203,1.7453,1.715,1.6684,1.6206,1.5775,1.5506,1.5389,1.5389,1.5389,1.5389,1.5389,1.5389,1.5215,1.479,1.4356,1.3753,1.2802,1.1875,1.1198,1.0727,1.0381,1.0038,0.9994,0.9907,0.9646,0.9065,0.836,0.7742,0.7254,0.6284,0.5375,0.4581,0.4104,0.3481,0.2915,0.2628,0.2594,0.2559,0.2527,0.2395,0.2078,0.1803,0.1216,0.051,-0.0118,-0.0628,-0.1334,-0.1725,-0.2273,3.8084,3.7472,3.7472,3.7357,3.7161,3.6604,3.5902,3.5148,3.4641,3.3225,3.1369,3.0862,3.0545,3.0317,3.0177,2.9998,2.9806,2.9403,2.9152,2.9101,2.8549,2.8059,2.7657,2.7467,2.709,2.6688,2.6562,2.6487,2.6487,2.6487,2.6211,2.5558,2.4957,2.4624,2.4624,2.4624,2.4636,2.4624,2.4671,2.4204,2.3254,2.2664,2.1813,2.0751,2.0159,1.9664,1.9351,1.9175,1.9164,1.9297,1.9164,1.9098,1.9098,1.9098,1.9098,1.9098,1.9098,1.9139,1.9274,1.9689,1.999,2.0104,2.071,2.1155,2.11,1.9858,1.8695,1.808,1.7528,1.6854,1.6304,1.579,1.5555,1.5555,1.5548,1.5597,1.5555,1.5506,1.5249,1.4566,1.4398,1.4048,1.3148,1.2388,1.1794,1.1284,1.0554,1.0038,0.9994,0.9994,0.9994,0.982,0.9026,0.8452,0.8444,0.7562,0.6493,0.5378,0.5034,0.4438,0.3578,0.316,0.2886,0.2799,0.2671,0.2588,0.251,0.2156,0.1608,0.0982,0.0393,-0.0314,-0.1178,-0.1531,-0.2118,3.9228,3.9177,3.909,3.8723,3.804,3.7469,3.6782,3.6005,3.5362,3.4669,3.3776,3.2889,3.1955,3.1156,3.1071,3.0684,3.0113,3.0024,2.9973,2.9885,2.9189,2.8775,2.8624,2.777,2.7304,2.7178,2.6763,2.6537,2.6537,2.6499,2.6452,2.6383,2.6314,2.6198,2.6233,2.6245,2.6233,2.6267,2.628,2.5546,2.4062,2.3062,2.2217,2.1538,2.0586,2.0053,2.0009,1.9419,1.9386,1.9879,1.9419,1.9098,1.9131,1.9098,1.9098,1.9098,1.9108,1.9285,1.971,2.011,2.0534,2.0928,2.1052,2.1311,2.1673,2.1535,2.1066,2.0129,1.8638,1.7683,1.7448,1.6607,1.6038,1.5971,1.6004,1.6046,1.5963,1.5824,1.5616,1.5567,1.5333,1.495,1.4132,1.3753,1.3069,1.1617,1.0727,1.0164,1.0164,1.0038,0.9994,0.9994,0.9772,0.9641,0.9375,0.8663,0.7776,0.7165,0.6444,0.5561,0.4784,0.4335,0.4229,0.3381,0.3061,0.2943,0.2668,0.2431,0.2195,0.1451,0.0785,0.0118,-0.0943,-0.1375,-0.1767,3.9388,3.9388,3.9388,3.9228,3.8877,3.8626,3.8362,3.7996,3.7375,3.6731,3.6018,3.5163,3.3797,3.2213,3.1636,3.1145,3.0733,3.033,3.0113,3.0062,2.9758,2.9441,2.9025,2.8671,2.8206,2.7745,2.7253,2.6977,2.6927,2.6663,2.6487,2.6487,2.6487,2.6487,2.6487,2.6487,2.6487,2.6487,2.6487,2.6164,2.546,2.4072,2.2954,2.2173,2.1227,2.0677,2.0677,2.042,2.042,2.0624,2.0063,1.9682,1.9693,1.932,1.9098,1.9119,1.9367,1.971,2.0131,2.0576,2.0917,2.1104,2.1373,2.1611,2.1776,2.1807,2.1645,2.1165,1.9982,1.8829,1.7853,1.7155,1.6632,1.6245,1.6136,1.6136,1.6095,1.6004,1.5955,1.5914,1.588,1.5624,1.5068,1.4475,1.3578,1.2297,1.1359,1.0809,1.0766,1.0337,1.0038,0.9994,0.9994,0.9951,0.9811,0.9445,0.8704,0.7891,0.726,0.6575,0.5571,0.4922,0.4494,0.4109,0.3802,0.3413,0.2943,0.2824,0.2627,0.1803,0.0745,-0.0118,-0.0629,-0.1022,-0.1453,3.9388,3.9388,3.9388,3.9388,3.9388,3.9388,3.9388,3.9328,3.8886,3.8287,3.7629,3.6865,3.5571,3.39,3.2717,3.2024,3.1609,3.0897,3.0545,3.0508,3.033,2.9961,2.9529,2.9338,2.9009,2.8481,2.795,2.7698,2.7622,2.7082,2.6817,2.6851,2.6678,2.6589,2.6624,2.6636,2.6636,2.6555,2.6568,2.6521,2.6305,2.5065,2.3929,2.315,2.2313,2.1838,2.1838,2.1654,2.1597,2.1597,2.1133,2.0753,2.0587,2.0081,1.9674,1.9513,1.9907,2.0265,2.0607,2.1005,2.13,2.1331,2.1631,2.1807,2.1807,2.1807,2.1807,2.1721,2.1088,1.9982,1.8727,1.8109,1.7504,1.6722,1.6607,1.6574,1.6335,1.6252,1.617,1.6162,1.6128,1.5997,1.5609,1.481,1.388,1.3148,1.2297,1.1703,1.158,1.0982,1.0386,1.0337,1.0207,0.9994,0.998,0.9705,0.9107,0.8572,0.8027,0.7529,0.6458,0.5851,0.5071,0.4999,0.4538,0.3995,0.345,0.3255,0.2942,0.196,0.098,0.0118,-0.0314,-0.0746,-0.1061,3.9388,3.9388,3.9388,3.9388,3.9388,3.9388,3.9388,3.9409,3.9313,3.8975,3.8257,3.7579,3.6933,3.6123,3.4549,3.3512,3.2784,3.2024,3.1673,3.1613,3.0859,3.0381,3.0291,2.9754,2.9523,2.9446,2.8957,2.8662,2.8574,2.7921,2.7666,2.7828,2.7134,2.682,2.6982,2.6982,2.6875,2.6726,2.6692,2.6658,2.6458,2.5862,2.5193,2.4558,2.395,2.3601,2.3559,2.304,2.2796,2.2919,2.2714,2.2395,2.1883,2.1586,2.1105,2.0557,2.0798,2.1031,2.1161,2.1487,2.1735,2.1756,2.1728,2.1807,2.1807,2.1807,2.1807,2.1769,2.1683,2.1213,2.0382,1.9541,1.878,1.8037,1.7876,1.7561,1.6771,1.6599,1.6394,1.636,1.6245,1.6038,1.5741,1.4936,1.4475,1.3999,1.3233,1.2674,1.2589,1.1869,1.1365,1.1144,1.0669,1.0033,1.0014,0.9729,0.9452,0.9028,0.8604,0.8544,0.8108,0.751,0.6619,0.5848,0.5386,0.4768,0.4073,0.3567,0.3176,0.2508,0.1881,0.1137,0.0471,-0.0079,-0.0511,3.9388,3.9388,3.9388,3.9388,3.9388,3.9388,3.9388,3.9388,3.9388,3.9035,3.8347,3.7704,3.7075,3.6447,3.5444,3.4491,3.3587,3.2834,3.25,3.2478,3.2155,3.1974,3.1947,3.1744,3.1315,3.0763,3.0263,2.9776,2.9421,2.9101,2.9009,2.8895,2.8014,2.7515,2.7485,2.7191,2.6943,2.6897,2.6875,2.6875,2.6794,2.6604,2.6367,2.6101,2.5041,2.4451,2.4439,2.4198,2.4112,2.4122,2.3682,2.3352,2.3086,2.2648,2.2399,2.2342,2.2053,2.2,2.2227,2.1996,2.1807,2.1807,2.1807,2.1807,2.1807,2.1807,2.1807,2.1807,2.1807,2.1617,2.129,2.0576,1.9747,1.9027,1.8829,1.847,1.7755,1.744,1.7237,1.6722,1.6402,1.627,1.6064,1.5741,1.5492,1.5325,1.4594,1.407,1.3818,1.3184,1.2504,1.2347,1.1945,1.1548,1.1438,1.0148,0.9365,0.9122,0.8885,0.8724,0.8369,0.7974,0.7199,0.6546,0.6121,0.5312,0.4501,0.3724,0.3372,0.3331,0.2663,0.1998,0.1412,0.0824,0.0118,3.9388,3.9388,3.9388,3.9388,3.9388,3.9388,3.9388,3.9388,3.9388,3.9155,3.8661,3.8018,3.7389,3.6746,3.6103,3.5344,3.4442,3.3705,3.3345,3.331,3.3115,3.301,3.301,3.3024,3.2692,3.2055,3.1694,3.1268,3.0901,3.0649,3.0568,3.0561,2.9486,2.8876,2.8625,2.8119,2.7676,2.7438,2.7182,2.7079,2.7024,2.7024,2.7024,2.6875,2.6024,2.5479,2.5413,2.5393,2.5247,2.5056,2.4781,2.4533,2.4263,2.3844,2.3607,2.3639,2.321,2.302,2.3246,2.282,2.2569,2.2531,2.2327,2.2176,2.2176,2.1959,2.1807,2.1807,2.1807,2.1807,2.1693,2.1252,2.0576,1.9864,1.9659,1.9344,1.859,1.843,1.7997,1.7286,1.6763,1.6517,1.6394,1.6278,1.6121,1.6136,1.5519,1.5179,1.5047,1.4364,1.3639,1.3387,1.2777,1.2251,1.1874,1.0849,1.0023,0.9715,0.9004,0.8837,0.8703,0.8322,0.7859,0.7284,0.6553,0.5744,0.489,0.4036,0.3841,0.3917,0.3448,0.2782,0.2233,0.1723,0.1019,3.9388,3.9388,3.9388,3.9388,3.9388,3.9388,3.9388,3.9388,3.9388,3.9343,3.92,3.8646,3.7913,3.733,3.6656,3.607,3.532,3.4576,3.4279,3.4245,3.3665,3.3353,3.3402,3.3437,3.3367,3.3143,3.3164,3.3136,3.2996,3.2401,3.2184,3.2188,3.1467,3.0724,3.0412,2.9754,2.9027,2.8318,2.7769,2.7354,2.7058,2.7092,2.7058,2.7058,2.6909,2.6769,2.6637,2.6501,2.6156,2.5757,2.6122,2.6092,2.5425,2.5273,2.4992,2.4399,2.4146,2.4097,2.4108,2.4,2.3829,2.3793,2.3375,2.299,2.2916,2.2327,2.1921,2.1959,2.1845,2.1807,2.1807,2.1731,2.1367,2.0692,2.0498,2.0177,1.9541,1.9265,1.8979,1.8109,1.7408,1.6722,1.6517,1.6599,1.6566,1.6402,1.6162,1.5997,1.5933,1.5309,1.4676,1.4185,1.3649,1.3114,1.2316,1.153,1.0989,1.0407,0.9515,0.8932,0.8932,0.8665,0.8203,0.7629,0.6745,0.5938,0.5321,0.4582,0.4309,0.4231,0.38,0.3526,0.3093,0.2582,0.1878,3.9388,3.9388,3.9388,3.9388,3.9388,3.9388,3.9388,3.9388,3.9388,3.9388,3.9254,3.8691,3.8033,3.7389,3.6761,3.6133,3.5502,3.5198,3.5133,3.5052,3.4854,3.4721,3.4754,3.4754,3.4491,3.4041,3.3973,3.3959,3.393,3.3709,3.3638,3.3489,3.2571,3.1985,3.174,3.1182,3.0497,2.9764,2.9139,2.8585,2.8046,2.759,2.7369,2.7335,2.7281,2.7167,2.71,2.6943,2.6752,2.6561,2.6752,2.6739,2.6521,2.6487,2.6336,2.6082,2.5452,2.5122,2.5052,2.4505,2.4192,2.4084,2.3866,2.3756,2.3706,2.3054,2.2654,2.2553,2.2138,2.1807,2.1807,2.1807,2.1645,2.1443,2.1377,2.1011,2.0265,1.9659,1.9225,1.8979,1.863,1.847,1.8261,1.7923,1.7374,1.7228,1.6846,1.6494,1.6396,1.6127,1.5905,1.5416,1.4737,1.3966,1.3345,1.2716,1.2198,1.1494,1.0549,0.949,0.9344,0.9117,0.8618,0.7855,0.7015,0.6286,0.567,0.5165,0.4854,0.4621,0.4348,0.4112,0.3915,0.3404,0.2778,3.9388,3.9388,3.9388,3.9388,3.9388,3.9388,3.9388,3.9388,3.9388,3.9388,3.9284,3.8975,3.8392,3.7734,3.7105,3.6477,3.5878,3.5639,3.5489,3.5489,3.5489,3.5489,3.5489,3.5489,3.5279,3.4839,3.4758,3.4758,3.4758,3.4758,3.4758,3.457,3.3902,3.3379,3.3091,3.2516,3.1895,3.1185,3.0327,2.9683,2.921,2.8576,2.8228,2.8222,2.7941,2.7743,2.7709,2.7403,2.71,2.7024,2.7024,2.7024,2.7024,2.699,2.7024,2.6875,2.6508,2.6104,2.607,2.5604,2.5122,2.5052,2.4803,2.4624,2.4456,2.3852,2.3412,2.3302,2.2729,2.2252,2.2214,2.1959,2.1807,2.1769,2.1769,2.1568,2.0982,2.0255,1.9722,1.9529,1.9182,1.9029,1.8677,1.8399,1.7822,1.7555,1.709,1.6549,1.6461,1.6285,1.6047,1.5763,1.5126,1.4629,1.4408,1.3932,1.3382,1.2606,1.175,1.0683,1.0013,0.9674,0.9253,0.8199,0.7284,0.6668,0.6054,0.555,0.5201,0.501,0.4818,0.4662,0.4426,0.4345,0.3795,3.9388,3.9388,3.9388,3.9388,3.9388,3.9388,3.9388,3.9388,3.9388,3.9388,3.9373,3.9313,3.896,3.8332,3.7704,3.709,3.6462,3.5908,3.5579,3.5519,3.5489,3.5489,3.5489,3.5489,3.5424,3.5392,3.5392,3.5424,3.5344,3.5359,3.5504,3.5362,3.5234,3.507,3.4353,3.3831,3.3266,3.2473,3.1363,3.0771,3.0602,2.9866,2.9509,2.9491,2.8881,2.8532,2.8481,2.7941,2.7436,2.7113,2.7079,2.7092,2.7058,2.7058,2.7092,2.7079,2.7011,2.6943,2.699,2.6739,2.6645,2.644,2.5965,2.5604,2.537,2.4731,2.4253,2.4192,2.3534,2.3065,2.2953,2.244,2.2035,2.1845,2.1807,2.1721,2.1721,2.0981,2.0418,1.9954,1.925,1.8616,1.8462,1.8267,1.7809,1.7366,1.7051,1.6558,1.6179,1.5976,1.5607,1.531,1.5101,1.483,1.4517,1.4369,1.3897,1.3608,1.2865,1.2013,1.0795,1.0308,0.9593,0.8537,0.7744,0.7088,0.6514,0.6051,0.5589,0.5321,0.5168,0.5057,0.4898,0.474,0.4543,3.9388,3.9388,3.9388,3.9388,3.9388,3.9388,3.9388,3.9388,3.9388,3.9388,3.9388,3.9388,3.905,3.8422,3.8212,3.7539,3.6701,3.6312,3.5923,3.5549,3.5489,3.5489,3.5489,3.5489,3.5489,3.5489,3.5489,3.5489,3.5489,3.5489,3.5489,3.5489,3.5489,3.5392,3.5154,3.4988,3.4614,3.3959,3.3155,3.2407,3.1867,3.0853,3.0256,3.0182,2.9614,2.9265,2.9188,2.8597,2.7941,2.7423,2.7369,2.7369,2.7335,2.7369,2.7335,2.7335,2.7281,2.7214,2.718,2.7079,2.6977,2.6943,2.6692,2.6611,2.6555,2.5814,2.5369,2.5122,2.4528,2.395,2.3768,2.3276,2.2692,2.2101,2.2052,2.1911,2.1718,2.1309,2.0893,2.0734,2.0219,1.9776,1.9482,1.9107,1.8661,1.8257,1.7555,1.6787,1.6376,1.5922,1.5659,1.529,1.5014,1.4751,1.4573,1.4513,1.4418,1.4382,1.3941,1.3491,1.2161,1.1044,0.9965,0.877,0.8356,0.7778,0.7169,0.6668,0.617,0.586,0.5362,0.521,0.5057,0.494,0.4898,3.9496,3.9388,3.9388,3.9388,3.9388,3.9388,3.9388,3.9388,3.9388,3.9388,3.9388,3.9388,3.92,3.8826,3.8512,3.8003,3.7285,3.6765,3.6282,3.5953,3.5639,3.5504,3.5489,3.5489,3.5489,3.5489,3.5489,3.5489,3.5489,3.5489,3.5489,3.5489,3.5489,3.5489,3.5457,3.5489,3.534,3.4857,3.4285,3.3694,3.3279,3.2319,3.1652,3.131,3.0692,3.0171,2.9574,2.9111,2.85,2.7743,2.7503,2.7503,2.7503,2.7503,2.7503,2.7503,2.7423,2.7403,2.7369,2.7281,2.7167,2.7146,2.7113,2.7092,2.6943,2.6543,2.6242,2.6139,2.5452,2.5004,2.4755,2.4264,2.3658,2.3254,2.3032,2.267,2.1939,2.1356,2.1052,2.0803,2.0441,2.0038,1.9893,1.9409,1.9048,1.8576,1.7879,1.7288,1.6837,1.628,1.5869,1.5702,1.558,1.5493,1.5256,1.5133,1.4705,1.4641,1.4489,1.4158,1.3157,1.1749,1.0565,0.9523,0.8998,0.847,0.7931,0.7472,0.7165,0.6703,0.5938,0.5479,0.5479,0.5249,0.521,3.9625,3.9409,3.9409,3.9424,3.9388,3.9388,3.9388,3.9388,3.9388,3.9388,3.9388,3.9388,3.9343,3.9379,3.8826,3.8452,3.8257,3.73,3.6716,3.6327,3.5938,3.5654,3.5489,3.5489,3.5489,3.5489,3.5489,3.5489,3.5489,3.5489,3.5489,3.5489,3.5489,3.5489,3.5489,3.5489,3.5489,3.5355,3.4904,3.4601,3.4362,3.3731,3.3165,3.2672,3.1849,3.0978,3.0145,2.9605,2.9048,2.7776,2.7723,2.7723,2.7656,2.7536,2.757,2.7503,2.749,2.7469,2.7503,2.7469,2.7423,2.7335,2.7302,2.7268,2.71,2.7011,2.6964,2.6897,2.6333,2.5941,2.5615,2.5169,2.4672,2.4325,2.4457,2.377,2.2499,2.1575,2.1021,2.0498,2.0087,1.9544,1.9264,1.9065,1.8895,1.8768,1.8148,1.7716,1.7296,1.6837,1.6633,1.6553,1.6508,1.6508,1.614,1.5798,1.5204,1.4784,1.4641,1.4302,1.368,1.2455,1.1273,1.0389,0.9825,0.9301,0.877,0.8385,0.8118,0.7693,0.7007,0.6549,0.6167,0.5783,0.5589,3.9818,3.9625,3.9661,3.9553,3.9424,3.9388,3.9388,3.9388,3.9388,3.9424,3.9388,3.9388,3.9388,3.9409,3.92,3.8931,3.8467,3.7988,3.7494,3.6507,3.642,3.5953,3.5624,3.5519,3.5489,3.5489,3.5489,3.5489,3.5489,3.5489,3.5489,3.5489,3.5489,3.5489,3.5489,3.5489,3.5489,3.5474,3.531,3.5235,3.5115,3.4622,3.4204,3.3873,3.2899,3.1956,3.1176,3.0558,2.9903,2.93,2.9089,2.8848,2.8,2.8072,2.8039,2.7689,2.7536,2.7536,2.7503,2.7503,2.7503,2.7469,2.7436,2.7436,2.7403,2.7369,2.7335,2.7268,2.7053,2.6654,2.6195,2.5777,2.5428,2.5146,2.4921,2.466,2.3959,2.2764,2.1677,2.0927,2.0102,1.9389,1.9262,1.9175,1.8998,1.8798,1.8519,1.8104,1.7789,1.7472,1.7448,1.7457,1.7354,1.7276,1.6793,1.635,1.5692,1.5169,1.4919,1.4605,1.397,1.3382,1.2308,1.1391,1.0657,1.0132,0.9712,0.9263,0.8955,0.8499,0.8114,0.7659,0.7199,0.6623,0.6202,4.0493,4.0285,3.9965,3.9732,3.9553,3.9553,3.9481,3.9445,3.9517,3.9481,3.946,3.9481,3.9481,3.9409,3.9373,3.9185,3.8856,3.8497,3.7868,3.7049,3.6723,3.6367,3.5986,3.5704,3.5572,3.5537,3.5489,3.5489,3.5489,3.5489,3.5489,3.5489,3.5489,3.5489,3.5489,3.5489,3.5489,3.5489,3.5489,3.5489,3.5415,3.5175,3.4726,3.4429,3.3529,3.2779,3.243,3.2133,3.1591,3.1147,3.1118,3.0412,2.8858,2.8757,2.8597,2.8105,2.7973,2.7756,2.7623,2.7503,2.7503,2.749,2.7503,2.7503,2.7503,2.7503,2.7456,2.7403,2.7335,2.7188,2.679,2.6688,2.6402,2.6183,2.602,2.5847,2.5176,2.3698,2.2298,2.1524,2.0618,1.993,1.9561,1.9473,1.9341,1.9198,1.9231,1.8854,1.8888,1.861,1.8442,1.8385,1.825,1.7969,1.7448,1.6872,1.6149,1.5692,1.5374,1.4991,1.4453,1.397,1.3419,1.2535,1.1694,1.1292,1.0844,1.0357,0.9906,0.9561,0.9183,0.8803,0.8309,0.7693,0.7387,4.1309,4.1008,4.0455,4.0016,3.9753,3.9732,3.9753,3.9717,3.9809,3.997,3.9879,3.9985,4.006,3.9702,3.9717,3.9661,3.9352,3.8942,3.8332,3.7755,3.7451,3.7119,3.6737,3.6305,3.5974,3.5704,3.5549,3.5519,3.5489,3.5489,3.5489,3.5489,3.5489,3.5489,3.5489,3.5489,3.5489,3.5489,3.5489,3.5489,3.5489,3.5429,3.5145,3.4711,3.4053,3.3664,3.3497,3.3332,3.3103,3.2725,3.3192,3.2217,3.0812,2.9797,2.9488,2.8908,2.8757,2.8468,2.8143,2.7927,2.7894,2.7709,2.7689,2.759,2.7556,2.7503,2.749,2.749,2.7469,2.7469,2.749,2.7356,2.7323,2.7255,2.739,2.7108,2.626,2.4679,2.3649,2.2411,2.1618,2.0937,2.0249,1.9889,1.9769,1.9638,1.9671,1.9638,1.9638,1.9572,1.9274,1.9108,1.8898,1.8519,1.8003,1.7721,1.6966,1.6376,1.5991,1.5648,1.5196,1.4804,1.4358,1.3528,1.2835,1.2365,1.1966,1.1595,1.1143,1.0732,1.0357,1.0051,0.948,0.8803,0.8533,4.1901,4.1227,4.1158,4.0665,4.0016,3.996,4.0301,4.0703,4.0771,4.1078,4.1478,4.1576,4.1095,4.0706,4.0653,4.0409,3.9955,3.9587,3.9199,3.8754,3.8523,3.8299,3.7752,3.734,3.689,3.6526,3.6094,3.5694,3.5537,3.5489,3.5522,3.5489,3.5489,3.5489,3.5522,3.5489,3.5569,3.5554,3.5554,3.5554,3.5554,3.5507,3.5477,3.5192,3.4653,3.4352,3.4219,3.3814,3.3438,3.3347,3.3454,3.3257,3.2653,3.178,3.0977,3.027,2.9768,2.9473,2.9223,2.919,2.8881,2.85,2.8406,2.802,2.7723,2.7536,2.759,2.7503,2.7503,2.7503,2.7503,2.7503,2.7503,2.7469,2.7469,2.7423,2.708,2.6343,2.5164,2.3734,2.2808,2.19,2.1156,2.0549,2.0452,2.0269,2.0118,2.002,1.9922,1.9868,1.9671,1.9572,1.9473,1.9031,1.8509,1.8365,1.7949,1.7223,1.6844,1.6715,1.6306,1.586,1.5286,1.4458,1.3789,1.3251,1.2922,1.2673,1.2231,1.1663,1.1477,1.1292,1.0614,0.997,0.9556,4.28,4.2426,4.2078,4.1641,4.1227,4.1194,4.1294,4.1494,4.1641,4.1788,4.1981,4.2093,4.1901,4.1511,4.1461,4.116,4.065,4.0409,4.0067,3.9673,3.9564,3.9457,3.9091,3.8746,3.8372,3.792,3.7187,3.6342,3.5795,3.5668,3.5604,3.5589,3.5589,3.5589,3.5621,3.5718,3.5748,3.5748,3.5748,3.5748,3.5748,3.5653,3.5589,3.5484,3.5284,3.5026,3.4951,3.4786,3.4562,3.4562,3.4626,3.4613,3.4325,3.3688,3.2641,3.1755,3.122,3.0828,3.0588,3.0524,3.0229,2.967,2.9518,2.8998,2.8348,2.8039,2.7908,2.7623,2.7503,2.7503,2.7503,2.7536,2.7503,2.7503,2.7503,2.7503,2.7438,2.7262,2.6205,2.4876,2.3907,2.2912,2.1816,2.1396,2.1207,2.0953,2.0677,2.0495,2.0366,2.0248,2.0183,1.9922,1.9835,1.9528,1.9121,1.8988,1.8777,1.8142,1.7736,1.7609,1.7267,1.6793,1.6123,1.534,1.4744,1.4258,1.3651,1.3288,1.2959,1.2629,1.2372,1.2077,1.1663,1.118,1.0689,4.3647,4.3453,4.2923,4.2567,4.2363,4.2332,4.2316,4.2347,4.2473,4.2583,4.2552,4.2676,4.2645,4.2284,4.2029,4.1723,4.1278,4.1278,4.0977,4.0733,4.0694,4.0607,4.0546,4.0385,4.0098,3.9489,3.8786,3.7686,3.6381,3.5894,3.5799,3.5767,3.5752,3.5752,3.5799,3.5863,3.5988,3.602,3.602,3.602,3.5973,3.5863,3.5752,3.5752,3.5636,3.5589,3.5546,3.5501,3.5486,3.5518,3.5597,3.5691,3.5646,3.5238,3.4429,3.3402,3.2918,3.2408,3.2094,3.189,3.1621,3.0977,3.0917,3.0177,2.9284,2.883,2.85,2.8026,2.7973,2.7908,2.7875,2.7743,2.7623,2.7503,2.7503,2.7503,2.7503,2.732,2.6987,2.5872,2.4937,2.3822,2.2671,2.2206,2.2009,2.1604,2.1333,2.1302,2.1144,2.0933,2.0752,2.0366,2.015,1.9955,1.9726,1.9615,1.9396,1.8967,1.87,1.8576,1.8128,1.7609,1.6938,1.6401,1.5939,1.5455,1.4681,1.3941,1.3615,1.3331,1.3185,1.282,1.2335,1.1892,1.144,4.4105,4.3512,4.3423,4.3045,4.2567,4.2552,4.2862,4.3287,4.3333,4.3752,4.4064,4.4196,4.3768,4.3152,4.241,4.2221,4.2237,4.2173,4.2046,4.1901,4.2028,4.2074,4.2058,4.157,4.1452,4.1002,4.0464,3.8888,3.7465,3.6568,3.6037,3.6037,3.6053,3.599,3.6101,3.629,3.602,3.6052,3.6084,3.6084,3.6084,3.6022,3.5973,3.5941,3.591,3.5893,3.5893,3.5893,3.5893,3.591,3.5941,3.5973,3.5943,3.5913,3.5805,3.5208,3.4388,3.3346,3.3309,3.3258,3.2966,3.2445,3.2278,3.1535,3.0591,2.968,2.9334,2.9317,2.9174,2.8903,2.8468,2.8371,2.8105,2.7842,2.7743,2.7656,2.759,2.7749,2.7334,2.6679,2.5667,2.4538,2.3346,2.3062,2.2786,2.2347,2.2039,2.2021,2.1865,2.1616,2.1408,2.1028,2.0624,2.0399,2.0161,2.0074,1.9846,1.9551,1.9462,1.9363,1.8988,1.8499,1.8156,1.7629,1.7145,1.6402,1.5455,1.4796,1.4346,1.4021,1.3804,1.3404,1.2929,1.2526,1.2224,4.4412,4.4133,4.4133,4.3943,4.3693,4.368,4.3827,4.4076,4.4133,4.4293,4.4525,4.4598,4.4355,4.3902,4.3575,4.3303,4.3106,4.3015,4.2769,4.2707,4.2892,4.3059,4.3084,4.3168,4.3111,4.2406,4.1898,4.1045,3.9358,3.7944,3.7095,3.6693,3.6662,3.6662,3.6692,3.7087,3.728,3.7266,3.7042,3.6815,3.6693,3.6383,3.6116,3.6116,3.6053,3.6037,3.6052,3.602,3.602,3.6037,3.6068,3.6116,3.6116,3.6101,3.6101,3.6024,3.5425,3.4904,3.4779,3.464,3.4209,3.3815,3.3524,3.2991,3.1812,3.0768,3.015,3.007,2.9687,2.9376,2.9188,2.9079,2.868,2.8371,2.8306,2.8222,2.8157,2.8065,2.787,2.7163,2.6417,2.5314,2.4296,2.3842,2.3556,2.3233,2.2859,2.2665,2.247,2.2132,2.1916,2.171,2.1313,2.0912,2.0603,2.0388,2.014,1.99,1.9758,1.9704,1.9747,1.9419,1.898,1.8603,1.8109,1.7257,1.6298,1.5631,1.518,1.4796,1.4418,1.4021,1.3615,1.3397,1.2989,4.4598,4.4598,4.4598,4.4598,4.4598,4.4598,4.457,4.457,4.457,4.457,4.4598,4.4598,4.4598,4.457,4.4468,4.4162,4.3764,4.3764,4.3499,4.3363,4.3453,4.3735,4.3898,4.4226,4.4176,4.369,4.326,4.2499,4.151,4.0255,3.8902,3.7759,3.7777,3.7603,3.7592,3.7822,3.8108,3.8051,3.7751,3.7592,3.7474,3.6906,3.6738,3.6585,3.6383,3.6195,3.632,3.6178,3.6147,3.6178,3.6226,3.6289,3.6274,3.6274,3.6289,3.6242,3.5933,3.5823,3.5649,3.5539,3.5336,3.4971,3.455,3.3955,3.3193,3.1968,3.1214,3.1224,3.0923,3.0438,2.9931,2.9827,2.9487,2.9282,2.9188,2.9062,2.8935,2.8876,2.8547,2.7825,2.7072,2.6228,2.5341,2.4717,2.4344,2.4076,2.3763,2.3412,2.3088,2.2774,2.2592,2.2451,2.2132,2.171,2.1262,2.0924,2.0571,2.0291,2.0161,2.0009,2.0009,1.9878,1.9551,1.922,1.8921,1.8489,1.7716,1.6826,1.5974,1.5525,1.5081,1.4732,1.4374,1.4158,1.3716,4.4598,4.4598,4.4598,4.4598,4.4598,4.4598,4.4598,4.4598,4.4598,4.4598,4.4598,4.4598,4.4598,4.4598,4.4598,4.4525,4.4468,4.4514,4.4355,4.4338,4.4497,4.4395,4.444,4.448,4.4547,4.4445,4.4159,4.3771,4.3266,4.2397,4.0885,3.9518,3.9172,3.8755,3.8505,3.8528,3.8601,3.853,3.8306,3.8238,3.8067,3.7722,3.7533,3.7693,3.7133,3.6723,3.7193,3.6846,3.6538,3.6569,3.6646,3.66,3.6616,3.6708,3.6739,3.6739,3.6585,3.6461,3.629,3.6022,3.5847,3.5525,3.5113,3.4751,3.4384,3.4045,3.3427,3.2676,3.2288,3.1783,3.1161,3.0644,3.0359,3.0072,2.995,2.9889,2.9797,2.9721,2.9324,2.8579,2.7818,2.7101,2.6371,2.5767,2.4736,2.4411,2.42,2.3868,2.3839,2.359,2.3399,2.322,2.2997,2.2604,2.2051,2.1659,2.1187,2.0944,2.0784,2.0474,2.0205,2.0107,2.0118,1.9846,1.9572,1.9365,1.9036,1.7997,1.7042,1.6254,1.5702,1.5401,1.5054,1.476,1.4294,4.4598,4.4598,4.4598,4.4598,4.4598,4.4598,4.4598,4.4598,4.4598,4.4598,4.4598,4.4598,4.4598,4.4598,4.4598,4.4598,4.4598,4.4598,4.4598,4.4598,4.4598,4.4598,4.4598,4.4598,4.4598,4.4598,4.4581,4.4502,4.4108,4.3732,4.3144,4.1949,4.0689,3.9939,3.9572,3.9361,3.9339,3.9242,3.9038,3.8849,3.8712,3.8294,3.8067,3.8165,3.8023,3.7693,3.7895,3.7738,3.7431,3.7238,3.7401,3.7282,3.7163,3.7342,3.7474,3.7504,3.7383,3.7221,3.6799,3.6399,3.5973,3.5911,3.562,3.5454,3.5363,3.4971,3.4592,3.4046,3.3469,3.2748,3.236,3.1764,3.1306,3.0866,3.0674,3.0674,3.0615,3.0525,3.0286,2.9622,2.8944,2.8222,2.7531,2.6829,2.5704,2.4727,2.4529,2.439,2.4347,2.4232,2.3956,2.375,2.3518,2.3339,2.2816,2.2298,2.1741,2.1585,2.1428,2.1092,2.0796,2.0732,2.0688,2.0421,2.0183,1.9955,1.9529,1.8867,1.8085,1.7292,1.6611,1.607,1.5719,1.5471,1.5046,4.4598,4.4598,4.4598,4.4598,4.4598,4.4598,4.4598,4.4598,4.4598,4.4598,4.4598,4.4598,4.4598,4.4598,4.4598,4.4598,4.4598,4.4598,4.4598,4.4598,4.4598,4.4598,4.4598,4.4598,4.4598,4.4598,4.4598,4.4564,4.4485,4.4581,4.4125,4.3244,4.2154,4.1276,4.0478,4.0245,4.0113,3.9969,3.9747,3.947,3.9391,3.8903,3.8767,3.8723,3.8474,3.8379,3.8407,3.8294,3.801,3.7867,3.7924,3.801,3.7953,3.801,3.825,3.8306,3.825,3.8096,3.7546,3.6723,3.6132,3.6053,3.6038,3.6008,3.5947,3.5643,3.5385,3.4897,3.4181,3.3601,3.3313,3.2544,3.2063,3.1614,3.1581,3.1551,3.1407,3.1291,3.1072,3.0705,3.0061,2.939,2.8426,2.7684,2.6595,2.5451,2.4733,2.4692,2.478,2.4622,2.4347,2.4144,2.3956,2.3767,2.3518,2.2997,2.25,2.2317,2.2132,2.1791,2.1553,2.1491,2.1428,2.127,2.0996,2.0582,2.0118,1.9639,1.9034,1.8341,1.7653,1.6932,1.6897,1.6645,1.6167,4.4598,4.4598,4.4598,4.4598,4.4598,4.4598,4.4598,4.4598,4.4598,4.4598,4.4598,4.4598,4.4598,4.4598,4.4598,4.4598,4.4598,4.4598,4.4598,4.4598,4.4598,4.4598,4.4598,4.4598,4.4598,4.4598,4.4598,4.4598,4.4598,4.4598,4.4496,4.4248,4.3276,4.2271,4.1202,4.046,4.0146,4.0096,4.002,3.9995,3.985,3.9401,3.947,3.9454,3.9038,3.8849,3.9028,3.8849,3.8574,3.8407,3.849,3.8518,3.8379,3.8435,3.853,3.8502,3.8474,3.839,3.8193,3.6951,3.6492,3.6336,3.6352,3.6211,3.6258,3.6198,3.6045,3.5508,3.511,3.4526,3.387,3.3138,3.2699,3.2412,3.2346,3.2148,3.1951,3.1879,3.1665,3.1507,3.1144,3.0558,2.9492,2.845,2.7455,2.6351,2.5257,2.4978,2.5189,2.5021,2.4765,2.4434,2.4261,2.4232,2.4002,2.3623,2.3284,2.3105,2.2925,2.2683,2.2439,2.2317,2.2212,2.212,2.1791,2.1376,2.0944,2.0539,1.9933,1.9332,1.8499,1.7959,1.7959,1.7755,1.7164,4.4598,4.4598,4.4598,4.4598,4.4598,4.4598,4.4598,4.4598,4.4598,4.4598,4.4598,4.4598,4.4598,4.4598,4.4598,4.4598,4.4598,4.4598,4.4598,4.4598,4.4598,4.4598,4.4598,4.4598,4.4598,4.4598,4.4598,4.4598,4.4598,4.4598,4.4598,4.4412,4.3826,4.2598,4.1559,4.0849,4.0646,4.0197,4.007,4.007,4.007,3.9901,3.985,4.007,3.9601,3.9523,3.9722,3.9418,3.9216,3.9011,3.9109,3.9216,3.9082,3.9109,3.9401,3.9428,3.9454,3.9252,3.8876,3.8051,3.7429,3.7087,3.6693,3.6523,3.6445,3.646,3.6291,3.6045,3.5783,3.529,3.4847,3.3773,3.3207,3.2962,3.2791,3.2437,3.2231,3.2259,3.216,3.2132,3.189,3.1429,3.0599,2.9567,2.8527,2.7823,2.6858,2.5826,2.5728,2.5481,2.5189,2.475,2.4505,2.4534,2.4434,2.4237,2.4063,2.3888,2.3842,2.3767,2.3547,2.3195,2.2955,2.2774,2.247,2.2144,2.1741,2.1302,2.0933,2.0344,1.9486,1.8767,1.8509,1.8331,1.7959,4.4598,4.4598,4.4598,4.4598,4.4598,4.4598,4.4598,4.4598,4.4598,4.4598,4.4598,4.4598,4.4598,4.4598,4.4598,4.4598,4.4598,4.4598,4.4598,4.4598,4.4598,4.4598,4.4598,4.4598,4.4598,4.4598,4.4598,4.4598,4.4598,4.4598,4.4598,4.4462,4.4045,4.3267,4.2252,4.1576,4.0781,4.0316,4.0113,4.0113,4.0096,4.0045,4.007,4.0096,4.002,4.007,4.007,4.002,3.9944,3.9747,3.979,3.9935,3.9747,3.9825,4.0113,4.0113,4.0045,3.985,3.9454,3.8903,3.8379,3.8096,3.7445,3.7163,3.7103,3.7252,3.7058,3.6765,3.6349,3.5904,3.5457,3.4347,3.3992,3.379,3.3177,3.2823,3.2425,3.2425,3.2398,3.2398,3.2351,3.1967,3.1551,3.0719,2.9697,2.9104,2.8518,2.743,2.6379,2.6054,2.581,2.5439,2.5175,2.5314,2.5258,2.5006,2.4836,2.4679,2.4578,2.4492,2.4334,2.3989,2.3695,2.3429,2.3237,2.2955,2.25,2.2101,2.1635,2.1144,2.0473,1.9792,1.9177,1.8844,1.861,4.4598,4.4598,4.4598,4.4598,4.4598,4.4598,4.4598,4.4598,4.4598,4.4598,4.4598,4.4598,4.4598,4.4598,4.4598,4.4598,4.4598,4.4598,4.4598,4.4598,4.4598,4.4598,4.4598,4.4598,4.4598,4.4598,4.4598,4.4598,4.4598,4.4598,4.4598,4.4598,4.4462,4.3775,4.2963,4.2124,4.1187,4.0612,4.0163,4.0146,4.0113,4.0113,4.0113,4.0113,4.0113,4.0113,4.0113,4.007,4.007,4.002,4.007,4.0087,4.007,4.0113,4.0113,4.0113,4.0113,4.0045,3.9944,3.9418,3.9269,3.8984,3.864,3.8418,3.8137,3.7953,3.7738,3.7549,3.7212,3.6527,3.5824,3.5419,3.4984,3.4397,3.3645,3.3138,3.2643,3.248,3.2425,3.2398,3.2398,3.2136,3.1763,3.1087,3.0573,3.0184,2.9546,2.8717,2.768,2.6811,2.6587,2.6361,2.6188,2.6229,2.6068,2.5728,2.5425,2.5216,2.5005,2.4863,2.4793,2.4679,2.4408,2.4176,2.4047,2.3771,2.3403,2.2864,2.2286,2.176,2.1353,2.0484,1.9781,1.9485,1.922,4.4598,4.4598,4.4598,4.4598,4.4598,4.4598,4.4598,4.4598,4.4598,4.4598,4.4598,4.4598,4.4598,4.4598,4.4598,4.4598,4.4598,4.4598,4.4598,4.4598,4.4598,4.4598,4.4598,4.4598,4.4598,4.4598,4.4598,4.4598,4.4598,4.4598,4.4598,4.4598,4.4598,4.4096,4.3572,4.2953,4.1965,4.1068,4.046,4.0214,4.013,4.0113,4.0113,4.0113,4.0113,4.0113,4.0113,4.0113,4.0113,4.0113,4.0113,4.0113,4.0113,4.0113,4.0113,4.0113,4.0113,4.007,4.0087,3.9944,3.9799,3.9773,3.9575,3.9011,3.864,3.839,3.8322,3.8153,3.8026,3.7422,3.6954,3.6535,3.5988,3.5257,3.4525,3.3858,3.3275,3.2703,3.2648,3.2574,3.2574,3.2552,3.2137,3.1705,3.1261,3.0977,3.0499,2.9735,2.8956,2.806,2.7331,2.7097,2.6953,2.689,2.6692,2.6388,2.6041,2.577,2.555,2.5328,2.5175,2.509,2.4977,2.4835,2.4609,2.4494,2.435,2.3771,2.3105,2.2756,2.2329,2.1313,2.0474,2.0183,1.9846,4.4598,4.4598,4.4598,4.4598,4.4598,4.4598,4.4598,4.4598,4.4598,4.4598,4.4598,4.4598,4.4598,4.4598,4.4598,4.4598,4.4598,4.4598,4.4598,4.4598,4.4598,4.4598,4.4598,4.4598,4.4598,4.4598,4.4598,4.4598,4.4598,4.4598,4.4598,4.4598,4.4598,4.4344,4.391,4.3453,4.2726,4.1779,4.1001,4.0443,4.0214,4.0113,4.0113,4.0113,4.0113,4.0113,4.0113,4.0113,4.0113,4.0113,4.0113,4.0113,4.0113,4.0113,4.0113,4.0113,4.0113,4.0113,4.0113,4.0113,4.007,4.0113,4.0096,3.9731,3.9401,3.9189,3.8957,3.8756,3.8645,3.8442,3.8044,3.7637,3.693,3.621,3.5425,3.4685,3.3909,3.3126,3.2893,3.2803,3.2841,3.2922,3.2681,3.2293,3.1962,3.1678,3.132,3.0771,2.9986,2.9139,2.8314,2.7781,2.7585,2.7444,2.7225,2.6979,2.6666,2.639,2.6229,2.5973,2.5715,2.5632,2.5687,2.5439,2.5118,2.4948,2.4736,2.4494,2.3989,2.3607,2.3177,2.2408,2.1522,2.0924,2.0592,4.4598,4.4598,4.4598,4.4598,4.4598,4.4598,4.4598,4.4598,4.4598,4.4598,4.4598,4.4598,4.4598,4.4598,4.4598,4.4598,4.4598,4.4598,4.4598,4.4598,4.4598,4.4598,4.4598,4.4598,4.4598,4.4598,4.4598,4.4598,4.4598,4.4598,4.4598,4.4598,4.4598,4.4479,4.4361,4.3927,4.325,4.2472,4.1627,4.0967,4.0299,4.0113,4.0113,4.0113,4.0113,4.0113,4.0113,4.0113,4.0113,4.0113,4.0113,4.0113,4.0113,4.0113,4.0113,4.0113,4.0113,4.0113,4.0113,4.0113,4.0113,4.0113,4.0096,3.9995,3.9825,3.9705,3.9497,3.9348,3.9242,3.8974,3.857,3.8543,3.8117,3.7373,3.6577,3.5704,3.4768,3.3968,3.3351,3.3303,3.3381,3.3433,3.3287,3.2898,3.2593,3.2334,3.1767,3.1289,3.0839,3.0048,2.9296,2.8501,2.81,2.7905,2.7745,2.7504,2.7261,2.7016,2.6834,2.6573,2.6254,2.6295,2.6455,2.5974,2.5453,2.5174,2.4948,2.4736,2.4494,2.4163,2.3741,2.3386,2.2725,2.2002,2.1388,4.4598,4.4598,4.4598,4.4598,4.4598,4.4598,4.4598,4.4598,4.4598,4.4598,4.4598,4.4598,4.4598,4.4598,4.4598,4.4598,4.4598,4.4598,4.4598,4.4598,4.4598,4.4598,4.4598,4.4598,4.4598,4.4598,4.4598,4.4598,4.4598,4.4598,4.4598,4.4598,4.4598,4.4598,4.4598,4.4198,4.3792,4.3014,4.2388,4.1407,4.0485,4.018,4.0113,4.0113,4.0113,4.0113,4.0113,4.0113,4.0113,4.0113,4.0113,4.0113,4.0113,4.0113,4.0113,4.0113,4.0113,4.0113,4.0113,4.0113,4.0113,4.0113,4.0113,4.0113,4.007,4.0113,4.0045,3.9901,3.9705,3.9401,3.9226,3.9308,3.9254,3.847,3.7699,3.6706,3.566,3.4778,3.3924,3.3869,3.3944,3.3919,3.3793,3.3537,3.3224,3.2629,3.1851,3.1358,3.1221,3.0639,3.0037,2.9292,2.8578,2.8302,2.8168,2.8008,2.7745,2.7565,2.7388,2.7119,2.6834,2.6756,2.6745,2.619,2.5729,2.5578,2.5356,2.5005,2.4793,2.4637,2.4337,2.3989,2.3842,2.3267,2.2543,4.4598,4.4598,4.4598,4.4598,4.4598,4.4598,4.4598,4.4598,4.4598,4.4598,4.4598,4.4598,4.4598,4.4598,4.4598,4.4598,4.4598,4.4598,4.4598,4.4598,4.4598,4.4598,4.4598,4.4598,4.4598,4.4598,4.4598,4.4598,4.4598,4.4598,4.4598,4.4598,4.4598,4.4598,4.4598,4.4547,4.4215,4.342,4.2963,4.2134,4.0959,4.057,4.018,4.0113,4.0113,4.0113,4.0113,4.0113,4.0113,4.0113,4.0113,4.0113,4.0113,4.0113,4.0113,4.0113,4.0113,4.0113,4.0113,4.0113,4.0113,4.0113,4.0113,4.0113,4.0113,4.0113,4.0113,3.9995,3.9995,3.9722,3.9722,3.9765,3.9741,3.926,3.848,3.762,3.629,3.5054,3.453,3.4366,3.4529,3.4673,3.4529,3.4292,3.3969,3.3572,3.2666,3.2206,3.1903,3.1285,3.0672,3.0161,2.953,2.8731,2.8339,2.8259,2.8195,2.8057,2.7904,2.7854,2.768,2.7287,2.6953,2.6654,2.639,2.6176,2.5906,2.5564,2.5411,2.5342,2.4978,2.458,2.4507,2.4392,2.3754,4.4598,4.4598,4.4598,4.4598,4.4598,4.4598,4.4598,4.4598,4.4598,4.4598,4.4598,4.4598,4.4598,4.4598,4.4598,4.4598,4.4598,4.4598,4.4598,4.4598,4.4598,4.4598,4.4598,4.4598,4.4598,4.4598,4.4598,4.4598,4.4598,4.4598,4.4598,4.4598,4.4598,4.4598,4.4598,4.4547,4.4265,4.3792,4.3369,4.3014,4.2066,4.1035,4.0553,4.0282,4.0146,4.0113,4.0113,4.0113,4.0113,4.0113,4.0113,4.0113,4.0113,4.0113,4.0113,4.0113,4.0113,4.0113,4.0113,4.0113,4.0113,4.0113,4.0113,4.0113,4.0113,4.0113,4.0113,4.0113,4.0113,4.0113,4.0087,4.007,4.0011,3.9859,3.9109,3.8385,3.6941,3.5575,3.5252,3.502,3.5038,3.5241,3.5108,3.4904,3.4577,3.4219,3.3825,3.3525,3.2998,3.2036,3.1235,3.1002,3.0658,2.9835,2.8896,2.8491,2.8491,2.8477,2.8365,2.8525,2.8501,2.8018,2.7655,2.7399,2.7144,2.6834,2.6561,2.6229,2.6122,2.6001,2.555,2.516,2.5048,2.4935,2.4694,4.4598,4.4598,4.4598,4.4598,4.4598,4.4598,4.4598,4.4598,4.4598,4.4598,4.4598,4.4598,4.4598,4.4598,4.4598,4.4598,4.4598,4.4598,4.4598,4.4598,4.4598,4.4598,4.4598,4.4598,4.4598,4.4598,4.4598,4.4598,4.4598,4.4598,4.4598,4.4598,4.4598,4.4598,4.4598,4.4547,4.4479,4.4096,4.3758,4.3386,4.2946,4.2016,4.1187,4.0781,4.0392,4.0231,4.0113,4.0113,4.0113,4.0113,4.0113,4.0113,4.0113,4.0113,4.0113,4.0113,4.0113,4.0113,4.0113,4.0113,4.0113,4.0113,4.0113,4.0113,4.0113,4.0113,4.0113,4.0113,4.0113,4.0113,4.0087,4.0087,4.0037,3.9834,3.9335,3.8652,3.7636,3.6713,3.6101,3.5732,3.5452,3.5503,3.5424,3.5178,3.4904,3.4478,3.3949,3.3664,3.3664,3.2756,3.1845,3.1654,3.1534,3.0786,2.9759,2.8923,2.8768,2.8762,2.8794,2.8826,2.8763,2.8612,2.8301,2.7978,2.7715,2.7414,2.7133,2.6953,2.6718,2.6534,2.6069,2.5729,2.5619,2.5397,2.5104]}]]